<?xml version="1.0" encoding="UTF-8" standalone="no" ?>
<gpx xmlns="http://www.topografix.com/GPX/1/1" creator="MapSource 6.16.3" version="1.1" xmlns:xsi="http://www.w3.org/2001/XMLSchema-instance" xsi:schemaLocation="http://www.topografix.com/GPX/1/1 http://www.topografix.com/GPX/1/1/gpx.xsd">

  <metadata>
    <link href="http://www.garmin.com">
      <text>Garmin International</text>
    </link>
    <time>2012-12-11T13:13:02Z</time>
    <bounds maxlat="45.782804796472192" maxlon="8.95738385617733" minlat="45.681572025641799" minlon="8.91153970733285"/>
  </metadata>

  <trk>
    <name>Untitled</name>
    <extensions>
      <gpxx:TrackExtension xmlns:gpxx="http://www.garmin.com/xmlschemas/GpxExtensions/v3">
        <gpxx:DisplayColor>DarkYellow</gpxx:DisplayColor>
      </gpxx:TrackExtension>
    </extensions>
    <trkseg>
      <trkpt lat="45.68162240087986" lon="8.95730565302074">
        <ele>257.20001220703125</ele>
        <time>2012-12-09T08:35:21Z</time>
      </trkpt>
      <trkpt lat="45.681655090302229" lon="8.957286793738604">
        <ele>257.20001220703125</ele>
        <time>2012-12-09T08:35:29Z</time>
      </trkpt>
      <trkpt lat="45.681737316772342" lon="8.957208339124918">
        <ele>257.39999389648437</ele>
        <time>2012-12-09T08:35:35Z</time>
      </trkpt>
      <trkpt lat="45.681924736127257" lon="8.957081353291869">
        <ele>257.79998779296875</ele>
        <time>2012-12-09T08:35:43Z</time>
      </trkpt>
      <trkpt lat="45.68197519518435" lon="8.9570935908705">
        <ele>258</ele>
        <time>2012-12-09T08:35:45Z</time>
      </trkpt>
      <trkpt lat="45.681993216276169" lon="8.9571263641119">
        <ele>258</ele>
        <time>2012-12-09T08:35:46Z</time>
      </trkpt>
      <trkpt lat="45.682066641747952" lon="8.957362063229084">
        <ele>258.20001220703125</ele>
        <time>2012-12-09T08:35:52Z</time>
      </trkpt>
      <trkpt lat="45.682165212929249" lon="8.95738385617733">
        <ele>258.60000610351562</ele>
        <time>2012-12-09T08:35:56Z</time>
      </trkpt>
      <trkpt lat="45.682199075818062" lon="8.957356195896864">
        <ele>258.60000610351562</ele>
        <time>2012-12-09T08:35:57Z</time>
      </trkpt>
      <trkpt lat="45.682304101064801" lon="8.957306994125247">
        <ele>258.79998779296875</ele>
        <time>2012-12-09T08:36:01Z</time>
      </trkpt>
      <trkpt lat="45.682497471570969" lon="8.957189060747623">
        <ele>259.20001220703125</ele>
        <time>2012-12-09T08:36:07Z</time>
      </trkpt>
      <trkpt lat="45.682769045233727" lon="8.957038605585694">
        <ele>259.39999389648438</ele>
        <time>2012-12-09T08:36:15Z</time>
      </trkpt>
      <trkpt lat="45.682946909219027" lon="8.956909691914916">
        <ele>259.60000610351562</ele>
        <time>2012-12-09T08:36:21Z</time>
      </trkpt>
      <trkpt lat="45.683172130957246" lon="8.95671296864748">
        <ele>259.60000610351562</ele>
        <time>2012-12-09T08:36:29Z</time>
      </trkpt>
      <trkpt lat="45.683270953595638" lon="8.95648623816669">
        <ele>260</ele>
        <time>2012-12-09T08:36:35Z</time>
      </trkpt>
      <trkpt lat="45.683443704620004" lon="8.956227404996753">
        <ele>261</ele>
        <time>2012-12-09T08:36:43Z</time>
      </trkpt>
      <trkpt lat="45.683565074577928" lon="8.956098575145006">
        <ele>261.79998779296875</ele>
        <time>2012-12-09T08:36:48Z</time>
      </trkpt>
      <trkpt lat="45.683732125908136" lon="8.955911826342344">
        <ele>263.20001220703125</ele>
        <time>2012-12-09T08:36:55Z</time>
      </trkpt>
      <trkpt lat="45.683866571635008" lon="8.955762879922986">
        <ele>264.39999389648437</ele>
        <time>2012-12-09T08:37:01Z</time>
      </trkpt>
      <trkpt lat="45.684085423126817" lon="8.955731280148029">
        <ele>265.60000610351562</ele>
        <time>2012-12-09T08:37:08Z</time>
      </trkpt>
      <trkpt lat="45.684302598237991" lon="8.955742763355374">
        <ele>266.20001220703125</ele>
        <time>2012-12-09T08:37:15Z</time>
      </trkpt>
      <trkpt lat="45.684493789449334" lon="8.955689454451203">
        <ele>266.60000610351562</ele>
        <time>2012-12-09T08:37:21Z</time>
      </trkpt>
      <trkpt lat="45.684688836336136" lon="8.95561845973134">
        <ele>267</ele>
        <time>2012-12-09T08:37:27Z</time>
      </trkpt>
      <trkpt lat="45.684911040589213" lon="8.955570096150041">
        <ele>267.39999389648437</ele>
        <time>2012-12-09T08:37:34Z</time>
      </trkpt>
      <trkpt lat="45.685100639238954" lon="8.955520810559392">
        <ele>268</ele>
        <time>2012-12-09T08:37:40Z</time>
      </trkpt>
      <trkpt lat="45.68534673191607" lon="8.955530868843198">
        <ele>268.60000610351562</ele>
        <time>2012-12-09T08:37:47Z</time>
      </trkpt>
      <trkpt lat="45.685512525960803" lon="8.955529863014817">
        <ele>269</ele>
        <time>2012-12-09T08:37:52Z</time>
      </trkpt>
      <trkpt lat="45.685728024691343" lon="8.955507483333349">
        <ele>269.60000610351562</ele>
        <time>2012-12-09T08:37:58Z</time>
      </trkpt>
      <trkpt lat="45.685959784314036" lon="8.955453671514988">
        <ele>270.39999389648437</ele>
        <time>2012-12-09T08:38:05Z</time>
      </trkpt>
      <trkpt lat="45.686164721846581" lon="8.955406062304974">
        <ele>271</ele>
        <time>2012-12-09T08:38:11Z</time>
      </trkpt>
      <trkpt lat="45.686365216970444" lon="8.955363482236862">
        <ele>271.79998779296875</ele>
        <time>2012-12-09T08:38:17Z</time>
      </trkpt>
      <trkpt lat="45.686532435938716" lon="8.955372115597129">
        <ele>272.39999389648437</ele>
        <time>2012-12-09T08:38:23Z</time>
      </trkpt>
      <trkpt lat="45.686685908585787" lon="8.955346466973424">
        <ele>272.79998779296875</ele>
        <time>2012-12-09T08:38:29Z</time>
      </trkpt>
      <trkpt lat="45.686915069818497" lon="8.955305814743042">
        <ele>273</ele>
        <time>2012-12-09T08:38:37Z</time>
      </trkpt>
      <trkpt lat="45.687121348455548" lon="8.955251751467586">
        <ele>273.20001220703125</ele>
        <time>2012-12-09T08:38:44Z</time>
      </trkpt>
      <trkpt lat="45.687278676778078" lon="8.955193581059575">
        <ele>273.39999389648437</ele>
        <time>2012-12-09T08:38:50Z</time>
      </trkpt>
      <trkpt lat="45.687462072819471" lon="8.955098614096642">
        <ele>273.79998779296875</ele>
        <time>2012-12-09T08:38:57Z</time>
      </trkpt>
      <trkpt lat="45.687650665640831" lon="8.955014459788799">
        <ele>274</ele>
        <time>2012-12-09T08:39:04Z</time>
      </trkpt>
      <trkpt lat="45.687842862680554" lon="8.954918067902327">
        <ele>274.20001220703125</ele>
        <time>2012-12-09T08:39:11Z</time>
      </trkpt>
      <trkpt lat="45.687973788008094" lon="8.954839697107673">
        <ele>274.39999389648437</ele>
        <time>2012-12-09T08:39:17Z</time>
      </trkpt>
      <trkpt lat="45.688097840175033" lon="8.954775240272284">
        <ele>274.79998779296875</ele>
        <time>2012-12-09T08:39:24Z</time>
      </trkpt>
      <trkpt lat="45.688202446326613" lon="8.954764595255256">
        <ele>275</ele>
        <time>2012-12-09T08:39:29Z</time>
      </trkpt>
      <trkpt lat="45.688266651704907" lon="8.954736432060599">
        <ele>275.39999389648437</ele>
        <time>2012-12-09T08:39:32Z</time>
      </trkpt>
      <trkpt lat="45.688305962830782" lon="8.954693600535393">
        <ele>275.60000610351562</ele>
        <time>2012-12-09T08:39:34Z</time>
      </trkpt>
      <trkpt lat="45.68838601000607" lon="8.95465387031436">
        <ele>276</ele>
        <time>2012-12-09T08:39:37Z</time>
      </trkpt>
      <trkpt lat="45.688441665843129" lon="8.954632747918367">
        <ele>276.20001220703125</ele>
        <time>2012-12-09T08:39:39Z</time>
      </trkpt>
      <trkpt lat="45.688656074926257" lon="8.954603495076299">
        <ele>277.20001220703125</ele>
        <time>2012-12-09T08:39:46Z</time>
      </trkpt>
      <trkpt lat="45.688900658860803" lon="8.954561585560441">
        <ele>278.39999389648437</ele>
        <time>2012-12-09T08:39:54Z</time>
      </trkpt>
      <trkpt lat="45.689084222540259" lon="8.954508947208524">
        <ele>279.39999389648438</ele>
        <time>2012-12-09T08:40:01Z</time>
      </trkpt>
      <trkpt lat="45.68926015868783" lon="8.954454381018877">
        <ele>280.20001220703125</ele>
        <time>2012-12-09T08:40:07Z</time>
      </trkpt>
      <trkpt lat="45.689487811177969" lon="8.954406268894672">
        <ele>280.60000610351562</ele>
        <time>2012-12-09T08:40:12Z</time>
      </trkpt>
      <trkpt lat="45.689611863344908" lon="8.954387661069632">
        <ele>280.60000610351562</ele>
        <time>2012-12-09T08:40:15Z</time>
      </trkpt>
      <trkpt lat="45.689682774245739" lon="8.954367376863957">
        <ele>280.79998779296875</ele>
        <time>2012-12-09T08:40:17Z</time>
      </trkpt>
      <trkpt lat="45.68989047780633" lon="8.954297220334411">
        <ele>281.60000610351562</ele>
        <time>2012-12-09T08:40:23Z</time>
      </trkpt>
      <trkpt lat="45.690085273236036" lon="8.954235445708036">
        <ele>282</ele>
        <time>2012-12-09T08:40:29Z</time>
      </trkpt>
      <trkpt lat="45.690259113907814" lon="8.954151710495353">
        <ele>282.20001220703125</ele>
        <time>2012-12-09T08:40:34Z</time>
      </trkpt>
      <trkpt lat="45.690460447221994" lon="8.95402598194778">
        <ele>282</ele>
        <time>2012-12-09T08:40:40Z</time>
      </trkpt>
      <trkpt lat="45.690677454695106" lon="8.953871754929423">
        <ele>282.20001220703125</ele>
        <time>2012-12-09T08:40:47Z</time>
      </trkpt>
      <trkpt lat="45.690846014767885" lon="8.953770250082016">
        <ele>282.79998779296875</ele>
        <time>2012-12-09T08:40:53Z</time>
      </trkpt>
      <trkpt lat="45.690989345312119" lon="8.953679474070668">
        <ele>284.20001220703125</ele>
        <time>2012-12-09T08:40:58Z</time>
      </trkpt>
      <trkpt lat="45.691193612292409" lon="8.95353932864964">
        <ele>285.79998779296875</ele>
        <time>2012-12-09T08:41:05Z</time>
      </trkpt>
      <trkpt lat="45.691312802955508" lon="8.953471351414919">
        <ele>286.79998779296875</ele>
        <time>2012-12-09T08:41:09Z</time>
      </trkpt>
      <trkpt lat="45.691486895084381" lon="8.953393148258328">
        <ele>287.79998779296875</ele>
        <time>2012-12-09T08:41:14Z</time>
      </trkpt>
      <trkpt lat="45.691649336367846" lon="8.953331625089049">
        <ele>288.79998779296875</ele>
        <time>2012-12-09T08:41:19Z</time>
      </trkpt>
      <trkpt lat="45.691836001351476" lon="8.953232048079372">
        <ele>289</ele>
        <time>2012-12-09T08:41:25Z</time>
      </trkpt>
      <trkpt lat="45.691951420158148" lon="8.953176559880376">
        <ele>289</ele>
        <time>2012-12-09T08:41:29Z</time>
      </trkpt>
      <trkpt lat="45.692136911675334" lon="8.953119060024619">
        <ele>289.39999389648437</ele>
        <time>2012-12-09T08:41:34Z</time>
      </trkpt>
      <trkpt lat="45.692323660477996" lon="8.953094249591231">
        <ele>290</ele>
        <time>2012-12-09T08:41:40Z</time>
      </trkpt>
      <trkpt lat="45.692489370703697" lon="8.95310690626502">
        <ele>290.79998779296875</ele>
        <time>2012-12-09T08:41:45Z</time>
      </trkpt>
      <trkpt lat="45.692659104242921" lon="8.953074887394905">
        <ele>290.39999389648437</ele>
        <time>2012-12-09T08:41:51Z</time>
      </trkpt>
      <trkpt lat="45.692859850823879" lon="8.953006574884057">
        <ele>289.79998779296875</ele>
        <time>2012-12-09T08:41:57Z</time>
      </trkpt>
      <trkpt lat="45.693011982366443" lon="8.953007832169533">
        <ele>289.60000610351562</ele>
        <time>2012-12-09T08:42:02Z</time>
      </trkpt>
      <trkpt lat="45.693215662613511" lon="8.953015292063355">
        <ele>289.39999389648437</ele>
        <time>2012-12-09T08:42:08Z</time>
      </trkpt>
      <trkpt lat="45.693374080583453" lon="8.95300867035985">
        <ele>289</ele>
        <time>2012-12-09T08:42:13Z</time>
      </trkpt>
      <trkpt lat="45.693576335906982" lon="8.953019650653005">
        <ele>288.79998779296875</ele>
        <time>2012-12-09T08:42:19Z</time>
      </trkpt>
      <trkpt lat="45.693725785240531" lon="8.953115958720446">
        <ele>288.79998779296875</ele>
        <time>2012-12-09T08:42:24Z</time>
      </trkpt>
      <trkpt lat="45.693944972008467" lon="8.953244788572192">
        <ele>288.79998779296875</ele>
        <time>2012-12-09T08:42:31Z</time>
      </trkpt>
      <trkpt lat="45.694110179319978" lon="8.953328020870686">
        <ele>289</ele>
        <time>2012-12-09T08:42:37Z</time>
      </trkpt>
      <trkpt lat="45.694275973364711" lon="8.953338079154491">
        <ele>289.20001220703125</ele>
        <time>2012-12-09T08:42:43Z</time>
      </trkpt>
      <trkpt lat="45.694457441568375" lon="8.95331016741693">
        <ele>289.60000610351562</ele>
        <time>2012-12-09T08:42:49Z</time>
      </trkpt>
      <trkpt lat="45.694576296955347" lon="8.953299773856998">
        <ele>289.79998779296875</ele>
        <time>2012-12-09T08:42:53Z</time>
      </trkpt>
      <trkpt lat="45.694784000515938" lon="8.953266246244311">
        <ele>290.20001220703125</ele>
        <time>2012-12-09T08:42:59Z</time>
      </trkpt>
      <trkpt lat="45.694952225312591" lon="8.953285859897733">
        <ele>290.60000610351562</ele>
        <time>2012-12-09T08:43:04Z</time>
      </trkpt>
      <trkpt lat="45.695188846439123" lon="8.953265240415931">
        <ele>291</ele>
        <time>2012-12-09T08:43:11Z</time>
      </trkpt>
      <trkpt lat="45.695359418168664" lon="8.953268928453326">
        <ele>291.20001220703125</ele>
        <time>2012-12-09T08:43:16Z</time>
      </trkpt>
      <trkpt lat="45.695540634915233" lon="8.953256187960506">
        <ele>291.39999389648437</ele>
        <time>2012-12-09T08:43:22Z</time>
      </trkpt>
      <trkpt lat="45.695729814469814" lon="8.953256690874696">
        <ele>291.79998779296875</ele>
        <time>2012-12-09T08:43:28Z</time>
      </trkpt>
      <trkpt lat="45.695896362885833" lon="8.953222157433629">
        <ele>292</ele>
        <time>2012-12-09T08:43:33Z</time>
      </trkpt>
      <trkpt lat="45.696086883544922" lon="8.953221151605249">
        <ele>292</ele>
        <time>2012-12-09T08:43:39Z</time>
      </trkpt>
      <trkpt lat="45.696240523830056" lon="8.953189551830292">
        <ele>292</ele>
        <time>2012-12-09T08:43:44Z</time>
      </trkpt>
      <trkpt lat="45.696425512433052" lon="8.95313473418355">
        <ele>292</ele>
        <time>2012-12-09T08:43:50Z</time>
      </trkpt>
      <trkpt lat="45.696565909311175" lon="8.95309123210609">
        <ele>291.79998779296875</ele>
        <time>2012-12-09T08:43:55Z</time>
      </trkpt>
      <trkpt lat="45.696771685034037" lon="8.953090980648994">
        <ele>292</ele>
        <time>2012-12-09T08:44:01Z</time>
      </trkpt>
      <trkpt lat="45.696938820183277" lon="8.95309223793447">
        <ele>292.39999389648437</ele>
        <time>2012-12-09T08:44:06Z</time>
      </trkpt>
      <trkpt lat="45.697131184861064" lon="8.953121490776539">
        <ele>292.79998779296875</ele>
        <time>2012-12-09T08:44:12Z</time>
      </trkpt>
      <trkpt lat="45.697282310575247" lon="8.953177649527788">
        <ele>293.39999389648437</ele>
        <time>2012-12-09T08:44:17Z</time>
      </trkpt>
      <trkpt lat="45.697481296956539" lon="8.953233389183879">
        <ele>293.79998779296875</ele>
        <time>2012-12-09T08:44:23Z</time>
      </trkpt>
      <trkpt lat="45.697747506201267" lon="8.953306814655662">
        <ele>294.39999389648437</ele>
        <time>2012-12-09T08:44:31Z</time>
      </trkpt>
      <trkpt lat="45.697931153699756" lon="8.953405218198896">
        <ele>294.79998779296875</ele>
        <time>2012-12-09T08:44:37Z</time>
      </trkpt>
      <trkpt lat="45.698091918602586" lon="8.953478895127773">
        <ele>295.20001220703125</ele>
        <time>2012-12-09T08:44:43Z</time>
      </trkpt>
      <trkpt lat="45.698148580268025" lon="8.953503705561161">
        <ele>295.20001220703125</ele>
        <time>2012-12-09T08:44:48Z</time>
      </trkpt>
      <trkpt lat="45.698184119537473" lon="8.953472692519426">
        <ele>295.39999389648437</ele>
        <time>2012-12-09T08:44:54Z</time>
      </trkpt>
      <trkpt lat="45.698275398463011" lon="8.953493144363165">
        <ele>295.60000610351562</ele>
        <time>2012-12-09T08:44:59Z</time>
      </trkpt>
      <trkpt lat="45.698404060676694" lon="8.953502532094717">
        <ele>295.79998779296875</ele>
        <time>2012-12-09T08:45:05Z</time>
      </trkpt>
      <trkpt lat="45.698530962690711" lon="8.953473027795553">
        <ele>296.20001220703125</ele>
        <time>2012-12-09T08:45:10Z</time>
      </trkpt>
      <trkpt lat="45.698661971837282" lon="8.953450145199895">
        <ele>296.60000610351562</ele>
        <time>2012-12-09T08:45:15Z</time>
      </trkpt>
      <trkpt lat="45.698796752840281" lon="8.953434471040964">
        <ele>296.79998779296875</ele>
        <time>2012-12-09T08:45:20Z</time>
      </trkpt>
      <trkpt lat="45.698908232152462" lon="8.953431621193886">
        <ele>297.20001220703125</ele>
        <time>2012-12-09T08:45:24Z</time>
      </trkpt>
      <trkpt lat="45.699007557705045" lon="8.953456347808242">
        <ele>297.39999389648437</ele>
        <time>2012-12-09T08:45:28Z</time>
      </trkpt>
      <trkpt lat="45.69917100481689" lon="8.953498927876353">
        <ele>297.79998779296875</ele>
        <time>2012-12-09T08:45:34Z</time>
      </trkpt>
      <trkpt lat="45.699286423623562" lon="8.953500268980861">
        <ele>298</ele>
        <time>2012-12-09T08:45:38Z</time>
      </trkpt>
      <trkpt lat="45.699492115527391" lon="8.953562211245298">
        <ele>298.20001220703125</ele>
        <time>2012-12-09T08:45:45Z</time>
      </trkpt>
      <trkpt lat="45.699514243751764" lon="8.953552320599556">
        <ele>298.20001220703125</ele>
        <time>2012-12-09T08:45:46Z</time>
      </trkpt>
      <trkpt lat="45.699616838246584" lon="8.953557768836618">
        <ele>298.39999389648437</ele>
        <time>2012-12-09T08:45:49Z</time>
      </trkpt>
      <trkpt lat="45.699751116335392" lon="8.953580567613244">
        <ele>298.79998779296875</ele>
        <time>2012-12-09T08:45:54Z</time>
      </trkpt>
      <trkpt lat="45.699947169050574" lon="8.953597582876682">
        <ele>299.20001220703125</ele>
        <time>2012-12-09T08:46:00Z</time>
      </trkpt>
      <trkpt lat="45.700095361098647" lon="8.953614933416247">
        <ele>299.60000610351562</ele>
        <time>2012-12-09T08:46:05Z</time>
      </trkpt>
      <trkpt lat="45.700256880372763" lon="8.953598504886031">
        <ele>300</ele>
        <time>2012-12-09T08:46:11Z</time>
      </trkpt>
      <trkpt lat="45.700477240607142" lon="8.9535500574857">
        <ele>300.60000610351562</ele>
        <time>2012-12-09T08:46:18Z</time>
      </trkpt>
      <trkpt lat="45.70063004270196" lon="8.953543268144131">
        <ele>301</ele>
        <time>2012-12-09T08:46:23Z</time>
      </trkpt>
      <trkpt lat="45.700821988284588" lon="8.953584423288703">
        <ele>301.60000610351562</ele>
        <time>2012-12-09T08:46:29Z</time>
      </trkpt>
      <trkpt lat="45.700959200039506" lon="8.953548213467002">
        <ele>301.79998779296875</ele>
        <time>2012-12-09T08:46:34Z</time>
      </trkpt>
      <trkpt lat="45.701089035719633" lon="8.953521559014916">
        <ele>302</ele>
        <time>2012-12-09T08:46:39Z</time>
      </trkpt>
      <trkpt lat="45.701199090108275" lon="8.95354712381959">
        <ele>302</ele>
        <time>2012-12-09T08:46:43Z</time>
      </trkpt>
      <trkpt lat="45.701406626030803" lon="8.953578220680356">
        <ele>302.20001220703125</ele>
        <time>2012-12-09T08:46:49Z</time>
      </trkpt>
      <trkpt lat="45.701593542471528" lon="8.953606383875012">
        <ele>302.39999389648438</ele>
        <time>2012-12-09T08:46:55Z</time>
      </trkpt>
      <trkpt lat="45.701737375929952" lon="8.953590206801891">
        <ele>302.60000610351562</ele>
        <time>2012-12-09T08:47:00Z</time>
      </trkpt>
      <trkpt lat="45.701919766142964" lon="8.953614598140121">
        <ele>302.79998779296875</ele>
        <time>2012-12-09T08:47:05Z</time>
      </trkpt>
      <trkpt lat="45.702059073373675" lon="8.953665979206562">
        <ele>303</ele>
        <time>2012-12-09T08:47:10Z</time>
      </trkpt>
      <trkpt lat="45.702207265421748" lon="8.953687185421586">
        <ele>303.20001220703125</ele>
        <time>2012-12-09T08:47:15Z</time>
      </trkpt>
      <trkpt lat="45.702379932627082" lon="8.953710570931435">
        <ele>303.39999389648437</ele>
        <time>2012-12-09T08:47:21Z</time>
      </trkpt>
      <trkpt lat="45.702520916238427" lon="8.95371719263494">
        <ele>303.39999389648437</ele>
        <time>2012-12-09T08:47:27Z</time>
      </trkpt>
      <trkpt lat="45.702673969790339" lon="8.953736051917076">
        <ele>303.79998779296875</ele>
        <time>2012-12-09T08:47:33Z</time>
      </trkpt>
      <trkpt lat="45.702858455479145" lon="8.953735465183854">
        <ele>304.20001220703125</ele>
        <time>2012-12-09T08:47:39Z</time>
      </trkpt>
      <trkpt lat="45.70297546684742" lon="8.953772513195872">
        <ele>304.60000610351562</ele>
        <time>2012-12-09T08:47:43Z</time>
      </trkpt>
      <trkpt lat="45.703092310577631" lon="8.953791791573167">
        <ele>305</ele>
        <time>2012-12-09T08:47:47Z</time>
      </trkpt>
      <trkpt lat="45.703189959749579" lon="8.953797239810228">
        <ele>305.20001220703125</ele>
        <time>2012-12-09T08:47:51Z</time>
      </trkpt>
      <trkpt lat="45.703369500115514" lon="8.953798161819577">
        <ele>305.60000610351562</ele>
        <time>2012-12-09T08:47:56Z</time>
      </trkpt>
      <trkpt lat="45.703570833429694" lon="8.953741248697043">
        <ele>305.60000610351562</ele>
        <time>2012-12-09T08:48:01Z</time>
      </trkpt>
      <trkpt lat="45.703695891425014" lon="8.953652400523424">
        <ele>305.39999389648437</ele>
        <time>2012-12-09T08:48:05Z</time>
      </trkpt>
      <trkpt lat="45.703823883086443" lon="8.953646197915077">
        <ele>305.60000610351562</ele>
        <time>2012-12-09T08:48:09Z</time>
      </trkpt>
      <trkpt lat="45.70391365326941" lon="8.953667990863323">
        <ele>305.79998779296875</ele>
        <time>2012-12-09T08:48:12Z</time>
      </trkpt>
      <trkpt lat="45.704007614403963" lon="8.953677797690034">
        <ele>306</ele>
        <time>2012-12-09T08:48:15Z</time>
      </trkpt>
      <trkpt lat="45.70406905375421" lon="8.953684000298381">
        <ele>306</ele>
        <time>2012-12-09T08:48:17Z</time>
      </trkpt>
      <trkpt lat="45.704226046800613" lon="8.953722221776843">
        <ele>306.20001220703125</ele>
        <time>2012-12-09T08:48:22Z</time>
      </trkpt>
      <trkpt lat="45.704362839460373" lon="8.953733453527093">
        <ele>306.20001220703125</ele>
        <time>2012-12-09T08:48:26Z</time>
      </trkpt>
      <trkpt lat="45.704514384269714" lon="8.953776201233268">
        <ele>306</ele>
        <time>2012-12-09T08:48:31Z</time>
      </trkpt>
      <trkpt lat="45.704592671245337" lon="8.95379145629704">
        <ele>306</ele>
        <time>2012-12-09T08:48:34Z</time>
      </trkpt>
      <trkpt lat="45.704644052311778" lon="8.953801263123751">
        <ele>306</ele>
        <time>2012-12-09T08:48:36Z</time>
      </trkpt>
      <trkpt lat="45.704794842749834" lon="8.953895643353462">
        <ele>306.20001220703125</ele>
        <time>2012-12-09T08:48:41Z</time>
      </trkpt>
      <trkpt lat="45.704953260719776" lon="8.954036626964808">
        <ele>306.39999389648437</ele>
        <time>2012-12-09T08:48:46Z</time>
      </trkpt>
      <trkpt lat="45.704982010647655" lon="8.954045344144106">
        <ele>306.39999389648437</ele>
        <time>2012-12-09T08:48:47Z</time>
      </trkpt>
      <trkpt lat="45.705045629292727" lon="8.954067472368479">
        <ele>306.60000610351562</ele>
        <time>2012-12-09T08:48:49Z</time>
      </trkpt>
      <trkpt lat="45.70522709749639" lon="8.95416914485395">
        <ele>307.20001220703125</ele>
        <time>2012-12-09T08:48:55Z</time>
      </trkpt>
      <trkpt lat="45.705333631485701" lon="8.954237038269639">
        <ele>307</ele>
        <time>2012-12-09T08:48:59Z</time>
      </trkpt>
      <trkpt lat="45.705439662560821" lon="8.954275008291006">
        <ele>307</ele>
        <time>2012-12-09T08:49:03Z</time>
      </trkpt>
      <trkpt lat="45.705525744706392" lon="8.954345751553774">
        <ele>306.79998779296875</ele>
        <time>2012-12-09T08:49:06Z</time>
      </trkpt>
      <trkpt lat="45.705552482977509" lon="8.954372489824891">
        <ele>306.79998779296875</ele>
        <time>2012-12-09T08:49:07Z</time>
      </trkpt>
      <trkpt lat="45.705646863207221" lon="8.954392690211535">
        <ele>306.79998779296875</ele>
        <time>2012-12-09T08:49:10Z</time>
      </trkpt>
      <trkpt lat="45.705683659762144" lon="8.954389924183488">
        <ele>306.79998779296875</ele>
        <time>2012-12-09T08:49:11Z</time>
      </trkpt>
      <trkpt lat="45.705741159617901" lon="8.954401072114706">
        <ele>307</ele>
        <time>2012-12-09T08:49:13Z</time>
      </trkpt>
      <trkpt lat="45.705771083012223" lon="8.95442764274776">
        <ele>306.79998779296875</ele>
        <time>2012-12-09T08:49:15Z</time>
      </trkpt>
      <trkpt lat="45.705809555947781" lon="8.954392019659281">
        <ele>307</ele>
        <time>2012-12-09T08:49:19Z</time>
      </trkpt>
      <trkpt lat="45.705895721912384" lon="8.954392019659281">
        <ele>307.20001220703125</ele>
        <time>2012-12-09T08:49:23Z</time>
      </trkpt>
      <trkpt lat="45.705971326678991" lon="8.954394282773137">
        <ele>307.39999389648437</ele>
        <time>2012-12-09T08:49:26Z</time>
      </trkpt>
      <trkpt lat="45.706024300307035" lon="8.954402497038245">
        <ele>307.39999389648437</ele>
        <time>2012-12-09T08:49:28Z</time>
      </trkpt>
      <trkpt lat="45.706214401870966" lon="8.954416243359447">
        <ele>307.79998779296875</ele>
        <time>2012-12-09T08:49:34Z</time>
      </trkpt>
      <trkpt lat="45.706357983872294" lon="8.954384392127395">
        <ele>308</ele>
        <time>2012-12-09T08:49:38Z</time>
      </trkpt>
      <trkpt lat="45.706565771251917" lon="8.954259753227234">
        <ele>308.60000610351562</ele>
        <time>2012-12-09T08:49:44Z</time>
      </trkpt>
      <trkpt lat="45.70672276429832" lon="8.954185405746102">
        <ele>309</ele>
        <time>2012-12-09T08:49:49Z</time>
      </trkpt>
      <trkpt lat="45.706931389868259" lon="8.954156655818224">
        <ele>309.39999389648437</ele>
        <time>2012-12-09T08:49:55Z</time>
      </trkpt>
      <trkpt lat="45.707094669342041" lon="8.954164199531078">
        <ele>309.79998779296875</ele>
        <time>2012-12-09T08:49:59Z</time>
      </trkpt>
      <trkpt lat="45.707280831411481" lon="8.954272409901023">
        <ele>310.60000610351562</ele>
        <time>2012-12-09T08:50:04Z</time>
      </trkpt>
      <trkpt lat="45.707458779215813" lon="8.954454883933067">
        <ele>311.79998779296875</ele>
        <time>2012-12-09T08:50:09Z</time>
      </trkpt>
      <trkpt lat="45.707642342895269" lon="8.954624449834228">
        <ele>312.39999389648437</ele>
        <time>2012-12-09T08:50:14Z</time>
      </trkpt>
      <trkpt lat="45.707676792517304" lon="8.954663844779134">
        <ele>312.39999389648437</ele>
        <time>2012-12-09T08:50:15Z</time>
      </trkpt>
      <trkpt lat="45.70776698179543" lon="8.954680692404509">
        <ele>312.39999389648437</ele>
        <time>2012-12-09T08:50:18Z</time>
      </trkpt>
      <trkpt lat="45.707819871604443" lon="8.954602908343077">
        <ele>312</ele>
        <time>2012-12-09T08:50:21Z</time>
      </trkpt>
      <trkpt lat="45.707822889089584" lon="8.954581283032894">
        <ele>312</ele>
        <time>2012-12-09T08:50:22Z</time>
      </trkpt>
      <trkpt lat="45.707828672602773" lon="8.954575750976801">
        <ele>312</ele>
        <time>2012-12-09T08:50:23Z</time>
      </trkpt>
      <trkpt lat="45.707849208265543" lon="8.954479275271297">
        <ele>311.60000610351562</ele>
        <time>2012-12-09T08:50:34Z</time>
      </trkpt>
      <trkpt lat="45.707868402823806" lon="8.954261932522059">
        <ele>310.79998779296875</ele>
        <time>2012-12-09T08:50:39Z</time>
      </trkpt>
      <trkpt lat="45.707923471927643" lon="8.953926069661975">
        <ele>307</ele>
        <time>2012-12-09T08:50:45Z</time>
      </trkpt>
      <trkpt lat="45.70800393819809" lon="8.953723143786192">
        <ele>304.39999389648437</ele>
        <time>2012-12-09T08:50:50Z</time>
      </trkpt>
      <trkpt lat="45.707996059209108" lon="8.953497922047973">
        <ele>301.39999389648437</ele>
        <time>2012-12-09T08:50:55Z</time>
      </trkpt>
      <trkpt lat="45.708057079464197" lon="8.953384682536125">
        <ele>300</ele>
        <time>2012-12-09T08:50:59Z</time>
      </trkpt>
      <trkpt lat="45.708092199638486" lon="8.953310083597899">
        <ele>299</ele>
        <time>2012-12-09T08:51:02Z</time>
      </trkpt>
      <trkpt lat="45.708098066970706" lon="8.953268006443977">
        <ele>298.60000610351562</ele>
        <time>2012-12-09T08:51:03Z</time>
      </trkpt>
      <trkpt lat="45.70809680968523" lon="8.953050076961517">
        <ele>296</ele>
        <time>2012-12-09T08:51:08Z</time>
      </trkpt>
      <trkpt lat="45.708124386146665" lon="8.952884785830975">
        <ele>294.20001220703125</ele>
        <time>2012-12-09T08:51:12Z</time>
      </trkpt>
      <trkpt lat="45.708137964829803" lon="8.952854443341494">
        <ele>294</ele>
        <time>2012-12-09T08:51:13Z</time>
      </trkpt>
      <trkpt lat="45.708143245428801" lon="8.952761320397258">
        <ele>293</ele>
        <time>2012-12-09T08:51:16Z</time>
      </trkpt>
      <trkpt lat="45.708144335076213" lon="8.952721422538161">
        <ele>292.60000610351562</ele>
        <time>2012-12-09T08:51:17Z</time>
      </trkpt>
      <trkpt lat="45.708148526027799" lon="8.952502906322479">
        <ele>290</ele>
        <time>2012-12-09T08:51:22Z</time>
      </trkpt>
      <trkpt lat="45.708212479948997" lon="8.952474743127823">
        <ele>290.39999389648437</ele>
        <time>2012-12-09T08:51:25Z</time>
      </trkpt>
      <trkpt lat="45.708298310637474" lon="8.952394695952535">
        <ele>290.79998779296875</ele>
        <time>2012-12-09T08:51:29Z</time>
      </trkpt>
      <trkpt lat="45.708309207111597" lon="8.952371058985591">
        <ele>291</ele>
        <time>2012-12-09T08:51:30Z</time>
      </trkpt>
      <trkpt lat="45.708385901525617" lon="8.952303500846028">
        <ele>291.60000610351562</ele>
        <time>2012-12-09T08:51:33Z</time>
      </trkpt>
      <trkpt lat="45.708410376682878" lon="8.952304841950536">
        <ele>291.79998779296875</ele>
        <time>2012-12-09T08:51:34Z</time>
      </trkpt>
      <trkpt lat="45.708493860438466" lon="8.952283803373575">
        <ele>292.39999389648437</ele>
        <time>2012-12-09T08:51:39Z</time>
      </trkpt>
      <trkpt lat="45.708595952019095" lon="8.952232170850039">
        <ele>293.20001220703125</ele>
        <time>2012-12-09T08:51:42Z</time>
      </trkpt>
      <trkpt lat="45.708629479631782" lon="8.952218256890774">
        <ele>293.39999389648437</ele>
        <time>2012-12-09T08:51:43Z</time>
      </trkpt>
      <trkpt lat="45.708836680278182" lon="8.952151788398624">
        <ele>294.79998779296875</ele>
        <time>2012-12-09T08:51:50Z</time>
      </trkpt>
      <trkpt lat="45.708968779072165" lon="8.95208615809679">
        <ele>295.60000610351562</ele>
        <time>2012-12-09T08:51:55Z</time>
      </trkpt>
      <trkpt lat="45.709000127390027" lon="8.952067634090781">
        <ele>295.79998779296875</ele>
        <time>2012-12-09T08:51:59Z</time>
      </trkpt>
      <trkpt lat="45.708992583677173" lon="8.952076770365238">
        <ele>295.79998779296875</ele>
        <time>2012-12-09T08:52:33Z</time>
      </trkpt>
      <trkpt lat="45.708990739658475" lon="8.952073752880096">
        <ele>295.79998779296875</ele>
        <time>2012-12-09T08:52:35Z</time>
      </trkpt>
      <trkpt lat="45.70897975936532" lon="8.952077021822333">
        <ele>295.60000610351562</ele>
        <time>2012-12-09T08:52:38Z</time>
      </trkpt>
      <trkpt lat="45.708966767415404" lon="8.952078362926841">
        <ele>295.60000610351562</ele>
        <time>2012-12-09T08:52:40Z</time>
      </trkpt>
      <trkpt lat="45.70895285345614" lon="8.952060593292117">
        <ele>295.39999389648437</ele>
        <time>2012-12-09T08:52:45Z</time>
      </trkpt>
      <trkpt lat="45.708971964195371" lon="8.952051792293787">
        <ele>295.60000610351562</ele>
        <time>2012-12-09T08:52:51Z</time>
      </trkpt>
      <trkpt lat="45.708967186510563" lon="8.952070567756891">
        <ele>295.60000610351562</ele>
        <time>2012-12-09T08:52:57Z</time>
      </trkpt>
      <trkpt lat="45.708977915346622" lon="8.95206612534821">
        <ele>295.60000610351562</ele>
        <time>2012-12-09T08:53:05Z</time>
      </trkpt>
      <trkpt lat="45.708967940881848" lon="8.952070567756891">
        <ele>295.60000610351562</ele>
        <time>2012-12-09T08:53:09Z</time>
      </trkpt>
      <trkpt lat="45.708961738273501" lon="8.952071741223335">
        <ele>295.60000610351562</ele>
        <time>2012-12-09T08:53:10Z</time>
      </trkpt>
      <trkpt lat="45.708947824314237" lon="8.952071908861399">
        <ele>295.39999389648437</ele>
        <time>2012-12-09T08:53:20Z</time>
      </trkpt>
      <trkpt lat="45.708951093256474" lon="8.952057491987944">
        <ele>295.39999389648437</ele>
        <time>2012-12-09T08:53:30Z</time>
      </trkpt>
      <trkpt lat="45.708946818485856" lon="8.952037375420332">
        <ele>295.39999389648437</ele>
        <time>2012-12-09T08:53:34Z</time>
      </trkpt>
      <trkpt lat="45.708957966417074" lon="8.952037878334522">
        <ele>295.39999389648437</ele>
        <time>2012-12-09T08:53:40Z</time>
      </trkpt>
      <trkpt lat="45.708928545936942" lon="8.952029747888446">
        <ele>295.20001220703125</ele>
        <time>2012-12-09T08:53:45Z</time>
      </trkpt>
      <trkpt lat="45.708908680826426" lon="8.951980713754892">
        <ele>294.79998779296875</ele>
        <time>2012-12-09T08:53:49Z</time>
      </trkpt>
      <trkpt lat="45.708895940333605" lon="8.951949113979936">
        <ele>294.79998779296875</ele>
        <time>2012-12-09T08:53:52Z</time>
      </trkpt>
      <trkpt lat="45.708901975303888" lon="8.9519302546978">
        <ele>294.79998779296875</ele>
        <time>2012-12-09T08:53:58Z</time>
      </trkpt>
      <trkpt lat="45.708874398842454" lon="8.951871246099472">
        <ele>294.39999389648437</ele>
        <time>2012-12-09T08:56:09Z</time>
      </trkpt>
      <trkpt lat="45.708883786574006" lon="8.951834868639708">
        <ele>294.39999389648437</ele>
        <time>2012-12-09T08:56:32Z</time>
      </trkpt>
      <trkpt lat="45.708881691098213" lon="8.951838808134198">
        <ele>294.39999389648437</ele>
        <time>2012-12-09T08:56:41Z</time>
      </trkpt>
      <trkpt lat="45.708909267559648" lon="8.951920615509152">
        <ele>294.79998779296875</ele>
        <time>2012-12-09T08:56:51Z</time>
      </trkpt>
      <trkpt lat="45.70893625728786" lon="8.95192782394588">
        <ele>294.79998779296875</ele>
        <time>2012-12-09T08:57:04Z</time>
      </trkpt>
      <trkpt lat="45.708943968638778" lon="8.951983563601971">
        <ele>295.20001220703125</ele>
        <time>2012-12-09T08:57:12Z</time>
      </trkpt>
      <trkpt lat="45.708941034972668" lon="8.952043075114489">
        <ele>295.20001220703125</ele>
        <time>2012-12-09T08:57:20Z</time>
      </trkpt>
      <trkpt lat="45.70894505828619" lon="8.952052881941199">
        <ele>295.39999389648437</ele>
        <time>2012-12-09T08:57:21Z</time>
      </trkpt>
      <trkpt lat="45.708967270329595" lon="8.952052295207977">
        <ele>295.39999389648437</ele>
        <time>2012-12-09T08:57:24Z</time>
      </trkpt>
      <trkpt lat="45.708977412432432" lon="8.952062856405973">
        <ele>295.60000610351562</ele>
        <time>2012-12-09T08:57:28Z</time>
      </trkpt>
      <trkpt lat="45.708992080762982" lon="8.95205145701766">
        <ele>295.60000610351562</ele>
        <time>2012-12-09T08:57:34Z</time>
      </trkpt>
      <trkpt lat="45.708964085206389" lon="8.952069897204638">
        <ele>295.60000610351562</ele>
        <time>2012-12-09T08:58:24Z</time>
      </trkpt>
      <trkpt lat="45.708958301693201" lon="8.95208272151649">
        <ele>295.60000610351562</ele>
        <time>2012-12-09T08:58:34Z</time>
      </trkpt>
      <trkpt lat="45.708952937275171" lon="8.952080458402634">
        <ele>295.39999389648437</ele>
        <time>2012-12-09T08:58:40Z</time>
      </trkpt>
      <trkpt lat="45.708957212045789" lon="8.95212035626173">
        <ele>295.60000610351562</ele>
        <time>2012-12-09T08:59:29Z</time>
      </trkpt>
      <trkpt lat="45.709040109068155" lon="8.952045924961567">
        <ele>296</ele>
        <time>2012-12-09T09:01:05Z</time>
      </trkpt>
      <trkpt lat="45.709058716893196" lon="8.952032011002302">
        <ele>296</ele>
        <time>2012-12-09T09:01:06Z</time>
      </trkpt>
      <trkpt lat="45.709135998040438" lon="8.951942743733525">
        <ele>296</ele>
        <time>2012-12-09T09:01:10Z</time>
      </trkpt>
      <trkpt lat="45.709279328584671" lon="8.951783403754234">
        <ele>296</ele>
        <time>2012-12-09T09:01:16Z</time>
      </trkpt>
      <trkpt lat="45.709462389349937" lon="8.951609982177615">
        <ele>296</ele>
        <time>2012-12-09T09:01:23Z</time>
      </trkpt>
      <trkpt lat="45.709709068760276" lon="8.951453743502498">
        <ele>296.20001220703125</ele>
        <time>2012-12-09T09:01:31Z</time>
      </trkpt>
      <trkpt lat="45.709893219172955" lon="8.951338157057762">
        <ele>296.20001220703125</ele>
        <time>2012-12-09T09:01:37Z</time>
      </trkpt>
      <trkpt lat="45.710124308243394" lon="8.951291721314192">
        <ele>296.20001220703125</ele>
        <time>2012-12-09T09:01:44Z</time>
      </trkpt>
      <trkpt lat="45.710368305444717" lon="8.951189713552594">
        <ele>296.20001220703125</ele>
        <time>2012-12-09T09:01:51Z</time>
      </trkpt>
      <trkpt lat="45.710631916299462" lon="8.951108073815703">
        <ele>296.20001220703125</ele>
        <time>2012-12-09T09:01:59Z</time>
      </trkpt>
      <trkpt lat="45.710804248228669" lon="8.951083598658443">
        <ele>296.39999389648438</ele>
        <time>2012-12-09T09:02:04Z</time>
      </trkpt>
      <trkpt lat="45.710967946797609" lon="8.951041270047426">
        <ele>296.79998779296875</ele>
        <time>2012-12-09T09:02:09Z</time>
      </trkpt>
      <trkpt lat="45.710992170497775" lon="8.951006317511201">
        <ele>296.79998779296875</ele>
        <time>2012-12-09T09:02:10Z</time>
      </trkpt>
      <trkpt lat="45.711024273186922" lon="8.950874302536249">
        <ele>296.39999389648438</ele>
        <time>2012-12-09T09:02:13Z</time>
      </trkpt>
      <trkpt lat="45.711073642596602" lon="8.950776401907206">
        <ele>297</ele>
        <time>2012-12-09T09:02:16Z</time>
      </trkpt>
      <trkpt lat="45.711084455251694" lon="8.950756033882499">
        <ele>297.20001220703125</ele>
        <time>2012-12-09T09:02:17Z</time>
      </trkpt>
      <trkpt lat="45.711092501878738" lon="8.95073214545846">
        <ele>297.39999389648437</ele>
        <time>2012-12-09T09:02:18Z</time>
      </trkpt>
      <trkpt lat="45.711080431938171" lon="8.950655283406377">
        <ele>298</ele>
        <time>2012-12-09T09:02:21Z</time>
      </trkpt>
      <trkpt lat="45.71109157986939" lon="8.950620498508215">
        <ele>298.39999389648437</ele>
        <time>2012-12-09T09:02:23Z</time>
      </trkpt>
      <trkpt lat="45.711128041148186" lon="8.950585294514895">
        <ele>298.79998779296875</ele>
        <time>2012-12-09T09:02:26Z</time>
      </trkpt>
      <trkpt lat="45.711214710026979" lon="8.950520921498537">
        <ele>299.39999389648438</ele>
        <time>2012-12-09T09:02:32Z</time>
      </trkpt>
      <trkpt lat="45.71129534393549" lon="8.950388990342617">
        <ele>300.39999389648437</ele>
        <time>2012-12-09T09:02:39Z</time>
      </trkpt>
      <trkpt lat="45.711325686424971" lon="8.950337944552302">
        <ele>300.60000610351562</ele>
        <time>2012-12-09T09:02:42Z</time>
      </trkpt>
      <trkpt lat="45.711333565413952" lon="8.95025622099638">
        <ele>301.20001220703125</ele>
        <time>2012-12-09T09:02:45Z</time>
      </trkpt>
      <trkpt lat="45.711340690031648" lon="8.950237445533276">
        <ele>301.39999389648437</ele>
        <time>2012-12-09T09:02:46Z</time>
      </trkpt>
      <trkpt lat="45.711368098855019" lon="8.950168378651142">
        <ele>301.79998779296875</ele>
        <time>2012-12-09T09:02:50Z</time>
      </trkpt>
      <trkpt lat="45.711345132440329" lon="8.950081374496222">
        <ele>302.39999389648438</ele>
        <time>2012-12-09T09:02:55Z</time>
      </trkpt>
      <trkpt lat="45.711309928447008" lon="8.950084559619427">
        <ele>302.60000610351562</ele>
        <time>2012-12-09T09:02:58Z</time>
      </trkpt>
      <trkpt lat="45.71130464784801" lon="8.950085481628776">
        <ele>302.60000610351562</ele>
        <time>2012-12-09T09:02:59Z</time>
      </trkpt>
      <trkpt lat="45.711299451068044" lon="8.950068466365337">
        <ele>302.79998779296875</ele>
        <time>2012-12-09T09:03:08Z</time>
      </trkpt>
      <trkpt lat="45.711249997839332" lon="8.950036698952317">
        <ele>303.20001220703125</ele>
        <time>2012-12-09T09:03:29Z</time>
      </trkpt>
      <trkpt lat="45.711208255961537" lon="8.949998645111918">
        <ele>303.60000610351562</ele>
        <time>2012-12-09T09:03:37Z</time>
      </trkpt>
      <trkpt lat="45.711158635094762" lon="8.949985401704907">
        <ele>303.79998779296875</ele>
        <time>2012-12-09T09:03:44Z</time>
      </trkpt>
      <trkpt lat="45.711090741679072" lon="8.94994986243546">
        <ele>304.39999389648437</ele>
        <time>2012-12-09T09:03:53Z</time>
      </trkpt>
      <trkpt lat="45.711030727252364" lon="8.949885070323944">
        <ele>305.20001220703125</ele>
        <time>2012-12-09T09:04:03Z</time>
      </trkpt>
      <trkpt lat="45.711012538522482" lon="8.949814578518271">
        <ele>306</ele>
        <time>2012-12-09T09:04:11Z</time>
      </trkpt>
      <trkpt lat="45.710957385599613" lon="8.949745930731297">
        <ele>306.79998779296875</ele>
        <time>2012-12-09T09:04:21Z</time>
      </trkpt>
      <trkpt lat="45.71088345721364" lon="8.949697148054838">
        <ele>307.60000610351562</ele>
        <time>2012-12-09T09:04:31Z</time>
      </trkpt>
      <trkpt lat="45.710833333432674" lon="8.949607377871871">
        <ele>308.60000610351562</ele>
        <time>2012-12-09T09:04:41Z</time>
      </trkpt>
      <trkpt lat="45.710800476372242" lon="8.949515428394079">
        <ele>309.39999389648437</ele>
        <time>2012-12-09T09:04:50Z</time>
      </trkpt>
      <trkpt lat="45.710805002599955" lon="8.949512746185064">
        <ele>309.39999389648437</ele>
        <time>2012-12-09T09:04:59Z</time>
      </trkpt>
      <trkpt lat="45.710782539099455" lon="8.949412666261196">
        <ele>310.39999389648437</ele>
        <time>2012-12-09T09:05:05Z</time>
      </trkpt>
      <trkpt lat="45.710729984566569" lon="8.949300600215793">
        <ele>311.39999389648437</ele>
        <time>2012-12-09T09:05:12Z</time>
      </trkpt>
      <trkpt lat="45.710721015930176" lon="8.94928677007556">
        <ele>311.39999389648437</ele>
        <time>2012-12-09T09:05:13Z</time>
      </trkpt>
      <trkpt lat="45.71067038923502" lon="8.949237819761038">
        <ele>311.79998779296875</ele>
        <time>2012-12-09T09:05:18Z</time>
      </trkpt>
      <trkpt lat="45.710622277110815" lon="8.94917780533433">
        <ele>312.20001220703125</ele>
        <time>2012-12-09T09:05:25Z</time>
      </trkpt>
      <trkpt lat="45.710613643750548" lon="8.949156766757369">
        <ele>312.39999389648437</ele>
        <time>2012-12-09T09:05:27Z</time>
      </trkpt>
      <trkpt lat="45.710607022047043" lon="8.94914360716939">
        <ele>312.39999389648437</ele>
        <time>2012-12-09T09:05:32Z</time>
      </trkpt>
      <trkpt lat="45.710600232705474" lon="8.949047382920981">
        <ele>312.79998779296875</ele>
        <time>2012-12-09T09:06:07Z</time>
      </trkpt>
      <trkpt lat="45.710735684260726" lon="8.948976472020149">
        <ele>313.60000610351562</ele>
        <time>2012-12-09T09:06:11Z</time>
      </trkpt>
      <trkpt lat="45.710933329537511" lon="8.948858790099621">
        <ele>314.60000610351562</ele>
        <time>2012-12-09T09:06:16Z</time>
      </trkpt>
      <trkpt lat="45.711089735850692" lon="8.948767762631178">
        <ele>315</ele>
        <time>2012-12-09T09:06:23Z</time>
      </trkpt>
      <trkpt lat="45.711231054738164" lon="8.94869945012033">
        <ele>315.60000610351562</ele>
        <time>2012-12-09T09:06:29Z</time>
      </trkpt>
      <trkpt lat="45.711552584543824" lon="8.948592161759734">
        <ele>317</ele>
        <time>2012-12-09T09:06:39Z</time>
      </trkpt>
      <trkpt lat="45.711757522076368" lon="8.948511779308319">
        <ele>318</ele>
        <time>2012-12-09T09:06:46Z</time>
      </trkpt>
      <trkpt lat="45.711982659995556" lon="8.948389319702983">
        <ele>319</ele>
        <time>2012-12-09T09:06:54Z</time>
      </trkpt>
      <trkpt lat="45.71222280152142" lon="8.948267782106996">
        <ele>319.39999389648438</ele>
        <time>2012-12-09T09:07:02Z</time>
      </trkpt>
      <trkpt lat="45.712498901411891" lon="8.948136102408171">
        <ele>319.79998779296875</ele>
        <time>2012-12-09T09:07:08Z</time>
      </trkpt>
      <trkpt lat="45.7125951256603" lon="8.94809159450233">
        <ele>320</ele>
        <time>2012-12-09T09:07:10Z</time>
      </trkpt>
      <trkpt lat="45.712757650762796" lon="8.948026299476624">
        <ele>320.20001220703125</ele>
        <time>2012-12-09T09:07:14Z</time>
      </trkpt>
      <trkpt lat="45.712912799790502" lon="8.947939379140735">
        <ele>320.60000610351562</ele>
        <time>2012-12-09T09:07:19Z</time>
      </trkpt>
      <trkpt lat="45.712985973805189" lon="8.947894116863608">
        <ele>321</ele>
        <time>2012-12-09T09:07:22Z</time>
      </trkpt>
      <trkpt lat="45.713008772581816" lon="8.947887914255261">
        <ele>321</ele>
        <time>2012-12-09T09:07:23Z</time>
      </trkpt>
      <trkpt lat="45.713113127276301" lon="8.947884393855929">
        <ele>320.79998779296875</ele>
        <time>2012-12-09T09:07:27Z</time>
      </trkpt>
      <trkpt lat="45.71332611143589" lon="8.947912305593491">
        <ele>320</ele>
        <time>2012-12-09T09:07:31Z</time>
      </trkpt>
      <trkpt lat="45.71356164291501" lon="8.947860170155764">
        <ele>320</ele>
        <time>2012-12-09T09:07:36Z</time>
      </trkpt>
      <trkpt lat="45.713636577129364" lon="8.94783703610301">
        <ele>320</ele>
        <time>2012-12-09T09:07:38Z</time>
      </trkpt>
      <trkpt lat="45.713790133595467" lon="8.947779703885317">
        <ele>320.39999389648437</ele>
        <time>2012-12-09T09:07:43Z</time>
      </trkpt>
      <trkpt lat="45.714004710316658" lon="8.947697225958109">
        <ele>321.20001220703125</ele>
        <time>2012-12-09T09:07:50Z</time>
      </trkpt>
      <trkpt lat="45.714180814102292" lon="8.947624806314707">
        <ele>322</ele>
        <time>2012-12-09T09:07:56Z</time>
      </trkpt>
      <trkpt lat="45.714339818805456" lon="8.947508046403527">
        <ele>323</ele>
        <time>2012-12-09T09:08:02Z</time>
      </trkpt>
      <trkpt lat="45.714497398585081" lon="8.947441074997187">
        <ele>323</ele>
        <time>2012-12-09T09:08:08Z</time>
      </trkpt>
      <trkpt lat="45.714668054133654" lon="8.947366895154119">
        <ele>323</ele>
        <time>2012-12-09T09:08:13Z</time>
      </trkpt>
      <trkpt lat="45.714867124333978" lon="8.947282992303371">
        <ele>323.39999389648437</ele>
        <time>2012-12-09T09:08:19Z</time>
      </trkpt>
      <trkpt lat="45.715003330260515" lon="8.947230186313391">
        <ele>323.79998779296875</ele>
        <time>2012-12-09T09:08:24Z</time>
      </trkpt>
      <trkpt lat="45.715144313871861" lon="8.947193389758468">
        <ele>324</ele>
        <time>2012-12-09T09:08:29Z</time>
      </trkpt>
      <trkpt lat="45.715308599174023" lon="8.947146283462644">
        <ele>324.20001220703125</ele>
        <time>2012-12-09T09:08:34Z</time>
      </trkpt>
      <trkpt lat="45.715469196438789" lon="8.947049388661981">
        <ele>325.20001220703125</ele>
        <time>2012-12-09T09:08:40Z</time>
      </trkpt>
      <trkpt lat="45.715582938864827" lon="8.947005299851298">
        <ele>325.60000610351562</ele>
        <time>2012-12-09T09:08:45Z</time>
      </trkpt>
      <trkpt lat="45.715704225003719" lon="8.946945536881685">
        <ele>326.20001220703125</ele>
        <time>2012-12-09T09:08:50Z</time>
      </trkpt>
      <trkpt lat="45.715922322124243" lon="8.946885941550136">
        <ele>326</ele>
        <time>2012-12-09T09:08:57Z</time>
      </trkpt>
      <trkpt lat="45.716101946309209" lon="8.946833051741123">
        <ele>325.39999389648437</ele>
        <time>2012-12-09T09:09:03Z</time>
      </trkpt>
      <trkpt lat="45.716262711212039" lon="8.946795668452978">
        <ele>324.60000610351562</ele>
        <time>2012-12-09T09:09:07Z</time>
      </trkpt>
      <trkpt lat="45.716493129730225" lon="8.946694834157825">
        <ele>324</ele>
        <time>2012-12-09T09:09:13Z</time>
      </trkpt>
      <trkpt lat="45.716676358133554" lon="8.946677148342133">
        <ele>322.79998779296875</ele>
        <time>2012-12-09T09:09:17Z</time>
      </trkpt>
      <trkpt lat="45.716712651774287" lon="8.94667312502861">
        <ele>323</ele>
        <time>2012-12-09T09:09:18Z</time>
      </trkpt>
      <trkpt lat="45.71688573807478" lon="8.946673208847642">
        <ele>323.60000610351562</ele>
        <time>2012-12-09T09:09:23Z</time>
      </trkpt>
      <trkpt lat="45.717051532119513" lon="8.946616379544139">
        <ele>324.79998779296875</ele>
        <time>2012-12-09T09:09:28Z</time>
      </trkpt>
      <trkpt lat="45.717244315892458" lon="8.946567513048649">
        <ele>326</ele>
        <time>2012-12-09T09:09:33Z</time>
      </trkpt>
      <trkpt lat="45.717469537630677" lon="8.946515880525112">
        <ele>327.39999389648437</ele>
        <time>2012-12-09T09:09:38Z</time>
      </trkpt>
      <trkpt lat="45.717625692486763" lon="8.946478329598904">
        <ele>327.39999389648437</ele>
        <time>2012-12-09T09:09:42Z</time>
      </trkpt>
      <trkpt lat="45.717683359980583" lon="8.946463325992227">
        <ele>327.39999389648437</ele>
        <time>2012-12-09T09:09:44Z</time>
      </trkpt>
      <trkpt lat="45.717848818749189" lon="8.946417979896069">
        <ele>327.39999389648437</ele>
        <time>2012-12-09T09:09:49Z</time>
      </trkpt>
      <trkpt lat="45.71802131831646" lon="8.946368778124452">
        <ele>327.20001220703125</ele>
        <time>2012-12-09T09:09:55Z</time>
      </trkpt>
      <trkpt lat="45.718174455687404" lon="8.946348829194903">
        <ele>327</ele>
        <time>2012-12-09T09:10:00Z</time>
      </trkpt>
      <trkpt lat="45.718222316354513" lon="8.946349751204252">
        <ele>326.79998779296875</ele>
        <time>2012-12-09T09:10:02Z</time>
      </trkpt>
      <trkpt lat="45.718291718512774" lon="8.94633206538856">
        <ele>326.60000610351562</ele>
        <time>2012-12-09T09:10:05Z</time>
      </trkpt>
      <trkpt lat="45.718321138992906" lon="8.946324270218611">
        <ele>326.60000610351562</ele>
        <time>2012-12-09T09:10:06Z</time>
      </trkpt>
      <trkpt lat="45.718440664932132" lon="8.946286635473371">
        <ele>327</ele>
        <time>2012-12-09T09:10:10Z</time>
      </trkpt>
      <trkpt lat="45.718481820076704" lon="8.946277499198914">
        <ele>327.20001220703125</ele>
        <time>2012-12-09T09:10:12Z</time>
      </trkpt>
      <trkpt lat="45.718537978827953" lon="8.946257214993238">
        <ele>327.39999389648437</ele>
        <time>2012-12-09T09:10:15Z</time>
      </trkpt>
      <trkpt lat="45.718560442328453" lon="8.946246653795242">
        <ele>327.60000610351562</ele>
        <time>2012-12-09T09:10:16Z</time>
      </trkpt>
      <trkpt lat="45.718683572486043" lon="8.946197703480721">
        <ele>328</ele>
        <time>2012-12-09T09:10:21Z</time>
      </trkpt>
      <trkpt lat="45.718806115910411" lon="8.946141628548503">
        <ele>328.60000610351562</ele>
        <time>2012-12-09T09:10:26Z</time>
      </trkpt>
      <trkpt lat="45.718891024589539" lon="8.946089660748839">
        <ele>329</ele>
        <time>2012-12-09T09:10:30Z</time>
      </trkpt>
      <trkpt lat="45.718913907185197" lon="8.946069879457355">
        <ele>329.20001220703125</ele>
        <time>2012-12-09T09:10:32Z</time>
      </trkpt>
      <trkpt lat="45.718932012096047" lon="8.946027550846338">
        <ele>329.60000610351562</ele>
        <time>2012-12-09T09:10:34Z</time>
      </trkpt>
      <trkpt lat="45.718937292695045" lon="8.94600952975452">
        <ele>329.79998779296875</ele>
        <time>2012-12-09T09:10:35Z</time>
      </trkpt>
      <trkpt lat="45.71894726715982" lon="8.945983042940497">
        <ele>330</ele>
        <time>2012-12-09T09:10:39Z</time>
      </trkpt>
      <trkpt lat="45.718937292695045" lon="8.945892518386245">
        <ele>330.60000610351562</ele>
        <time>2012-12-09T09:10:56Z</time>
      </trkpt>
      <trkpt lat="45.718922540545464" lon="8.945812974125147">
        <ele>331.39999389648437</ele>
        <time>2012-12-09T09:11:04Z</time>
      </trkpt>
      <trkpt lat="45.718894796445966" lon="8.945747762918472">
        <ele>331.79998779296875</ele>
        <time>2012-12-09T09:11:11Z</time>
      </trkpt>
      <trkpt lat="45.718865124508739" lon="8.945640977472067">
        <ele>332.39999389648437</ele>
        <time>2012-12-09T09:11:19Z</time>
      </trkpt>
      <trkpt lat="45.718863951042295" lon="8.945628069341183">
        <ele>332.39999389648437</ele>
        <time>2012-12-09T09:11:20Z</time>
      </trkpt>
      <trkpt lat="45.718854898586869" lon="8.945562271401286">
        <ele>332.79998779296875</ele>
        <time>2012-12-09T09:11:25Z</time>
      </trkpt>
      <trkpt lat="45.71885053999722" lon="8.94554927945137">
        <ele>333</ele>
        <time>2012-12-09T09:11:26Z</time>
      </trkpt>
      <trkpt lat="45.718830423429608" lon="8.945473255589604">
        <ele>333.39999389648438</ele>
        <time>2012-12-09T09:11:32Z</time>
      </trkpt>
      <trkpt lat="45.718811228871346" lon="8.945406870916486">
        <ele>333.79998779296875</ele>
        <time>2012-12-09T09:11:36Z</time>
      </trkpt>
      <trkpt lat="45.71880410425365" lon="8.945345180109143">
        <ele>334.20001220703125</ele>
        <time>2012-12-09T09:11:40Z</time>
      </trkpt>
      <trkpt lat="45.718770744279027" lon="8.94523948431015">
        <ele>335</ele>
        <time>2012-12-09T09:11:45Z</time>
      </trkpt>
      <trkpt lat="45.718762027099729" lon="8.94520721398294">
        <ele>335.20001220703125</ele>
        <time>2012-12-09T09:11:46Z</time>
      </trkpt>
      <trkpt lat="45.718704108148813" lon="8.945016944780946">
        <ele>336.39999389648438</ele>
        <time>2012-12-09T09:11:53Z</time>
      </trkpt>
      <trkpt lat="45.718647781759501" lon="8.944810582324863">
        <ele>335.39999389648437</ele>
        <time>2012-12-09T09:11:59Z</time>
      </trkpt>
      <trkpt lat="45.718668987974524" lon="8.944759033620358">
        <ele>335</ele>
        <time>2012-12-09T09:12:01Z</time>
      </trkpt>
      <trkpt lat="45.718703521415591" lon="8.944722572341561">
        <ele>334.60000610351562</ele>
        <time>2012-12-09T09:12:03Z</time>
      </trkpt>
      <trkpt lat="45.718797398731112" lon="8.944681501016021">
        <ele>334</ele>
        <time>2012-12-09T09:12:08Z</time>
      </trkpt>
      <trkpt lat="45.718956990167499" lon="8.944672783836722">
        <ele>333.39999389648438</ele>
        <time>2012-12-09T09:12:15Z</time>
      </trkpt>
      <trkpt lat="45.719081126153469" lon="8.944664904847741">
        <ele>333.20001220703125</ele>
        <time>2012-12-09T09:12:20Z</time>
      </trkpt>
      <trkpt lat="45.719253458082676" lon="8.944655684754252">
        <ele>333</ele>
        <time>2012-12-09T09:12:27Z</time>
      </trkpt>
      <trkpt lat="45.719358148053288" lon="8.944655600935221">
        <ele>333</ele>
        <time>2012-12-09T09:12:32Z</time>
      </trkpt>
      <trkpt lat="45.719485469162464" lon="8.94465358927846">
        <ele>333.20001220703125</ele>
        <time>2012-12-09T09:12:38Z</time>
      </trkpt>
      <trkpt lat="45.719614550471306" lon="8.944641854614019">
        <ele>333.20001220703125</ele>
        <time>2012-12-09T09:12:43Z</time>
      </trkpt>
      <trkpt lat="45.719719072803855" lon="8.944645207375288">
        <ele>333.20001220703125</ele>
        <time>2012-12-09T09:12:47Z</time>
      </trkpt>
      <trkpt lat="45.719778165221214" lon="8.944643028080463">
        <ele>333.20001220703125</ele>
        <time>2012-12-09T09:12:49Z</time>
      </trkpt>
      <trkpt lat="45.719998944550753" lon="8.944639675319195">
        <ele>333.39999389648438</ele>
        <time>2012-12-09T09:12:56Z</time>
      </trkpt>
      <trkpt lat="45.720196506008506" lon="8.944594077765942">
        <ele>333.60000610351562</ele>
        <time>2012-12-09T09:13:01Z</time>
      </trkpt>
      <trkpt lat="45.720394067466259" lon="8.944542529061437">
        <ele>333.79998779296875</ele>
        <time>2012-12-09T09:13:06Z</time>
      </trkpt>
      <trkpt lat="45.720612416043878" lon="8.944480335339904">
        <ele>333.79998779296875</ele>
        <time>2012-12-09T09:13:12Z</time>
      </trkpt>
      <trkpt lat="45.720840822905302" lon="8.944415124133229">
        <ele>334</ele>
        <time>2012-12-09T09:13:18Z</time>
      </trkpt>
      <trkpt lat="45.721045592799783" lon="8.944357959553599">
        <ele>334.60000610351562</ele>
        <time>2012-12-09T09:13:24Z</time>
      </trkpt>
      <trkpt lat="45.7212467584759" lon="8.944296939298511">
        <ele>335.39999389648437</ele>
        <time>2012-12-09T09:13:30Z</time>
      </trkpt>
      <trkpt lat="45.72151598520577" lon="8.944245306774974">
        <ele>336.79998779296875</ele>
        <time>2012-12-09T09:13:37Z</time>
      </trkpt>
      <trkpt lat="45.721710696816444" lon="8.944237595424056">
        <ele>338</ele>
        <time>2012-12-09T09:13:43Z</time>
      </trkpt>
      <trkpt lat="45.72192694991827" lon="8.944209767505527">
        <ele>338.79998779296875</ele>
        <time>2012-12-09T09:13:50Z</time>
      </trkpt>
      <trkpt lat="45.722108669579029" lon="8.94416400231421">
        <ele>339.39999389648438</ele>
        <time>2012-12-09T09:13:55Z</time>
      </trkpt>
      <trkpt lat="45.722330706194043" lon="8.944115806370974">
        <ele>340</ele>
        <time>2012-12-09T09:14:01Z</time>
      </trkpt>
      <trkpt lat="45.72252064011991" lon="8.944057133048773">
        <ele>340.39999389648437</ele>
        <time>2012-12-09T09:14:07Z</time>
      </trkpt>
      <trkpt lat="45.722702527418733" lon="8.944038106128573">
        <ele>340.79998779296875</ele>
        <time>2012-12-09T09:14:13Z</time>
      </trkpt>
      <trkpt lat="45.722935544326901" lon="8.944043889641762">
        <ele>341.20001220703125</ele>
        <time>2012-12-09T09:14:18Z</time>
      </trkpt>
      <trkpt lat="45.723092118278146" lon="8.943977085873485">
        <ele>341.20001220703125</ele>
        <time>2012-12-09T09:14:23Z</time>
      </trkpt>
      <trkpt lat="45.723327230662107" lon="8.943900726735592">
        <ele>341.20001220703125</ele>
        <time>2012-12-09T09:14:29Z</time>
      </trkpt>
      <trkpt lat="45.723568210378289" lon="8.943834425881505">
        <ele>342</ele>
        <time>2012-12-09T09:14:35Z</time>
      </trkpt>
      <trkpt lat="45.723605677485466" lon="8.94381464459002">
        <ele>342.20001220703125</ele>
        <time>2012-12-09T09:14:36Z</time>
      </trkpt>
      <trkpt lat="45.723829725757241" lon="8.94370324909687">
        <ele>342.39999389648437</ele>
        <time>2012-12-09T09:14:41Z</time>
      </trkpt>
      <trkpt lat="45.724120661616325" lon="8.943585567176342">
        <ele>342.79998779296875</ele>
        <time>2012-12-09T09:14:48Z</time>
      </trkpt>
      <trkpt lat="45.724164834246039" lon="8.943569222465158">
        <ele>342.79998779296875</ele>
        <time>2012-12-09T09:14:49Z</time>
      </trkpt>
      <trkpt lat="45.724321659654379" lon="8.943562684580684">
        <ele>343.79998779296875</ele>
        <time>2012-12-09T09:14:53Z</time>
      </trkpt>
      <trkpt lat="45.72440086863935" lon="8.943549273535609">
        <ele>344.20001220703125</ele>
        <time>2012-12-09T09:14:55Z</time>
      </trkpt>
      <trkpt lat="45.724499607458711" lon="8.943540891632438">
        <ele>344.60000610351562</ele>
        <time>2012-12-09T09:14:58Z</time>
      </trkpt>
      <trkpt lat="45.724748969078064" lon="8.943490432575345">
        <ele>345.79998779296875</ele>
        <time>2012-12-09T09:15:05Z</time>
      </trkpt>
      <trkpt lat="45.724965808913112" lon="8.943413067609072">
        <ele>347</ele>
        <time>2012-12-09T09:15:11Z</time>
      </trkpt>
      <trkpt lat="45.725289266556501" lon="8.943308042362332">
        <ele>348.39999389648437</ele>
        <time>2012-12-09T09:15:20Z</time>
      </trkpt>
      <trkpt lat="45.725560337305069" lon="8.943223301321268">
        <ele>349.39999389648437</ele>
        <time>2012-12-09T09:15:28Z</time>
      </trkpt>
      <trkpt lat="45.725798131898046" lon="8.943214332684875">
        <ele>350.79998779296875</ele>
        <time>2012-12-09T09:15:34Z</time>
      </trkpt>
      <trkpt lat="45.726079596206546" lon="8.943173345178366">
        <ele>351.20001220703125</ele>
        <time>2012-12-09T09:15:42Z</time>
      </trkpt>
      <trkpt lat="45.726239187642932" lon="8.943252973258495">
        <ele>352</ele>
        <time>2012-12-09T09:15:47Z</time>
      </trkpt>
      <trkpt lat="45.726391822099686" lon="8.943306198343635">
        <ele>352.39999389648437</ele>
        <time>2012-12-09T09:15:52Z</time>
      </trkpt>
      <trkpt lat="45.726574044674635" lon="8.94334064796567">
        <ele>352.79998779296875</ele>
        <time>2012-12-09T09:15:58Z</time>
      </trkpt>
      <trkpt lat="45.726743107661605" lon="8.943274850025773">
        <ele>353</ele>
        <time>2012-12-09T09:16:03Z</time>
      </trkpt>
      <trkpt lat="45.726903453469276" lon="8.943164125084877">
        <ele>353</ele>
        <time>2012-12-09T09:16:08Z</time>
      </trkpt>
      <trkpt lat="45.727083245292306" lon="8.943084413185716">
        <ele>353.39999389648438</ele>
        <time>2012-12-09T09:16:13Z</time>
      </trkpt>
      <trkpt lat="45.72724862024188" lon="8.94294242374599">
        <ele>353.39999389648438</ele>
        <time>2012-12-09T09:16:17Z</time>
      </trkpt>
      <trkpt lat="45.727295391261578" lon="8.942904202267528">
        <ele>353.39999389648438</ele>
        <time>2012-12-09T09:16:18Z</time>
      </trkpt>
      <trkpt lat="45.727450372651219" lon="8.942867992445827">
        <ele>354</ele>
        <time>2012-12-09T09:16:21Z</time>
      </trkpt>
      <trkpt lat="45.727606192231178" lon="8.942931527271867">
        <ele>354.79998779296875</ele>
        <time>2012-12-09T09:16:24Z</time>
      </trkpt>
      <trkpt lat="45.727835018187761" lon="8.942926833406091">
        <ele>355.20001220703125</ele>
        <time>2012-12-09T09:16:28Z</time>
      </trkpt>
      <trkpt lat="45.728109357878566" lon="8.942911326885223">
        <ele>355.79998779296875</ele>
        <time>2012-12-09T09:16:33Z</time>
      </trkpt>
      <trkpt lat="45.72816576808691" lon="8.942898167297244">
        <ele>356</ele>
        <time>2012-12-09T09:16:34Z</time>
      </trkpt>
      <trkpt lat="45.728340279310942" lon="8.942881235852838">
        <ele>356.20001220703125</ele>
        <time>2012-12-09T09:16:37Z</time>
      </trkpt>
      <trkpt lat="45.728557454422116" lon="8.942843433469534">
        <ele>356.79998779296875</ele>
        <time>2012-12-09T09:16:41Z</time>
      </trkpt>
      <trkpt lat="45.728680584579706" lon="8.942784005776048">
        <ele>356.79998779296875</ele>
        <time>2012-12-09T09:16:43Z</time>
      </trkpt>
      <trkpt lat="45.728736240416765" lon="8.94275919534266">
        <ele>357</ele>
        <time>2012-12-09T09:16:44Z</time>
      </trkpt>
      <trkpt lat="45.728929778560996" lon="8.942703204229474">
        <ele>357.39999389648437</ele>
        <time>2012-12-09T09:16:47Z</time>
      </trkpt>
      <trkpt lat="45.72902868501842" lon="8.942647213116288">
        <ele>357.60000610351562</ele>
        <time>2012-12-09T09:16:49Z</time>
      </trkpt>
      <trkpt lat="45.729086603969336" lon="8.942601028829813">
        <ele>357.79998779296875</ele>
        <time>2012-12-09T09:16:50Z</time>
      </trkpt>
      <trkpt lat="45.72913957759738" lon="8.942559957504273">
        <ele>357.79998779296875</ele>
        <time>2012-12-09T09:16:51Z</time>
      </trkpt>
      <trkpt lat="45.729228844866157" lon="8.942473959177733">
        <ele>358.20001220703125</ele>
        <time>2012-12-09T09:16:53Z</time>
      </trkpt>
      <trkpt lat="45.729296486824751" lon="8.942333981394768">
        <ele>358.39999389648437</ele>
        <time>2012-12-09T09:16:56Z</time>
      </trkpt>
      <trkpt lat="45.729296905919909" lon="8.942268434911966">
        <ele>358.20001220703125</ele>
        <time>2012-12-09T09:16:57Z</time>
      </trkpt>
      <trkpt lat="45.729296235367656" lon="8.942128708586097">
        <ele>358</ele>
        <time>2012-12-09T09:16:59Z</time>
      </trkpt>
      <trkpt lat="45.729319117963314" lon="8.941935002803803">
        <ele>358</ele>
        <time>2012-12-09T09:17:02Z</time>
      </trkpt>
      <trkpt lat="45.729343006387353" lon="8.941814890131354">
        <ele>358</ele>
        <time>2012-12-09T09:17:04Z</time>
      </trkpt>
      <trkpt lat="45.729345520958304" lon="8.94173895008862">
        <ele>357.79998779296875</ele>
        <time>2012-12-09T09:17:05Z</time>
      </trkpt>
      <trkpt lat="45.729389861226082" lon="8.941538538783789">
        <ele>357.60000610351562</ele>
        <time>2012-12-09T09:17:08Z</time>
      </trkpt>
      <trkpt lat="45.729411067441106" lon="8.941484475508332">
        <ele>357.60000610351562</ele>
        <time>2012-12-09T09:17:09Z</time>
      </trkpt>
      <trkpt lat="45.729441829025745" lon="8.941377690061927">
        <ele>357.39999389648437</ele>
        <time>2012-12-09T09:17:11Z</time>
      </trkpt>
      <trkpt lat="45.729456162080169" lon="8.941220110282302">
        <ele>357</ele>
        <time>2012-12-09T09:17:14Z</time>
      </trkpt>
      <trkpt lat="45.729436548426747" lon="8.941051047295332">
        <ele>356.39999389648438</ele>
        <time>2012-12-09T09:17:16Z</time>
      </trkpt>
      <trkpt lat="45.729434872046113" lon="8.940810151398182">
        <ele>355.79998779296875</ele>
        <time>2012-12-09T09:17:19Z</time>
      </trkpt>
      <trkpt lat="45.72945767082274" lon="8.940536146983504">
        <ele>355.79998779296875</ele>
        <time>2012-12-09T09:17:22Z</time>
      </trkpt>
      <trkpt lat="45.729498323053122" lon="8.940381333231926">
        <ele>355.79998779296875</ele>
        <time>2012-12-09T09:17:24Z</time>
      </trkpt>
      <trkpt lat="45.729559259489179" lon="8.940052427351475">
        <ele>355.79998779296875</ele>
        <time>2012-12-09T09:17:28Z</time>
      </trkpt>
      <trkpt lat="45.729588009417057" lon="8.939976487308741">
        <ele>355.79998779296875</ele>
        <time>2012-12-09T09:17:29Z</time>
      </trkpt>
      <trkpt lat="45.729727568104863" lon="8.939981181174517">
        <ele>356.20001220703125</ele>
        <time>2012-12-09T09:17:31Z</time>
      </trkpt>
      <trkpt lat="45.729993106797338" lon="8.939928794279695">
        <ele>356.79998779296875</ele>
        <time>2012-12-09T09:17:35Z</time>
      </trkpt>
      <trkpt lat="45.730045409873128" lon="8.939904654398561">
        <ele>356.79998779296875</ele>
        <time>2012-12-09T09:17:36Z</time>
      </trkpt>
      <trkpt lat="45.730319833382964" lon="8.93979761749506">
        <ele>358</ele>
        <time>2012-12-09T09:17:41Z</time>
      </trkpt>
      <trkpt lat="45.730370543897152" lon="8.939790325239301">
        <ele>358.20001220703125</ele>
        <time>2012-12-09T09:17:42Z</time>
      </trkpt>
      <trkpt lat="45.730538684874773" lon="8.939720755442977">
        <ele>359</ele>
        <time>2012-12-09T09:17:45Z</time>
      </trkpt>
      <trkpt lat="45.730585288256407" lon="8.939681695774198">
        <ele>359.20001220703125</ele>
        <time>2012-12-09T09:17:46Z</time>
      </trkpt>
      <trkpt lat="45.730665670707822" lon="8.939601313322783">
        <ele>359.60000610351562</ele>
        <time>2012-12-09T09:17:48Z</time>
      </trkpt>
      <trkpt lat="45.73076625354588" lon="8.939518835395575">
        <ele>360</ele>
        <time>2012-12-09T09:17:50Z</time>
      </trkpt>
      <trkpt lat="45.730849569663405" lon="8.93941406160593">
        <ele>360.20001220703125</ele>
        <time>2012-12-09T09:17:52Z</time>
      </trkpt>
      <trkpt lat="45.730902710929513" lon="8.939311215654016">
        <ele>360</ele>
        <time>2012-12-09T09:17:54Z</time>
      </trkpt>
      <trkpt lat="45.730958785861731" lon="8.939217673614621">
        <ele>359.79998779296875</ele>
        <time>2012-12-09T09:17:56Z</time>
      </trkpt>
      <trkpt lat="45.731019806116819" lon="8.93911499530077">
        <ele>359.39999389648437</ele>
        <time>2012-12-09T09:17:58Z</time>
      </trkpt>
      <trkpt lat="45.731041850522161" lon="8.939061351120472">
        <ele>359.20001220703125</ele>
        <time>2012-12-09T09:17:59Z</time>
      </trkpt>
      <trkpt lat="45.731061799451709" lon="8.939012484624982">
        <ele>359</ele>
        <time>2012-12-09T09:18:00Z</time>
      </trkpt>
      <trkpt lat="45.731136314570904" lon="8.938889019191265">
        <ele>358.20001220703125</ele>
        <time>2012-12-09T09:18:03Z</time>
      </trkpt>
      <trkpt lat="45.731189288198948" lon="8.938809558749199">
        <ele>357.60000610351562</ele>
        <time>2012-12-09T09:18:05Z</time>
      </trkpt>
      <trkpt lat="45.731296576559544" lon="8.938707718625665">
        <ele>356.79998779296875</ele>
        <time>2012-12-09T09:18:08Z</time>
      </trkpt>
      <trkpt lat="45.731357345357537" lon="8.938578134402633">
        <ele>355.79998779296875</ele>
        <time>2012-12-09T09:18:11Z</time>
      </trkpt>
      <trkpt lat="45.731392884626985" lon="8.938490878790617">
        <ele>355.20001220703125</ele>
        <time>2012-12-09T09:18:13Z</time>
      </trkpt>
      <trkpt lat="45.731375450268388" lon="8.938390798866749">
        <ele>354.60000610351562</ele>
        <time>2012-12-09T09:18:15Z</time>
      </trkpt>
      <trkpt lat="45.731322141364217" lon="8.938274793326855">
        <ele>354.39999389648437</ele>
        <time>2012-12-09T09:18:17Z</time>
      </trkpt>
      <trkpt lat="45.73124217800796" lon="8.938075555488467">
        <ele>354.39999389648437</ele>
        <time>2012-12-09T09:18:20Z</time>
      </trkpt>
      <trkpt lat="45.731093483045697" lon="8.937732903286815">
        <ele>354.79998779296875</ele>
        <time>2012-12-09T09:18:26Z</time>
      </trkpt>
      <trkpt lat="45.730920983478427" lon="8.937330823391676">
        <ele>355.60000610351562</ele>
        <time>2012-12-09T09:18:33Z</time>
      </trkpt>
      <trkpt lat="45.730867506936193" lon="8.937234431505203">
        <ele>356</ele>
        <time>2012-12-09T09:18:35Z</time>
      </trkpt>
      <trkpt lat="45.730778239667416" lon="8.937032092362642">
        <ele>356.60000610351562</ele>
        <time>2012-12-09T09:18:39Z</time>
      </trkpt>
      <trkpt lat="45.730707077309489" lon="8.936872752383351">
        <ele>357</ele>
        <time>2012-12-09T09:18:42Z</time>
      </trkpt>
      <trkpt lat="45.73065091855824" lon="8.936776276677847">
        <ele>357.20001220703125</ele>
        <time>2012-12-09T09:18:44Z</time>
      </trkpt>
      <trkpt lat="45.730472384020686" lon="8.936429349705577">
        <ele>358</ele>
        <time>2012-12-09T09:18:50Z</time>
      </trkpt>
      <trkpt lat="45.730288820341229" lon="8.936084266752005">
        <ele>359.39999389648437</ele>
        <time>2012-12-09T09:18:57Z</time>
      </trkpt>
      <trkpt lat="45.730252861976624" lon="8.936009248718619">
        <ele>359.79998779296875</ele>
        <time>2012-12-09T09:18:59Z</time>
      </trkpt>
      <trkpt lat="45.730190332978964" lon="8.935920903459191">
        <ele>360.39999389648437</ele>
        <time>2012-12-09T09:19:01Z</time>
      </trkpt>
      <trkpt lat="45.730059910565615" lon="8.935705740004778">
        <ele>361.79998779296875</ele>
        <time>2012-12-09T09:19:06Z</time>
      </trkpt>
      <trkpt lat="45.729927476495504" lon="8.935479177162051">
        <ele>362.60000610351562</ele>
        <time>2012-12-09T09:19:11Z</time>
      </trkpt>
      <trkpt lat="45.729901073500514" lon="8.93540826626122">
        <ele>362.79998779296875</ele>
        <time>2012-12-09T09:19:12Z</time>
      </trkpt>
      <trkpt lat="45.729853799566627" lon="8.935234677046537">
        <ele>363</ele>
        <time>2012-12-09T09:19:15Z</time>
      </trkpt>
      <trkpt lat="45.729840556159616" lon="8.935176087543368">
        <ele>363.20001220703125</ele>
        <time>2012-12-09T09:19:16Z</time>
      </trkpt>
      <trkpt lat="45.729816751554608" lon="8.935082210227847">
        <ele>363.39999389648437</ele>
        <time>2012-12-09T09:19:18Z</time>
      </trkpt>
      <trkpt lat="45.729777775704861" lon="8.934969808906317">
        <ele>363.39999389648437</ele>
        <time>2012-12-09T09:19:20Z</time>
      </trkpt>
      <trkpt lat="45.729716923087835" lon="8.9347979798913">
        <ele>363.20001220703125</ele>
        <time>2012-12-09T09:19:23Z</time>
      </trkpt>
      <trkpt lat="45.729668140411377" lon="8.934659007936716">
        <ele>363.20001220703125</ele>
        <time>2012-12-09T09:19:25Z</time>
      </trkpt>
      <trkpt lat="45.729644168168306" lon="8.934606872498989">
        <ele>363</ele>
        <time>2012-12-09T09:19:26Z</time>
      </trkpt>
      <trkpt lat="45.729590691626072" lon="8.934434372931719">
        <ele>363</ele>
        <time>2012-12-09T09:19:29Z</time>
      </trkpt>
      <trkpt lat="45.729490360245109" lon="8.934095660224557">
        <ele>362.79998779296875</ele>
        <time>2012-12-09T09:19:35Z</time>
      </trkpt>
      <trkpt lat="45.729379719123244" lon="8.933720402419567">
        <ele>363</ele>
        <time>2012-12-09T09:19:41Z</time>
      </trkpt>
      <trkpt lat="45.729289026930928" lon="8.933466263115406">
        <ele>363</ele>
        <time>2012-12-09T09:19:45Z</time>
      </trkpt>
      <trkpt lat="45.72925684042275" lon="8.933403566479683">
        <ele>363</ele>
        <time>2012-12-09T09:19:46Z</time>
      </trkpt>
      <trkpt lat="45.729037653654814" lon="8.933039959520102">
        <ele>362.20001220703125</ele>
        <time>2012-12-09T09:19:52Z</time>
      </trkpt>
      <trkpt lat="45.728907315060496" lon="8.932871818542481">
        <ele>361.79998779296875</ele>
        <time>2012-12-09T09:19:55Z</time>
      </trkpt>
      <trkpt lat="45.728825088590384" lon="8.932741396129131">
        <ele>361.60000610351562</ele>
        <time>2012-12-09T09:19:57Z</time>
      </trkpt>
      <trkpt lat="45.728649152442813" lon="8.93246378749609">
        <ele>361.20001220703125</ele>
        <time>2012-12-09T09:20:02Z</time>
      </trkpt>
      <trkpt lat="45.728352349251509" lon="8.932064305990934">
        <ele>361.39999389648437</ele>
        <time>2012-12-09T09:20:10Z</time>
      </trkpt>
      <trkpt lat="45.728238942101598" lon="8.931923657655716">
        <ele>361.79998779296875</ele>
        <time>2012-12-09T09:20:14Z</time>
      </trkpt>
      <trkpt lat="45.728120589628816" lon="8.931772448122501">
        <ele>362</ele>
        <time>2012-12-09T09:20:19Z</time>
      </trkpt>
      <trkpt lat="45.727972397580743" lon="8.931577149778605">
        <ele>362.20001220703125</ele>
        <time>2012-12-09T09:20:25Z</time>
      </trkpt>
      <trkpt lat="45.727855805307627" lon="8.931400123983622">
        <ele>362.20001220703125</ele>
        <time>2012-12-09T09:20:30Z</time>
      </trkpt>
      <trkpt lat="45.727716330438852" lon="8.931177835911512">
        <ele>362.20001220703125</ele>
        <time>2012-12-09T09:20:35Z</time>
      </trkpt>
      <trkpt lat="45.72761993855238" lon="8.931073900312185">
        <ele>362.20001220703125</ele>
        <time>2012-12-09T09:20:37Z</time>
      </trkpt>
      <trkpt lat="45.727450121194124" lon="8.93098371103406">
        <ele>362</ele>
        <time>2012-12-09T09:20:40Z</time>
      </trkpt>
      <trkpt lat="45.727332942187786" lon="8.930972730740905">
        <ele>361.39999389648437</ele>
        <time>2012-12-09T09:20:42Z</time>
      </trkpt>
      <trkpt lat="45.727213667705655" lon="8.930978933349252">
        <ele>361.20001220703125</ele>
        <time>2012-12-09T09:20:44Z</time>
      </trkpt>
      <trkpt lat="45.726845618337393" lon="8.930998211726546">
        <ele>359.79998779296875</ele>
        <time>2012-12-09T09:20:50Z</time>
      </trkpt>
      <trkpt lat="45.726480251178145" lon="8.93101648427546">
        <ele>358.39999389648437</ele>
        <time>2012-12-09T09:20:56Z</time>
      </trkpt>
      <trkpt lat="45.726069118827581" lon="8.930999552831054">
        <ele>356.39999389648438</ele>
        <time>2012-12-09T09:21:03Z</time>
      </trkpt>
      <trkpt lat="45.725762508809566" lon="8.930976083502173">
        <ele>355</ele>
        <time>2012-12-09T09:21:08Z</time>
      </trkpt>
      <trkpt lat="45.725643234327435" lon="8.930924953892827">
        <ele>354.60000610351562</ele>
        <time>2012-12-09T09:21:10Z</time>
      </trkpt>
      <trkpt lat="45.725510213524103" lon="8.930784137919545">
        <ele>354.20001220703125</ele>
        <time>2012-12-09T09:21:12Z</time>
      </trkpt>
      <trkpt lat="45.725380042567849" lon="8.930658409371972">
        <ele>354.20001220703125</ele>
        <time>2012-12-09T09:21:14Z</time>
      </trkpt>
      <trkpt lat="45.725212655961514" lon="8.930509798228741">
        <ele>354.20001220703125</ele>
        <time>2012-12-09T09:21:17Z</time>
      </trkpt>
      <trkpt lat="45.725158089771867" lon="8.930464284494519">
        <ele>354.20001220703125</ele>
        <time>2012-12-09T09:21:18Z</time>
      </trkpt>
      <trkpt lat="45.724950134754181" lon="8.930283654481173">
        <ele>354.20001220703125</ele>
        <time>2012-12-09T09:21:22Z</time>
      </trkpt>
      <trkpt lat="45.724864723160863" lon="8.93017603084445">
        <ele>354.39999389648437</ele>
        <time>2012-12-09T09:21:24Z</time>
      </trkpt>
      <trkpt lat="45.724805044010282" lon="8.930061366409063">
        <ele>354.60000610351562</ele>
        <time>2012-12-09T09:21:26Z</time>
      </trkpt>
      <trkpt lat="45.724773947149515" lon="8.929990790784359">
        <ele>354.60000610351562</ele>
        <time>2012-12-09T09:21:27Z</time>
      </trkpt>
      <trkpt lat="45.724679147824645" lon="8.929793229326606">
        <ele>354.79998779296875</ele>
        <time>2012-12-09T09:21:30Z</time>
      </trkpt>
      <trkpt lat="45.724656181409955" lon="8.929731538519263">
        <ele>355</ele>
        <time>2012-12-09T09:21:31Z</time>
      </trkpt>
      <trkpt lat="45.724530117586255" lon="8.929440183565021">
        <ele>355.39999389648437</ele>
        <time>2012-12-09T09:21:35Z</time>
      </trkpt>
      <trkpt lat="45.724491393193603" lon="8.929367093369365">
        <ele>355.60000610351562</ele>
        <time>2012-12-09T09:21:36Z</time>
      </trkpt>
      <trkpt lat="45.724420482292771" lon="8.929199790582061">
        <ele>355.79998779296875</ele>
        <time>2012-12-09T09:21:38Z</time>
      </trkpt>
      <trkpt lat="45.724342782050371" lon="8.928997032344341">
        <ele>355.79998779296875</ele>
        <time>2012-12-09T09:21:40Z</time>
      </trkpt>
      <trkpt lat="45.724112866446376" lon="8.928443910554051">
        <ele>354.79998779296875</ele>
        <time>2012-12-09T09:21:46Z</time>
      </trkpt>
      <trkpt lat="45.723925782367587" lon="8.928041327744722">
        <ele>353.60000610351562</ele>
        <time>2012-12-09T09:21:51Z</time>
      </trkpt>
      <trkpt lat="45.723759904503822" lon="8.927712002769113">
        <ele>353.20001220703125</ele>
        <time>2012-12-09T09:21:55Z</time>
      </trkpt>
      <trkpt lat="45.723502580076456" lon="8.927282178774476">
        <ele>353.20001220703125</ele>
        <time>2012-12-09T09:22:01Z</time>
      </trkpt>
      <trkpt lat="45.723401326686144" lon="8.927157120779157">
        <ele>353</ele>
        <time>2012-12-09T09:22:03Z</time>
      </trkpt>
      <trkpt lat="45.723301414400339" lon="8.927048072218895">
        <ele>352.79998779296875</ele>
        <time>2012-12-09T09:22:05Z</time>
      </trkpt>
      <trkpt lat="45.722979800775647" lon="8.92668966203928">
        <ele>352.39999389648437</ele>
        <time>2012-12-09T09:22:11Z</time>
      </trkpt>
      <trkpt lat="45.72287636809051" lon="8.926560832187533">
        <ele>351.60000610351562</ele>
        <time>2012-12-09T09:22:13Z</time>
      </trkpt>
      <trkpt lat="45.722776623442769" lon="8.926396546885371">
        <ele>350.20001220703125</ele>
        <time>2012-12-09T09:22:15Z</time>
      </trkpt>
      <trkpt lat="45.722568416967988" lon="8.926039561629295">
        <ele>348</ele>
        <time>2012-12-09T09:22:19Z</time>
      </trkpt>
      <trkpt lat="45.722516365349293" lon="8.925940152257681">
        <ele>347.60000610351562</ele>
        <time>2012-12-09T09:22:20Z</time>
      </trkpt>
      <trkpt lat="45.722362976521254" lon="8.925634548068047">
        <ele>345.20001220703125</ele>
        <time>2012-12-09T09:22:23Z</time>
      </trkpt>
      <trkpt lat="45.722229033708572" lon="8.925435896962881">
        <ele>343.79998779296875</ele>
        <time>2012-12-09T09:22:25Z</time>
      </trkpt>
      <trkpt lat="45.722168516367674" lon="8.92534151673317">
        <ele>343</ele>
        <time>2012-12-09T09:22:26Z</time>
      </trkpt>
      <trkpt lat="45.72202074341476" lon="8.925023507326841">
        <ele>340.39999389648437</ele>
        <time>2012-12-09T09:22:29Z</time>
      </trkpt>
      <trkpt lat="45.721787307411432" lon="8.924826784059405">
        <ele>339.20001220703125</ele>
        <time>2012-12-09T09:22:32Z</time>
      </trkpt>
      <trkpt lat="45.721414564177394" lon="8.924760231748223">
        <ele>338</ele>
        <time>2012-12-09T09:22:36Z</time>
      </trkpt>
      <trkpt lat="45.721009969711304" lon="8.92474539577961">
        <ele>336.20001220703125</ele>
        <time>2012-12-09T09:22:40Z</time>
      </trkpt>
      <trkpt lat="45.720634376630187" lon="8.924715640023351">
        <ele>335.39999389648437</ele>
        <time>2012-12-09T09:22:44Z</time>
      </trkpt>
      <trkpt lat="45.720552150160074" lon="8.924672892317176">
        <ele>335</ele>
        <time>2012-12-09T09:22:45Z</time>
      </trkpt>
      <trkpt lat="45.720348553732038" lon="8.924394864588976">
        <ele>332</ele>
        <time>2012-12-09T09:22:48Z</time>
      </trkpt>
      <trkpt lat="45.720236068591475" lon="8.924047350883484">
        <ele>328.20001220703125</ele>
        <time>2012-12-09T09:22:52Z</time>
      </trkpt>
      <trkpt lat="45.72031301446259" lon="8.92380285076797">
        <ele>326.20001220703125</ele>
        <time>2012-12-09T09:22:55Z</time>
      </trkpt>
      <trkpt lat="45.720507893711329" lon="8.923675445839763">
        <ele>325.39999389648437</ele>
        <time>2012-12-09T09:22:58Z</time>
      </trkpt>
      <trkpt lat="45.720656421035528" lon="8.923619790002704">
        <ele>325</ele>
        <time>2012-12-09T09:23:00Z</time>
      </trkpt>
      <trkpt lat="45.720811067149043" lon="8.923550639301539">
        <ele>324.60000610351562</ele>
        <time>2012-12-09T09:23:02Z</time>
      </trkpt>
      <trkpt lat="45.720886923372746" lon="8.923496659845114">
        <ele>324.39999389648437</ele>
        <time>2012-12-09T09:23:03Z</time>
      </trkpt>
      <trkpt lat="45.721186241135001" lon="8.923291051760316">
        <ele>323.79998779296875</ele>
        <time>2012-12-09T09:23:07Z</time>
      </trkpt>
      <trkpt lat="45.72154188528657" lon="8.923126263543963">
        <ele>325</ele>
        <time>2012-12-09T09:23:12Z</time>
      </trkpt>
      <trkpt lat="45.721607515588403" lon="8.923112014308572">
        <ele>325.20001220703125</ele>
        <time>2012-12-09T09:23:13Z</time>
      </trkpt>
      <trkpt lat="45.721856206655502" lon="8.923067841678858">
        <ele>326</ele>
        <time>2012-12-09T09:23:17Z</time>
      </trkpt>
      <trkpt lat="45.722113447263837" lon="8.92304202541709">
        <ele>326.79998779296875</ele>
        <time>2012-12-09T09:23:21Z</time>
      </trkpt>
      <trkpt lat="45.722231296822429" lon="8.923043115064502">
        <ele>327</ele>
        <time>2012-12-09T09:23:23Z</time>
      </trkpt>
      <trkpt lat="45.722568584606051" lon="8.923066332936287">
        <ele>327.39999389648437</ele>
        <time>2012-12-09T09:23:29Z</time>
      </trkpt>
      <trkpt lat="45.722719207406044" lon="8.923068093135953">
        <ele>327.39999389648437</ele>
        <time>2012-12-09T09:23:33Z</time>
      </trkpt>
      <trkpt lat="45.722759356722236" lon="8.923069182783365">
        <ele>327.39999389648437</ele>
        <time>2012-12-09T09:23:34Z</time>
      </trkpt>
      <trkpt lat="45.722848288714886" lon="8.92306842841208">
        <ele>327.39999389648437</ele>
        <time>2012-12-09T09:23:37Z</time>
      </trkpt>
      <trkpt lat="45.722938142716885" lon="8.923064405098558">
        <ele>327.39999389648437</ele>
        <time>2012-12-09T09:23:40Z</time>
      </trkpt>
      <trkpt lat="45.723116090521216" lon="8.923052838072181">
        <ele>327.60000610351562</ele>
        <time>2012-12-09T09:23:45Z</time>
      </trkpt>
      <trkpt lat="45.723346676677465" lon="8.922998188063502">
        <ele>328.39999389648437</ele>
        <time>2012-12-09T09:23:52Z</time>
      </trkpt>
      <trkpt lat="45.723598385229707" lon="8.92288276925683">
        <ele>330.20001220703125</ele>
        <time>2012-12-09T09:24:00Z</time>
      </trkpt>
      <trkpt lat="45.723820002749562" lon="8.922732397913933">
        <ele>332.39999389648437</ele>
        <time>2012-12-09T09:24:08Z</time>
      </trkpt>
      <trkpt lat="45.724027873948216" lon="8.922558976337314">
        <ele>335</ele>
        <time>2012-12-09T09:24:16Z</time>
      </trkpt>
      <trkpt lat="45.724181681871414" lon="8.922434337437153">
        <ele>337</ele>
        <time>2012-12-09T09:24:22Z</time>
      </trkpt>
      <trkpt lat="45.724338674917817" lon="8.922318248078227">
        <ele>338.60000610351562</ele>
        <time>2012-12-09T09:24:28Z</time>
      </trkpt>
      <trkpt lat="45.72441796772182" lon="8.922293521463871">
        <ele>338.79998779296875</ele>
        <time>2012-12-09T09:24:33Z</time>
      </trkpt>
      <trkpt lat="45.724472450092435" lon="8.92228664830327">
        <ele>338.79998779296875</ele>
        <time>2012-12-09T09:24:37Z</time>
      </trkpt>
      <trkpt lat="45.724500361829996" lon="8.922280445694923">
        <ele>339</ele>
        <time>2012-12-09T09:24:39Z</time>
      </trkpt>
      <trkpt lat="45.724602034315467" lon="8.922248426824808">
        <ele>339.39999389648438</ele>
        <time>2012-12-09T09:24:45Z</time>
      </trkpt>
      <trkpt lat="45.724677639082074" lon="8.922229902818799">
        <ele>339.60000610351562</ele>
        <time>2012-12-09T09:24:49Z</time>
      </trkpt>
      <trkpt lat="45.724732121452689" lon="8.922211546450853">
        <ele>339.79998779296875</ele>
        <time>2012-12-09T09:24:52Z</time>
      </trkpt>
      <trkpt lat="45.724848713725805" lon="8.922152118757367">
        <ele>340.60000610351562</ele>
        <time>2012-12-09T09:24:59Z</time>
      </trkpt>
      <trkpt lat="45.724876374006271" lon="8.92214491032064">
        <ele>340.60000610351562</ele>
        <time>2012-12-09T09:25:01Z</time>
      </trkpt>
      <trkpt lat="45.724923480302095" lon="8.922132086008787">
        <ele>340.79998779296875</ele>
        <time>2012-12-09T09:25:04Z</time>
      </trkpt>
      <trkpt lat="45.725053902715445" lon="8.92209461890161">
        <ele>341</ele>
        <time>2012-12-09T09:25:10Z</time>
      </trkpt>
      <trkpt lat="45.725121712312102" lon="8.922072658315301">
        <ele>340.79998779296875</ele>
        <time>2012-12-09T09:25:13Z</time>
      </trkpt>
      <trkpt lat="45.725155575200915" lon="8.922062767669559">
        <ele>340.79998779296875</ele>
        <time>2012-12-09T09:25:15Z</time>
      </trkpt>
      <trkpt lat="45.72522321715951" lon="8.922023288905621">
        <ele>341</ele>
        <time>2012-12-09T09:25:18Z</time>
      </trkpt>
      <trkpt lat="45.72527744807303" lon="8.921975512057543">
        <ele>341.39999389648437</ele>
        <time>2012-12-09T09:25:21Z</time>
      </trkpt>
      <trkpt lat="45.72538792155683" lon="8.921845173463225">
        <ele>342.39999389648437</ele>
        <time>2012-12-09T09:25:27Z</time>
      </trkpt>
      <trkpt lat="45.725428322330117" lon="8.921680301427841">
        <ele>344.20001220703125</ele>
        <time>2012-12-09T09:25:33Z</time>
      </trkpt>
      <trkpt lat="45.725417425855994" lon="8.92152389511466">
        <ele>346</ele>
        <time>2012-12-09T09:25:39Z</time>
      </trkpt>
      <trkpt lat="45.725345173850656" lon="8.921411409974098">
        <ele>347.60000610351562</ele>
        <time>2012-12-09T09:25:44Z</time>
      </trkpt>
      <trkpt lat="45.725233610719442" lon="8.921298002824187">
        <ele>349.39999389648437</ele>
        <time>2012-12-09T09:25:51Z</time>
      </trkpt>
      <trkpt lat="45.725114168599248" lon="8.921209909021854">
        <ele>350.60000610351562</ele>
        <time>2012-12-09T09:25:58Z</time>
      </trkpt>
      <trkpt lat="45.724972179159522" lon="8.92110463231802">
        <ele>351.79998779296875</ele>
        <time>2012-12-09T09:26:06Z</time>
      </trkpt>
      <trkpt lat="45.724864387884736" lon="8.921001702547073">
        <ele>352.39999389648437</ele>
        <time>2012-12-09T09:26:13Z</time>
      </trkpt>
      <trkpt lat="45.724751399829984" lon="8.920903634279966">
        <ele>352.60000610351562</ele>
        <time>2012-12-09T09:26:20Z</time>
      </trkpt>
      <trkpt lat="45.724652241915464" lon="8.920768937096">
        <ele>352.20001220703125</ele>
        <time>2012-12-09T09:26:26Z</time>
      </trkpt>
      <trkpt lat="45.724577307701111" lon="8.920635497197509">
        <ele>351.39999389648437</ele>
        <time>2012-12-09T09:26:31Z</time>
      </trkpt>
      <trkpt lat="45.724487202242017" lon="8.920477330684662">
        <ele>350.20001220703125</ele>
        <time>2012-12-09T09:26:37Z</time>
      </trkpt>
      <trkpt lat="45.724354181438684" lon="8.920282032340765">
        <ele>349.20001220703125</ele>
        <time>2012-12-09T09:26:45Z</time>
      </trkpt>
      <trkpt lat="45.724222250282764" lon="8.920093858614564">
        <ele>348.20001220703125</ele>
        <time>2012-12-09T09:26:52Z</time>
      </trkpt>
      <trkpt lat="45.724058803170919" lon="8.919818010181189">
        <ele>347.79998779296875</ele>
        <time>2012-12-09T09:26:59Z</time>
      </trkpt>
      <trkpt lat="45.723897451534867" lon="8.919521374627948">
        <ele>348</ele>
        <time>2012-12-09T09:27:04Z</time>
      </trkpt>
      <trkpt lat="45.723710032179952" lon="8.919200683012605">
        <ele>348.60000610351562</ele>
        <time>2012-12-09T09:27:09Z</time>
      </trkpt>
      <trkpt lat="45.723657142370939" lon="8.918935311958194">
        <ele>347.20001220703125</ele>
        <time>2012-12-09T09:27:13Z</time>
      </trkpt>
      <trkpt lat="45.723655046895146" lon="8.918887535110116">
        <ele>346.79998779296875</ele>
        <time>2012-12-09T09:27:14Z</time>
      </trkpt>
      <trkpt lat="45.723659573122859" lon="8.918781252577901">
        <ele>346.20001220703125</ele>
        <time>2012-12-09T09:27:17Z</time>
      </trkpt>
      <trkpt lat="45.723657729104161" lon="8.918754095211625">
        <ele>346</ele>
        <time>2012-12-09T09:27:19Z</time>
      </trkpt>
      <trkpt lat="45.723658734932542" lon="8.918754598125815">
        <ele>346</ele>
        <time>2012-12-09T09:27:21Z</time>
      </trkpt>
      <trkpt lat="45.723663009703159" lon="8.918778654187918">
        <ele>346</ele>
        <time>2012-12-09T09:28:26Z</time>
      </trkpt>
      <trkpt lat="45.723650017753243" lon="8.9187675062567">
        <ele>346</ele>
        <time>2012-12-09T09:28:31Z</time>
      </trkpt>
      <trkpt lat="45.723610958084464" lon="8.91865611076355">
        <ele>345.20001220703125</ele>
        <time>2012-12-09T09:28:36Z</time>
      </trkpt>
      <trkpt lat="45.723524708300829" lon="8.918467098847032">
        <ele>343.60000610351562</ele>
        <time>2012-12-09T09:28:42Z</time>
      </trkpt>
      <trkpt lat="45.723504172638059" lon="8.918256880715489">
        <ele>342.39999389648437</ele>
        <time>2012-12-09T09:28:48Z</time>
      </trkpt>
      <trkpt lat="45.723565611988306" lon="8.918053368106484">
        <ele>342.20001220703125</ele>
        <time>2012-12-09T09:28:54Z</time>
      </trkpt>
      <trkpt lat="45.723649766296148" lon="8.917861506342888">
        <ele>342.20001220703125</ele>
        <time>2012-12-09T09:29:00Z</time>
      </trkpt>
      <trkpt lat="45.723688155412674" lon="8.917663190513849">
        <ele>342.20001220703125</ele>
        <time>2012-12-09T09:29:06Z</time>
      </trkpt>
      <trkpt lat="45.723678767681122" lon="8.917455654591322">
        <ele>342</ele>
        <time>2012-12-09T09:29:12Z</time>
      </trkpt>
      <trkpt lat="45.723618837073445" lon="8.917180225253105">
        <ele>342.79998779296875</ele>
        <time>2012-12-09T09:29:19Z</time>
      </trkpt>
      <trkpt lat="45.723485061898828" lon="8.916910579428077">
        <ele>342.60000610351562</ele>
        <time>2012-12-09T09:29:27Z</time>
      </trkpt>
      <trkpt lat="45.723440051078796" lon="8.916819216683507">
        <ele>342.39999389648437</ele>
        <time>2012-12-09T09:29:32Z</time>
      </trkpt>
      <trkpt lat="45.723431082442403" lon="8.916797256097198">
        <ele>342.39999389648437</ele>
        <time>2012-12-09T09:29:45Z</time>
      </trkpt>
      <trkpt lat="45.723466034978628" lon="8.91679834574461">
        <ele>342.79998779296875</ele>
        <time>2012-12-09T09:32:36Z</time>
      </trkpt>
      <trkpt lat="45.723483134061098" lon="8.916786778718233">
        <ele>343</ele>
        <time>2012-12-09T09:32:37Z</time>
      </trkpt>
      <trkpt lat="45.723509956151247" lon="8.916774960234761">
        <ele>343.39999389648437</ele>
        <time>2012-12-09T09:32:41Z</time>
      </trkpt>
      <trkpt lat="45.723598301410675" lon="8.916772278025746">
        <ele>344.39999389648437</ele>
        <time>2012-12-09T09:32:47Z</time>
      </trkpt>
      <trkpt lat="45.723757389932871" lon="8.916788874194026">
        <ele>345.79998779296875</ele>
        <time>2012-12-09T09:32:53Z</time>
      </trkpt>
      <trkpt lat="45.723957298323512" lon="8.91680764965713">
        <ele>347.79998779296875</ele>
        <time>2012-12-09T09:32:59Z</time>
      </trkpt>
      <trkpt lat="45.724301962181926" lon="8.916834555566311">
        <ele>350.39999389648438</ele>
        <time>2012-12-09T09:33:08Z</time>
      </trkpt>
      <trkpt lat="45.724608823657036" lon="8.916862886399031">
        <ele>351.60000610351562</ele>
        <time>2012-12-09T09:33:16Z</time>
      </trkpt>
      <trkpt lat="45.724927838891745" lon="8.916892893612385">
        <ele>352.79998779296875</ele>
        <time>2012-12-09T09:33:24Z</time>
      </trkpt>
      <trkpt lat="45.725170830264688" lon="8.916914016008377">
        <ele>353.20001220703125</ele>
        <time>2012-12-09T09:33:29Z</time>
      </trkpt>
      <trkpt lat="45.725476937368512" lon="8.916946537792683">
        <ele>353.20001220703125</ele>
        <time>2012-12-09T09:33:36Z</time>
      </trkpt>
      <trkpt lat="45.725796539336443" lon="8.916956763714552">
        <ele>353.20001220703125</ele>
        <time>2012-12-09T09:33:43Z</time>
      </trkpt>
      <trkpt lat="45.725923860445619" lon="8.916984759271145">
        <ele>353.39999389648438</ele>
        <time>2012-12-09T09:33:46Z</time>
      </trkpt>
      <trkpt lat="45.726058473810554" lon="8.917003199458122">
        <ele>353.39999389648438</ele>
        <time>2012-12-09T09:33:49Z</time>
      </trkpt>
      <trkpt lat="45.726104993373156" lon="8.917014515027404">
        <ele>353.39999389648438</ele>
        <time>2012-12-09T09:33:50Z</time>
      </trkpt>
      <trkpt lat="45.726367011666298" lon="8.917125491425395">
        <ele>353.79998779296875</ele>
        <time>2012-12-09T09:33:56Z</time>
      </trkpt>
      <trkpt lat="45.726489303633571" lon="8.917190115898848">
        <ele>354.39999389648437</ele>
        <time>2012-12-09T09:33:59Z</time>
      </trkpt>
      <trkpt lat="45.726558873429894" lon="8.917256752029061">
        <ele>354.79998779296875</ele>
        <time>2012-12-09T09:34:01Z</time>
      </trkpt>
      <trkpt lat="45.72670966386795" lon="8.917404692620039">
        <ele>356</ele>
        <time>2012-12-09T09:34:05Z</time>
      </trkpt>
      <trkpt lat="45.726737240329385" lon="8.91744333319366">
        <ele>356.20001220703125</ele>
        <time>2012-12-09T09:34:06Z</time>
      </trkpt>
      <trkpt lat="45.726834135130048" lon="8.917642319574952">
        <ele>356.60000610351562</ele>
        <time>2012-12-09T09:34:10Z</time>
      </trkpt>
      <trkpt lat="45.726881325244904" lon="8.917751368135214">
        <ele>356.60000610351562</ele>
        <time>2012-12-09T09:34:12Z</time>
      </trkpt>
      <trkpt lat="45.726978303864598" lon="8.918129727244377">
        <ele>356.79998779296875</ele>
        <time>2012-12-09T09:34:18Z</time>
      </trkpt>
      <trkpt lat="45.726989954710007" lon="8.918187394738197">
        <ele>356.79998779296875</ele>
        <time>2012-12-09T09:34:19Z</time>
      </trkpt>
      <trkpt lat="45.727017112076283" lon="8.918246403336525">
        <ele>356.79998779296875</ele>
        <time>2012-12-09T09:34:20Z</time>
      </trkpt>
      <trkpt lat="45.727127753198147" lon="8.918405659496784">
        <ele>357</ele>
        <time>2012-12-09T09:34:23Z</time>
      </trkpt>
      <trkpt lat="45.727155832573771" lon="8.918455364182591">
        <ele>357</ele>
        <time>2012-12-09T09:34:24Z</time>
      </trkpt>
      <trkpt lat="45.727192964404821" lon="8.918492160737515">
        <ele>357</ele>
        <time>2012-12-09T09:34:25Z</time>
      </trkpt>
      <trkpt lat="45.727355321869254" lon="8.918620403856039">
        <ele>357.20001220703125</ele>
        <time>2012-12-09T09:34:29Z</time>
      </trkpt>
      <trkpt lat="45.727438386529684" lon="8.918679412454367">
        <ele>357.20001220703125</ele>
        <time>2012-12-09T09:34:31Z</time>
      </trkpt>
      <trkpt lat="45.727577609941363" lon="8.918759124353528">
        <ele>357.39999389648437</ele>
        <time>2012-12-09T09:34:34Z</time>
      </trkpt>
      <trkpt lat="45.727619519457221" lon="8.918785024434328">
        <ele>357.39999389648437</ele>
        <time>2012-12-09T09:34:35Z</time>
      </trkpt>
      <trkpt lat="45.727933589369059" lon="8.918957943096757">
        <ele>357.39999389648437</ele>
        <time>2012-12-09T09:34:42Z</time>
      </trkpt>
      <trkpt lat="45.728300297632813" lon="8.919174950569868">
        <ele>357.79998779296875</ele>
        <time>2012-12-09T09:34:50Z</time>
      </trkpt>
      <trkpt lat="45.728483609855175" lon="8.919284334406257">
        <ele>357</ele>
        <time>2012-12-09T09:34:54Z</time>
      </trkpt>
      <trkpt lat="45.728561645373702" lon="8.919330853968859">
        <ele>356.60000610351562</ele>
        <time>2012-12-09T09:34:56Z</time>
      </trkpt>
      <trkpt lat="45.72865778580308" lon="8.919369829818606">
        <ele>356.20001220703125</ele>
        <time>2012-12-09T09:34:58Z</time>
      </trkpt>
      <trkpt lat="45.728857107460499" lon="8.919412828981876">
        <ele>355.39999389648437</ele>
        <time>2012-12-09T09:35:02Z</time>
      </trkpt>
      <trkpt lat="45.728907398879528" lon="8.919419115409255">
        <ele>355.39999389648437</ele>
        <time>2012-12-09T09:35:03Z</time>
      </trkpt>
      <trkpt lat="45.729210656136274" lon="8.91942179761827">
        <ele>354.60000610351562</ele>
        <time>2012-12-09T09:35:09Z</time>
      </trkpt>
      <trkpt lat="45.729707451537251" lon="8.919398998841643">
        <ele>354.39999389648437</ele>
        <time>2012-12-09T09:35:19Z</time>
      </trkpt>
      <trkpt lat="45.730164013803005" lon="8.919355245307088">
        <ele>355</ele>
        <time>2012-12-09T09:35:28Z</time>
      </trkpt>
      <trkpt lat="45.730556873604655" lon="8.919328507035971">
        <ele>356.20001220703125</ele>
        <time>2012-12-09T09:35:36Z</time>
      </trkpt>
      <trkpt lat="45.730850826948881" lon="8.919360442087054">
        <ele>356.79998779296875</ele>
        <time>2012-12-09T09:35:42Z</time>
      </trkpt>
      <trkpt lat="45.731219127774239" lon="8.919503856450319">
        <ele>358.39999389648437</ele>
        <time>2012-12-09T09:35:50Z</time>
      </trkpt>
      <trkpt lat="45.731259780004621" lon="8.919523805379868">
        <ele>358.60000610351562</ele>
        <time>2012-12-09T09:35:51Z</time>
      </trkpt>
      <trkpt lat="45.731553733348846" lon="8.919666465371847">
        <ele>360.39999389648437</ele>
        <time>2012-12-09T09:35:58Z</time>
      </trkpt>
      <trkpt lat="45.731619028374553" lon="8.919701501727104">
        <ele>360.79998779296875</ele>
        <time>2012-12-09T09:36:00Z</time>
      </trkpt>
      <trkpt lat="45.731717264279723" lon="8.919722205027938">
        <ele>361</ele>
        <time>2012-12-09T09:36:03Z</time>
      </trkpt>
      <trkpt lat="45.731857577338815" lon="8.919649366289377">
        <ele>360.79998779296875</ele>
        <time>2012-12-09T09:36:07Z</time>
      </trkpt>
      <trkpt lat="45.731888674199581" lon="8.919614497572184">
        <ele>360.79998779296875</ele>
        <time>2012-12-09T09:36:08Z</time>
      </trkpt>
      <trkpt lat="45.732024712488055" lon="8.919421546161175">
        <ele>361</ele>
        <time>2012-12-09T09:36:12Z</time>
      </trkpt>
      <trkpt lat="45.732054049149156" lon="8.919363543391228">
        <ele>361.20001220703125</ele>
        <time>2012-12-09T09:36:13Z</time>
      </trkpt>
      <trkpt lat="45.732157817110419" lon="8.919217111542821">
        <ele>361.60000610351562</ele>
        <time>2012-12-09T09:36:16Z</time>
      </trkpt>
      <trkpt lat="45.732205677777529" lon="8.919128933921456">
        <ele>362</ele>
        <time>2012-12-09T09:36:18Z</time>
      </trkpt>
      <trkpt lat="45.73221892118454" lon="8.919080067425966">
        <ele>362.20001220703125</ele>
        <time>2012-12-09T09:36:19Z</time>
      </trkpt>
      <trkpt lat="45.732240127399564" lon="8.918970935046673">
        <ele>362.39999389648437</ele>
        <time>2012-12-09T09:36:21Z</time>
      </trkpt>
      <trkpt lat="45.732257394120097" lon="8.918878482654691">
        <ele>362.60000610351562</ele>
        <time>2012-12-09T09:36:23Z</time>
      </trkpt>
      <trkpt lat="45.732271559536457" lon="8.918796423822641">
        <ele>363</ele>
        <time>2012-12-09T09:36:25Z</time>
      </trkpt>
      <trkpt lat="45.732284551486373" lon="8.918573381379247">
        <ele>363.60000610351562</ele>
        <time>2012-12-09T09:36:29Z</time>
      </trkpt>
      <trkpt lat="45.732258064672351" lon="8.918263670057058">
        <ele>363.39999389648437</ele>
        <time>2012-12-09T09:36:33Z</time>
      </trkpt>
      <trkpt lat="45.732275834307075" lon="8.918147077783942">
        <ele>362.20001220703125</ele>
        <time>2012-12-09T09:36:35Z</time>
      </trkpt>
      <trkpt lat="45.732322772964835" lon="8.917964268475771">
        <ele>360.39999389648437</ele>
        <time>2012-12-09T09:36:38Z</time>
      </trkpt>
      <trkpt lat="45.732374237850308" lon="8.917856141924858">
        <ele>359.60000610351562</ele>
        <time>2012-12-09T09:36:40Z</time>
      </trkpt>
      <trkpt lat="45.732400473207235" lon="8.917811214923859">
        <ele>359.20001220703125</ele>
        <time>2012-12-09T09:36:41Z</time>
      </trkpt>
      <trkpt lat="45.732473144307733" lon="8.917736280709505">
        <ele>358.60000610351562</ele>
        <time>2012-12-09T09:36:43Z</time>
      </trkpt>
      <trkpt lat="45.7325404509902" lon="8.917667800560594">
        <ele>357.60000610351562</ele>
        <time>2012-12-09T09:36:45Z</time>
      </trkpt>
      <trkpt lat="45.732575906440616" lon="8.917636033147574">
        <ele>357</ele>
        <time>2012-12-09T09:36:46Z</time>
      </trkpt>
      <trkpt lat="45.73268118314445" lon="8.91753176227212">
        <ele>355</ele>
        <time>2012-12-09T09:36:49Z</time>
      </trkpt>
      <trkpt lat="45.732771959155798" lon="8.91741986386478">
        <ele>352.60000610351562</ele>
        <time>2012-12-09T09:36:52Z</time>
      </trkpt>
      <trkpt lat="45.732854688540101" lon="8.917322717607021">
        <ele>350.60000610351562</ele>
        <time>2012-12-09T09:36:55Z</time>
      </trkpt>
      <trkpt lat="45.732888635247946" lon="8.917288351804018">
        <ele>350</ele>
        <time>2012-12-09T09:36:56Z</time>
      </trkpt>
      <trkpt lat="45.732922833412886" lon="8.917244262993336">
        <ele>349</ele>
        <time>2012-12-09T09:36:57Z</time>
      </trkpt>
      <trkpt lat="45.733018387109041" lon="8.917089449241757">
        <ele>346.20001220703125</ele>
        <time>2012-12-09T09:37:01Z</time>
      </trkpt>
      <trkpt lat="45.733136655762792" lon="8.916938826441765">
        <ele>343.39999389648437</ele>
        <time>2012-12-09T09:37:06Z</time>
      </trkpt>
      <trkpt lat="45.733231790363789" lon="8.916880823671818">
        <ele>342.20001220703125</ele>
        <time>2012-12-09T09:37:10Z</time>
      </trkpt>
      <trkpt lat="45.733330529183149" lon="8.916799267753959">
        <ele>340.60000610351562</ele>
        <time>2012-12-09T09:37:15Z</time>
      </trkpt>
      <trkpt lat="45.733424490317702" lon="8.916659960523248">
        <ele>338</ele>
        <time>2012-12-09T09:37:36Z</time>
      </trkpt>
      <trkpt lat="45.733452150598168" lon="8.916529202833772">
        <ele>336.20001220703125</ele>
        <time>2012-12-09T09:37:41Z</time>
      </trkpt>
      <trkpt lat="45.733472434803843" lon="8.916454268619418">
        <ele>335.39999389648437</ele>
        <time>2012-12-09T09:37:44Z</time>
      </trkpt>
      <trkpt lat="45.733511913567781" lon="8.916385788470507">
        <ele>334.39999389648437</ele>
        <time>2012-12-09T09:37:47Z</time>
      </trkpt>
      <trkpt lat="45.733591709285975" lon="8.91616802662611">
        <ele>332</ele>
        <time>2012-12-09T09:37:54Z</time>
      </trkpt>
      <trkpt lat="45.733614172786474" lon="8.91593492589891">
        <ele>329.79998779296875</ele>
        <time>2012-12-09T09:37:58Z</time>
      </trkpt>
      <trkpt lat="45.733583997935057" lon="8.915809197351337">
        <ele>328.79998779296875</ele>
        <time>2012-12-09T09:38:01Z</time>
      </trkpt>
      <trkpt lat="45.733538903295994" lon="8.915778687223792">
        <ele>328.79998779296875</ele>
        <time>2012-12-09T09:38:02Z</time>
      </trkpt>
      <trkpt lat="45.733411498367786" lon="8.9156798645854">
        <ele>328.20001220703125</ele>
        <time>2012-12-09T09:38:06Z</time>
      </trkpt>
      <trkpt lat="45.733386017382145" lon="8.91564373858273">
        <ele>328</ele>
        <time>2012-12-09T09:38:08Z</time>
      </trkpt>
      <trkpt lat="45.733374701812863" lon="8.915616748854518">
        <ele>328</ele>
        <time>2012-12-09T09:38:10Z</time>
      </trkpt>
      <trkpt lat="45.733400015160441" lon="8.915567882359028">
        <ele>327.79998779296875</ele>
        <time>2012-12-09T09:38:14Z</time>
      </trkpt>
      <trkpt lat="45.733354333788157" lon="8.915464114397764">
        <ele>327.20001220703125</ele>
        <time>2012-12-09T09:38:20Z</time>
      </trkpt>
      <trkpt lat="45.733316112309694" lon="8.915342576801777">
        <ele>326.60000610351562</ele>
        <time>2012-12-09T09:38:45Z</time>
      </trkpt>
      <trkpt lat="45.733353747054935" lon="8.915269402787089">
        <ele>326.20001220703125</ele>
        <time>2012-12-09T09:38:48Z</time>
      </trkpt>
      <trkpt lat="45.733406888321042" lon="8.915132861584425">
        <ele>326</ele>
        <time>2012-12-09T09:38:51Z</time>
      </trkpt>
      <trkpt lat="45.733422562479973" lon="8.915073350071907">
        <ele>325.79998779296875</ele>
        <time>2012-12-09T09:38:52Z</time>
      </trkpt>
      <trkpt lat="45.73340630158782" lon="8.914883499965072">
        <ele>326.60000610351562</ele>
        <time>2012-12-09T09:38:56Z</time>
      </trkpt>
      <trkpt lat="45.73327973484993" lon="8.914660541340709">
        <ele>328</ele>
        <time>2012-12-09T09:39:01Z</time>
      </trkpt>
      <trkpt lat="45.733163477852941" lon="8.914393913000822">
        <ele>329.79998779296875</ele>
        <time>2012-12-09T09:39:07Z</time>
      </trkpt>
      <trkpt lat="45.733077647164464" lon="8.914190568029881">
        <ele>330.60000610351562</ele>
        <time>2012-12-09T09:39:12Z</time>
      </trkpt>
      <trkpt lat="45.732987793162465" lon="8.913995940238237">
        <ele>330.60000610351562</ele>
        <time>2012-12-09T09:39:17Z</time>
      </trkpt>
      <trkpt lat="45.73290984146297" lon="8.913747416809201">
        <ele>330.60000610351562</ele>
        <time>2012-12-09T09:39:23Z</time>
      </trkpt>
      <trkpt lat="45.732856532558799" lon="8.913538288325071">
        <ele>330.79998779296875</ele>
        <time>2012-12-09T09:39:28Z</time>
      </trkpt>
      <trkpt lat="45.732777575030923" lon="8.913297140970826">
        <ele>330.60000610351562</ele>
        <time>2012-12-09T09:39:34Z</time>
      </trkpt>
      <trkpt lat="45.732690151780844" lon="8.912985669448972">
        <ele>329.60000610351562</ele>
        <time>2012-12-09T09:39:41Z</time>
      </trkpt>
      <trkpt lat="45.732659306377172" lon="8.912686603143811">
        <ele>329.20001220703125</ele>
        <time>2012-12-09T09:39:47Z</time>
      </trkpt>
      <trkpt lat="45.73271588422358" lon="8.912652656435967">
        <ele>329.60000610351562</ele>
        <time>2012-12-09T09:39:50Z</time>
      </trkpt>
      <trkpt lat="45.732751926407218" lon="8.912663133814931">
        <ele>329.79998779296875</ele>
        <time>2012-12-09T09:39:51Z</time>
      </trkpt>
      <trkpt lat="45.732953930273652" lon="8.91267235390842">
        <ele>331.39999389648437</ele>
        <time>2012-12-09T09:39:57Z</time>
      </trkpt>
      <trkpt lat="45.733159119263291" lon="8.912680735811591">
        <ele>333</ele>
        <time>2012-12-09T09:40:03Z</time>
      </trkpt>
      <trkpt lat="45.733313681557775" lon="8.912655506283045">
        <ele>334.20001220703125</ele>
        <time>2012-12-09T09:40:08Z</time>
      </trkpt>
      <trkpt lat="45.733450558036566" lon="8.912682663649321">
        <ele>334.79998779296875</ele>
        <time>2012-12-09T09:40:12Z</time>
      </trkpt>
      <trkpt lat="45.733637390658259" lon="8.912631534039974">
        <ele>335.39999389648437</ele>
        <time>2012-12-09T09:40:17Z</time>
      </trkpt>
      <trkpt lat="45.733712324872613" lon="8.912613093852997">
        <ele>335.79998779296875</ele>
        <time>2012-12-09T09:40:19Z</time>
      </trkpt>
      <trkpt lat="45.733774770051241" lon="8.912645950913429">
        <ele>336</ele>
        <time>2012-12-09T09:40:21Z</time>
      </trkpt>
      <trkpt lat="45.733841322362423" lon="8.912797579541802">
        <ele>336.20001220703125</ele>
        <time>2012-12-09T09:40:25Z</time>
      </trkpt>
      <trkpt lat="45.733931846916676" lon="8.912987094372511">
        <ele>336.20001220703125</ele>
        <time>2012-12-09T09:40:30Z</time>
      </trkpt>
      <trkpt lat="45.734066125005484" lon="8.913074769079685">
        <ele>336.39999389648438</ele>
        <time>2012-12-09T09:40:35Z</time>
      </trkpt>
      <trkpt lat="45.734262512996793" lon="8.913174429908395">
        <ele>336.60000610351562</ele>
        <time>2012-12-09T09:40:42Z</time>
      </trkpt>
      <trkpt lat="45.734474826604128" lon="8.913199407979846">
        <ele>337</ele>
        <time>2012-12-09T09:40:49Z</time>
      </trkpt>
      <trkpt lat="45.734673729166389" lon="8.913204185664654">
        <ele>337.39999389648437</ele>
        <time>2012-12-09T09:40:55Z</time>
      </trkpt>
      <trkpt lat="45.734878666698933" lon="8.913224805146456">
        <ele>337.79998779296875</ele>
        <time>2012-12-09T09:41:01Z</time>
      </trkpt>
      <trkpt lat="45.735008334740996" lon="8.913280041888356">
        <ele>337.60000610351562</ele>
        <time>2012-12-09T09:41:05Z</time>
      </trkpt>
      <trkpt lat="45.735214445739985" lon="8.91333150677383">
        <ele>338</ele>
        <time>2012-12-09T09:41:11Z</time>
      </trkpt>
      <trkpt lat="45.735446456819773" lon="8.913378110155463">
        <ele>339.39999389648438</ele>
        <time>2012-12-09T09:41:18Z</time>
      </trkpt>
      <trkpt lat="45.735619459301233" lon="8.913398897275329">
        <ele>340.39999389648437</ele>
        <time>2012-12-09T09:41:23Z</time>
      </trkpt>
      <trkpt lat="45.735815092921257" lon="8.913391269743443">
        <ele>341.20001220703125</ele>
        <time>2012-12-09T09:41:29Z</time>
      </trkpt>
      <trkpt lat="45.736026568338275" lon="8.913370734080672">
        <ele>343.39999389648437</ele>
        <time>2012-12-09T09:41:35Z</time>
      </trkpt>
      <trkpt lat="45.736125474795699" lon="8.913436448201537">
        <ele>344.60000610351562</ele>
        <time>2012-12-09T09:41:39Z</time>
      </trkpt>
      <trkpt lat="45.7362359482795" lon="8.913662759587169">
        <ele>345.39999389648437</ele>
        <time>2012-12-09T09:41:45Z</time>
      </trkpt>
      <trkpt lat="45.7363326754421" lon="8.913769545033574">
        <ele>345.79998779296875</ele>
        <time>2012-12-09T09:41:50Z</time>
      </trkpt>
      <trkpt lat="45.736406603828073" lon="8.913927627727389">
        <ele>345.39999389648437</ele>
        <time>2012-12-09T09:41:55Z</time>
      </trkpt>
      <trkpt lat="45.736470306292176" lon="8.914038520306349">
        <ele>345</ele>
        <time>2012-12-09T09:41:59Z</time>
      </trkpt>
      <trkpt lat="45.736624952405691" lon="8.914135415107012">
        <ele>344.20001220703125</ele>
        <time>2012-12-09T09:42:05Z</time>
      </trkpt>
      <trkpt lat="45.736771887168288" lon="8.91410356387496">
        <ele>344.39999389648437</ele>
        <time>2012-12-09T09:42:10Z</time>
      </trkpt>
      <trkpt lat="45.736929634585977" lon="8.914081184193492">
        <ele>344.60000610351562</ele>
        <time>2012-12-09T09:42:15Z</time>
      </trkpt>
      <trkpt lat="45.737056788057089" lon="8.914056709036231">
        <ele>344.79998779296875</ele>
        <time>2012-12-09T09:42:21Z</time>
      </trkpt>
      <trkpt lat="45.737157873809338" lon="8.914051679894328">
        <ele>345</ele>
        <time>2012-12-09T09:43:23Z</time>
      </trkpt>
      <trkpt lat="45.737159885466099" lon="8.914042375981808">
        <ele>345</ele>
        <time>2012-12-09T09:43:29Z</time>
      </trkpt>
      <trkpt lat="45.737179331481457" lon="8.913976410403848">
        <ele>345.60000610351562</ele>
        <time>2012-12-09T09:43:37Z</time>
      </trkpt>
      <trkpt lat="45.737219396978617" lon="8.913956796750426">
        <ele>345.79998779296875</ele>
        <time>2012-12-09T09:43:45Z</time>
      </trkpt>
      <trkpt lat="45.737263150513172" lon="8.913949588313699">
        <ele>346</ele>
        <time>2012-12-09T09:43:53Z</time>
      </trkpt>
      <trkpt lat="45.737285446375608" lon="8.913962161168456">
        <ele>345.79998779296875</ele>
        <time>2012-12-09T09:44:03Z</time>
      </trkpt>
      <trkpt lat="45.737309418618679" lon="8.913962496444583">
        <ele>345.79998779296875</ele>
        <time>2012-12-09T09:44:10Z</time>
      </trkpt>
      <trkpt lat="45.737330708652735" lon="8.913956293836236">
        <ele>345.79998779296875</ele>
        <time>2012-12-09T09:44:16Z</time>
      </trkpt>
      <trkpt lat="45.737365074455738" lon="8.913945313543081">
        <ele>346</ele>
        <time>2012-12-09T09:44:23Z</time>
      </trkpt>
      <trkpt lat="45.737402122467756" lon="8.91393106430769">
        <ele>346.20001220703125</ele>
        <time>2012-12-09T09:44:31Z</time>
      </trkpt>
      <trkpt lat="45.737454341724515" lon="8.913897117599845">
        <ele>346.39999389648437</ele>
        <time>2012-12-09T09:44:39Z</time>
      </trkpt>
      <trkpt lat="45.737522318959236" lon="8.913880856707692">
        <ele>347</ele>
        <time>2012-12-09T09:44:47Z</time>
      </trkpt>
      <trkpt lat="45.73757135309279" lon="8.913877084851265">
        <ele>347.60000610351562</ele>
        <time>2012-12-09T09:44:53Z</time>
      </trkpt>
      <trkpt lat="45.737625667825341" lon="8.913869457319379">
        <ele>348.20001220703125</ele>
        <time>2012-12-09T09:45:02Z</time>
      </trkpt>
      <trkpt lat="45.737658608704805" lon="8.913840288296342">
        <ele>349</ele>
        <time>2012-12-09T09:45:26Z</time>
      </trkpt>
      <trkpt lat="45.737688699737191" lon="8.913813717663288">
        <ele>349.39999389648437</ele>
        <time>2012-12-09T09:45:33Z</time>
      </trkpt>
      <trkpt lat="45.737708564847708" lon="8.913797708228231">
        <ele>349.79998779296875</ele>
        <time>2012-12-09T09:45:40Z</time>
      </trkpt>
      <trkpt lat="45.737751564010978" lon="8.913778429850936">
        <ele>350.60000610351562</ele>
        <time>2012-12-09T09:45:50Z</time>
      </trkpt>
      <trkpt lat="45.737771261483431" lon="8.913782453164458">
        <ele>350.79998779296875</ele>
        <time>2012-12-09T09:45:56Z</time>
      </trkpt>
      <trkpt lat="45.737783079966903" lon="8.913803491741419">
        <ele>350.60000610351562</ele>
        <time>2012-12-09T09:46:30Z</time>
      </trkpt>
      <trkpt lat="45.737939905375242" lon="8.913789577782154">
        <ele>352.60000610351562</ele>
        <time>2012-12-09T09:47:09Z</time>
      </trkpt>
      <trkpt lat="45.737935630604625" lon="8.913782369345427">
        <ele>352.60000610351562</ele>
        <time>2012-12-09T09:47:16Z</time>
      </trkpt>
      <trkpt lat="45.737954489886761" lon="8.913784213364124">
        <ele>352.79998779296875</ele>
        <time>2012-12-09T09:47:24Z</time>
      </trkpt>
      <trkpt lat="45.737985502928495" lon="8.913762168958783">
        <ele>353.39999389648438</ele>
        <time>2012-12-09T09:47:30Z</time>
      </trkpt>
      <trkpt lat="45.738057168200612" lon="8.913748422637582">
        <ele>354.20001220703125</ele>
        <time>2012-12-09T09:47:38Z</time>
      </trkpt>
      <trkpt lat="45.738138807937503" lon="8.913726126775146">
        <ele>355.39999389648437</ele>
        <time>2012-12-09T09:47:46Z</time>
      </trkpt>
      <trkpt lat="45.738212820142508" lon="8.913700226694346">
        <ele>356.39999389648438</ele>
        <time>2012-12-09T09:47:52Z</time>
      </trkpt>
      <trkpt lat="45.73822614736855" lon="8.913699137046933">
        <ele>356.60000610351562</ele>
        <time>2012-12-09T09:47:53Z</time>
      </trkpt>
      <trkpt lat="45.738252215087414" lon="8.913689581677318">
        <ele>356.79998779296875</ele>
        <time>2012-12-09T09:47:56Z</time>
      </trkpt>
      <trkpt lat="45.738301752135158" lon="8.913673656061292">
        <ele>357.60000610351562</ele>
        <time>2012-12-09T09:48:01Z</time>
      </trkpt>
      <trkpt lat="45.738349361345172" lon="8.913640715181828">
        <ele>358.20001220703125</ele>
        <time>2012-12-09T09:48:06Z</time>
      </trkpt>
      <trkpt lat="45.738373333588243" lon="8.913628812879324">
        <ele>358.39999389648437</ele>
        <time>2012-12-09T09:48:08Z</time>
      </trkpt>
      <trkpt lat="45.738458661362529" lon="8.913585981354117">
        <ele>359.39999389648437</ele>
        <time>2012-12-09T09:48:16Z</time>
      </trkpt>
      <trkpt lat="45.738491015508771" lon="8.913524961099029">
        <ele>360.20001220703125</ele>
        <time>2012-12-09T09:48:20Z</time>
      </trkpt>
      <trkpt lat="45.73850953951478" lon="8.913522195070982">
        <ele>360.20001220703125</ele>
        <time>2012-12-09T09:48:21Z</time>
      </trkpt>
      <trkpt lat="45.738621689379215" lon="8.913436532020569">
        <ele>361.79998779296875</ele>
        <time>2012-12-09T09:48:27Z</time>
      </trkpt>
      <trkpt lat="45.7386414706707" lon="8.913428485393524">
        <ele>362</ele>
        <time>2012-12-09T09:48:28Z</time>
      </trkpt>
      <trkpt lat="45.738767785951495" lon="8.913410045206547">
        <ele>363.20001220703125</ele>
        <time>2012-12-09T09:48:33Z</time>
      </trkpt>
      <trkpt lat="45.738956043496728" lon="8.913377020508051">
        <ele>365</ele>
        <time>2012-12-09T09:48:40Z</time>
      </trkpt>
      <trkpt lat="45.739005329087377" lon="8.913387162610889">
        <ele>365.20001220703125</ele>
        <time>2012-12-09T09:48:42Z</time>
      </trkpt>
      <trkpt lat="45.739064002409577" lon="8.913395628333092">
        <ele>365.79998779296875</ele>
        <time>2012-12-09T09:48:45Z</time>
      </trkpt>
      <trkpt lat="45.739236082881689" lon="8.913401160389185">
        <ele>366.79998779296875</ele>
        <time>2012-12-09T09:48:51Z</time>
      </trkpt>
      <trkpt lat="45.739341359585524" lon="8.913409877568483">
        <ele>367</ele>
        <time>2012-12-09T09:48:56Z</time>
      </trkpt>
      <trkpt lat="45.739581165835261" lon="8.913437789306045">
        <ele>367.39999389648438</ele>
        <time>2012-12-09T09:49:04Z</time>
      </trkpt>
      <trkpt lat="45.739787193015218" lon="8.913451116532087">
        <ele>368</ele>
        <time>2012-12-09T09:49:11Z</time>
      </trkpt>
      <trkpt lat="45.739970421418548" lon="8.913461929187179">
        <ele>368.39999389648437</ele>
        <time>2012-12-09T09:49:18Z</time>
      </trkpt>
      <trkpt lat="45.740113332867622" lon="8.913468718528748">
        <ele>368.39999389648437</ele>
        <time>2012-12-09T09:49:24Z</time>
      </trkpt>
      <trkpt lat="45.740260183811188" lon="8.913428736850619">
        <ele>368.39999389648437</ele>
        <time>2012-12-09T09:49:29Z</time>
      </trkpt>
      <trkpt lat="45.740480627864599" lon="8.913438795134425">
        <ele>368.20001220703125</ele>
        <time>2012-12-09T09:49:36Z</time>
      </trkpt>
      <trkpt lat="45.740662179887295" lon="8.913433430716395">
        <ele>368</ele>
        <time>2012-12-09T09:49:42Z</time>
      </trkpt>
      <trkpt lat="45.740904165431857" lon="8.913415912538767">
        <ele>368.39999389648437</ele>
        <time>2012-12-09T09:49:50Z</time>
      </trkpt>
      <trkpt lat="45.741076078265905" lon="8.913395712152124">
        <ele>369</ele>
        <time>2012-12-09T09:49:56Z</time>
      </trkpt>
      <trkpt lat="45.7411178201437" lon="8.91337743960321">
        <ele>369.20001220703125</ele>
        <time>2012-12-09T09:49:58Z</time>
      </trkpt>
      <trkpt lat="45.741151263937354" lon="8.913327232003212">
        <ele>369.60000610351562</ele>
        <time>2012-12-09T09:50:00Z</time>
      </trkpt>
      <trkpt lat="45.741208428516984" lon="8.913256656378508">
        <ele>369.60000610351562</ele>
        <time>2012-12-09T09:50:05Z</time>
      </trkpt>
      <trkpt lat="45.741270538419485" lon="8.913166048005223">
        <ele>369.39999389648437</ele>
        <time>2012-12-09T09:50:11Z</time>
      </trkpt>
      <trkpt lat="45.741394003853202" lon="8.913058172911406">
        <ele>369.39999389648437</ele>
        <time>2012-12-09T09:50:16Z</time>
      </trkpt>
      <trkpt lat="45.741457538679242" lon="8.912909980863333">
        <ele>369.20001220703125</ele>
        <time>2012-12-09T09:50:21Z</time>
      </trkpt>
      <trkpt lat="45.741479331627488" lon="8.912742678076029">
        <ele>368.79998779296875</ele>
        <time>2012-12-09T09:50:26Z</time>
      </trkpt>
      <trkpt lat="45.741461729630828" lon="8.912555677816272">
        <ele>368</ele>
        <time>2012-12-09T09:50:30Z</time>
      </trkpt>
      <trkpt lat="45.741434823721647" lon="8.912450904026628">
        <ele>367.60000610351562</ele>
        <time>2012-12-09T09:50:32Z</time>
      </trkpt>
      <trkpt lat="45.741414874792099" lon="8.912177067250013">
        <ele>366.79998779296875</ele>
        <time>2012-12-09T09:50:37Z</time>
      </trkpt>
      <trkpt lat="45.741504728794098" lon="8.912020241841674">
        <ele>366.79998779296875</ele>
        <time>2012-12-09T09:50:41Z</time>
      </trkpt>
      <trkpt lat="45.741753838956356" lon="8.911978835240006">
        <ele>366.79998779296875</ele>
        <time>2012-12-09T09:50:48Z</time>
      </trkpt>
      <trkpt lat="45.741910077631474" lon="8.911997359246016">
        <ele>366.20001220703125</ele>
        <time>2012-12-09T09:50:53Z</time>
      </trkpt>
      <trkpt lat="45.742065226659179" lon="8.912152340635657">
        <ele>366.60000610351562</ele>
        <time>2012-12-09T09:50:58Z</time>
      </trkpt>
      <trkpt lat="45.7422817312181" lon="8.912212774157524">
        <ele>366.39999389648437</ele>
        <time>2012-12-09T09:51:03Z</time>
      </trkpt>
      <trkpt lat="45.742496475577354" lon="8.912231549620628">
        <ele>366</ele>
        <time>2012-12-09T09:51:08Z</time>
      </trkpt>
      <trkpt lat="45.742568895220757" lon="8.912220317870379">
        <ele>366.20001220703125</ele>
        <time>2012-12-09T09:51:10Z</time>
      </trkpt>
      <trkpt lat="45.742638129740953" lon="8.912213779985905">
        <ele>366.20001220703125</ele>
        <time>2012-12-09T09:51:14Z</time>
      </trkpt>
      <trkpt lat="45.742717925459146" lon="8.912214785814285">
        <ele>366.60000610351562</ele>
        <time>2012-12-09T09:51:22Z</time>
      </trkpt>
      <trkpt lat="45.742792272940278" lon="8.912205900996923">
        <ele>366.79998779296875</ele>
        <time>2012-12-09T09:51:30Z</time>
      </trkpt>
      <trkpt lat="45.742862680926919" lon="8.912183772772551">
        <ele>366.79998779296875</ele>
        <time>2012-12-09T09:51:38Z</time>
      </trkpt>
      <trkpt lat="45.742932837456465" lon="8.912122501060367">
        <ele>366.60000610351562</ele>
        <time>2012-12-09T09:51:45Z</time>
      </trkpt>
      <trkpt lat="45.742978099733591" lon="8.911943715065718">
        <ele>365.79998779296875</ele>
        <time>2012-12-09T09:51:50Z</time>
      </trkpt>
      <trkpt lat="45.743065355345607" lon="8.911686223000288">
        <ele>364.79998779296875</ele>
        <time>2012-12-09T09:51:55Z</time>
      </trkpt>
      <trkpt lat="45.743233915418386" lon="8.911549095064402">
        <ele>364.39999389648437</ele>
        <time>2012-12-09T09:52:00Z</time>
      </trkpt>
      <trkpt lat="45.74345494620502" lon="8.91153970733285">
        <ele>365.20001220703125</ele>
        <time>2012-12-09T09:52:06Z</time>
      </trkpt>
      <trkpt lat="45.743710929527879" lon="8.911588238552213">
        <ele>367.39999389648438</ele>
        <time>2012-12-09T09:52:12Z</time>
      </trkpt>
      <trkpt lat="45.743973953649402" lon="8.911616904661059">
        <ele>369.20001220703125</ele>
        <time>2012-12-09T09:52:19Z</time>
      </trkpt>
      <trkpt lat="45.744208814576268" lon="8.911721929907799">
        <ele>370.79998779296875</ele>
        <time>2012-12-09T09:52:25Z</time>
      </trkpt>
      <trkpt lat="45.744399167597294" lon="8.911881102249026">
        <ele>370.60000610351562</ele>
        <time>2012-12-09T09:52:31Z</time>
      </trkpt>
      <trkpt lat="45.744626652449369" lon="8.912134654819965">
        <ele>371</ele>
        <time>2012-12-09T09:52:39Z</time>
      </trkpt>
      <trkpt lat="45.744688007980585" lon="8.912321235984564">
        <ele>372</ele>
        <time>2012-12-09T09:52:44Z</time>
      </trkpt>
      <trkpt lat="45.744783310219646" lon="8.912475798279047">
        <ele>372.79998779296875</ele>
        <time>2012-12-09T09:52:50Z</time>
      </trkpt>
      <trkpt lat="45.744924210011959" lon="8.91254142858088">
        <ele>373</ele>
        <time>2012-12-09T09:52:56Z</time>
      </trkpt>
      <trkpt lat="45.745076844468713" lon="8.912602700293064">
        <ele>373.20001220703125</ele>
        <time>2012-12-09T09:53:02Z</time>
      </trkpt>
      <trkpt lat="45.745204919949174" lon="8.912712838500738">
        <ele>373.39999389648438</ele>
        <time>2012-12-09T09:53:07Z</time>
      </trkpt>
      <trkpt lat="45.745371887460351" lon="8.912868238985539">
        <ele>374</ele>
        <time>2012-12-09T09:53:14Z</time>
      </trkpt>
      <trkpt lat="45.745507087558508" lon="8.913008803501725">
        <ele>374.39999389648437</ele>
        <time>2012-12-09T09:53:19Z</time>
      </trkpt>
      <trkpt lat="45.745728285983205" lon="8.913155905902386">
        <ele>375</ele>
        <time>2012-12-09T09:53:25Z</time>
      </trkpt>
      <trkpt lat="45.745962727814913" lon="8.913256907835603">
        <ele>375.39999389648437</ele>
        <time>2012-12-09T09:53:30Z</time>
      </trkpt>
      <trkpt lat="45.74600463733077" lon="8.913279119879007">
        <ele>375.39999389648437</ele>
        <time>2012-12-09T09:53:31Z</time>
      </trkpt>
      <trkpt lat="45.746079571545124" lon="8.913329495117068">
        <ele>375.60000610351562</ele>
        <time>2012-12-09T09:53:33Z</time>
      </trkpt>
      <trkpt lat="45.746205886825919" lon="8.913395376875997">
        <ele>375.60000610351562</ele>
        <time>2012-12-09T09:53:36Z</time>
      </trkpt>
      <trkpt lat="45.746245449408889" lon="8.913407530635595">
        <ele>375.60000610351562</ele>
        <time>2012-12-09T09:53:37Z</time>
      </trkpt>
      <trkpt lat="45.74643898755312" lon="8.913422701880336">
        <ele>375.39999389648437</ele>
        <time>2012-12-09T09:53:41Z</time>
      </trkpt>
      <trkpt lat="45.746570331975818" lon="8.913453044369817">
        <ele>375.60000610351562</ele>
        <time>2012-12-09T09:53:44Z</time>
      </trkpt>
      <trkpt lat="45.746655156835914" lon="8.913493528962135">
        <ele>375.60000610351562</ele>
        <time>2012-12-09T09:53:46Z</time>
      </trkpt>
      <trkpt lat="45.746733276173472" lon="8.913538036867976">
        <ele>376</ele>
        <time>2012-12-09T09:53:48Z</time>
      </trkpt>
      <trkpt lat="45.746878702193499" lon="8.913647755980492">
        <ele>376.39999389648438</ele>
        <time>2012-12-09T09:53:52Z</time>
      </trkpt>
      <trkpt lat="45.746932849287987" lon="8.913725456222892">
        <ele>376.60000610351562</ele>
        <time>2012-12-09T09:53:54Z</time>
      </trkpt>
      <trkpt lat="45.746959419921041" lon="8.913771221414208">
        <ele>376.79998779296875</ele>
        <time>2012-12-09T09:53:55Z</time>
      </trkpt>
      <trkpt lat="45.74701314792037" lon="8.913854286074638">
        <ele>377</ele>
        <time>2012-12-09T09:53:57Z</time>
      </trkpt>
      <trkpt lat="45.74705321341753" lon="8.914077412337065">
        <ele>377.60000610351562</ele>
        <time>2012-12-09T09:54:02Z</time>
      </trkpt>
      <trkpt lat="45.747044496238232" lon="8.914364408701658">
        <ele>378.20001220703125</ele>
        <time>2012-12-09T09:54:08Z</time>
      </trkpt>
      <trkpt lat="45.747065953910351" lon="8.914641765877605">
        <ele>378.20001220703125</ele>
        <time>2012-12-09T09:54:14Z</time>
      </trkpt>
      <trkpt lat="45.747135523706675" lon="8.914912668988109">
        <ele>378.20001220703125</ele>
        <time>2012-12-09T09:54:20Z</time>
      </trkpt>
      <trkpt lat="45.747221354395151" lon="8.915200671181083">
        <ele>378.79998779296875</ele>
        <time>2012-12-09T09:54:26Z</time>
      </trkpt>
      <trkpt lat="45.747300311923027" lon="8.915390688925982">
        <ele>379.39999389648437</ele>
        <time>2012-12-09T09:54:31Z</time>
      </trkpt>
      <trkpt lat="45.747372228652239" lon="8.915701070800424">
        <ele>380.39999389648437</ele>
        <time>2012-12-09T09:54:38Z</time>
      </trkpt>
      <trkpt lat="45.747494185343385" lon="8.915977673605084">
        <ele>381.39999389648437</ele>
        <time>2012-12-09T09:54:45Z</time>
      </trkpt>
      <trkpt lat="45.747590241953731" lon="8.916100719943643">
        <ele>382.20001220703125</ele>
        <time>2012-12-09T09:54:49Z</time>
      </trkpt>
      <trkpt lat="45.747650088742375" lon="8.916118573397398">
        <ele>382.39999389648437</ele>
        <time>2012-12-09T09:54:51Z</time>
      </trkpt>
      <trkpt lat="45.7477075047791" lon="8.916130727156997">
        <ele>382.60000610351562</ele>
        <time>2012-12-09T09:54:53Z</time>
      </trkpt>
      <trkpt lat="45.747794006019831" lon="8.916140366345644">
        <ele>382.79998779296875</ele>
        <time>2012-12-09T09:54:55Z</time>
      </trkpt>
      <trkpt lat="45.748056108132005" lon="8.916155286133289">
        <ele>383.39999389648437</ele>
        <time>2012-12-09T09:55:02Z</time>
      </trkpt>
      <trkpt lat="45.748235983774066" lon="8.916161991655827">
        <ele>383.79998779296875</ele>
        <time>2012-12-09T09:55:07Z</time>
      </trkpt>
      <trkpt lat="45.748395994305611" lon="8.916154867038131">
        <ele>384.20001220703125</ele>
        <time>2012-12-09T09:55:11Z</time>
      </trkpt>
      <trkpt lat="45.74859238229692" lon="8.916139779612422">
        <ele>384.60000610351562</ele>
        <time>2012-12-09T09:55:16Z</time>
      </trkpt>
      <trkpt lat="45.748826069757342" lon="8.916144892573357">
        <ele>384.79998779296875</ele>
        <time>2012-12-09T09:55:22Z</time>
      </trkpt>
      <trkpt lat="45.7491494435817" lon="8.916174480691552">
        <ele>385.20001220703125</ele>
        <time>2012-12-09T09:55:30Z</time>
      </trkpt>
      <trkpt lat="45.749362427741289" lon="8.916189316660166">
        <ele>385.60000610351562</ele>
        <time>2012-12-09T09:55:35Z</time>
      </trkpt>
      <trkpt lat="45.74953886680305" lon="8.916217144578695">
        <ele>385.79998779296875</ele>
        <time>2012-12-09T09:55:40Z</time>
      </trkpt>
      <trkpt lat="45.749771129339933" lon="8.916235081851482">
        <ele>386</ele>
        <time>2012-12-09T09:55:46Z</time>
      </trkpt>
      <trkpt lat="45.750046307221055" lon="8.916286882013083">
        <ele>386.39999389648437</ele>
        <time>2012-12-09T09:55:53Z</time>
      </trkpt>
      <trkpt lat="45.750220650807023" lon="8.91632535494864">
        <ele>386.39999389648437</ele>
        <time>2012-12-09T09:55:59Z</time>
      </trkpt>
      <trkpt lat="45.750422067940235" lon="8.916371036320925">
        <ele>386.60000610351562</ele>
        <time>2012-12-09T09:56:05Z</time>
      </trkpt>
      <trkpt lat="45.750654581934214" lon="8.916427362710238">
        <ele>386.79998779296875</ele>
        <time>2012-12-09T09:56:11Z</time>
      </trkpt>
      <trkpt lat="45.750944344326854" lon="8.916484192013741">
        <ele>387</ele>
        <time>2012-12-09T09:56:18Z</time>
      </trkpt>
      <trkpt lat="45.751124890521169" lon="8.916510008275509">
        <ele>386.79998779296875</ele>
        <time>2012-12-09T09:56:22Z</time>
      </trkpt>
      <trkpt lat="45.751212732866406" lon="8.916522581130266">
        <ele>386.79998779296875</ele>
        <time>2012-12-09T09:56:24Z</time>
      </trkpt>
      <trkpt lat="45.751434015110135" lon="8.916539512574673">
        <ele>386.60000610351562</ele>
        <time>2012-12-09T09:56:29Z</time>
      </trkpt>
      <trkpt lat="45.751541052013636" lon="8.916557030752301">
        <ele>386.60000610351562</ele>
        <time>2012-12-09T09:56:32Z</time>
      </trkpt>
      <trkpt lat="45.751620847731829" lon="8.916569100692868">
        <ele>386.60000610351562</ele>
        <time>2012-12-09T09:56:34Z</time>
      </trkpt>
      <trkpt lat="45.75184078887105" lon="8.916632970795035">
        <ele>386.79998779296875</ele>
        <time>2012-12-09T09:56:40Z</time>
      </trkpt>
      <trkpt lat="45.752124935388565" lon="8.916691644117236">
        <ele>386.79998779296875</ele>
        <time>2012-12-09T09:56:47Z</time>
      </trkpt>
      <trkpt lat="45.752319395542145" lon="8.91673338599503">
        <ele>386.60000610351562</ele>
        <time>2012-12-09T09:56:52Z</time>
      </trkpt>
      <trkpt lat="45.752392401918769" lon="8.916744953021407">
        <ele>386.39999389648437</ele>
        <time>2012-12-09T09:56:54Z</time>
      </trkpt>
      <trkpt lat="45.752517711371183" lon="8.916771523654461">
        <ele>386.39999389648437</ele>
        <time>2012-12-09T09:56:57Z</time>
      </trkpt>
      <trkpt lat="45.752896154299378" lon="8.916841931641102">
        <ele>386.39999389648437</ele>
        <time>2012-12-09T09:57:06Z</time>
      </trkpt>
      <trkpt lat="45.753240985795856" lon="8.916911082342267">
        <ele>386.60000610351562</ele>
        <time>2012-12-09T09:57:15Z</time>
      </trkpt>
      <trkpt lat="45.753432428464293" lon="8.916931869462133">
        <ele>386.79998779296875</ele>
        <time>2012-12-09T09:57:20Z</time>
      </trkpt>
      <trkpt lat="45.753660751506686" lon="8.916974784806371">
        <ele>387.60000610351562</ele>
        <time>2012-12-09T09:57:26Z</time>
      </trkpt>
      <trkpt lat="45.753857893869281" lon="8.916999427601695">
        <ele>388.20001220703125</ele>
        <time>2012-12-09T09:57:32Z</time>
      </trkpt>
      <trkpt lat="45.754032069817185" lon="8.917044103145599">
        <ele>388.79998779296875</ele>
        <time>2012-12-09T09:57:38Z</time>
      </trkpt>
      <trkpt lat="45.754318563267589" lon="8.917092550545931">
        <ele>389.79998779296875</ele>
        <time>2012-12-09T09:57:46Z</time>
      </trkpt>
      <trkpt lat="45.75458544306457" lon="8.91713990829885">
        <ele>390.60000610351562</ele>
        <time>2012-12-09T09:57:53Z</time>
      </trkpt>
      <trkpt lat="45.754797337576747" lon="8.917177123948932">
        <ele>391.20001220703125</ele>
        <time>2012-12-09T09:57:59Z</time>
      </trkpt>
      <trkpt lat="45.755019625648856" lon="8.917224565520883">
        <ele>392</ele>
        <time>2012-12-09T09:58:05Z</time>
      </trkpt>
      <trkpt lat="45.755242584273219" lon="8.917268319055438">
        <ele>392</ele>
        <time>2012-12-09T09:58:11Z</time>
      </trkpt>
      <trkpt lat="45.755457328632474" lon="8.917324813082814">
        <ele>392</ele>
        <time>2012-12-09T09:58:17Z</time>
      </trkpt>
      <trkpt lat="45.755702666938305" lon="8.917385078966618">
        <ele>392</ele>
        <time>2012-12-09T09:58:24Z</time>
      </trkpt>
      <trkpt lat="45.755907353013754" lon="8.917425395920873">
        <ele>392.20001220703125</ele>
        <time>2012-12-09T09:58:30Z</time>
      </trkpt>
      <trkpt lat="45.756066609174013" lon="8.917479207739234">
        <ele>392.79998779296875</ele>
        <time>2012-12-09T09:58:35Z</time>
      </trkpt>
      <trkpt lat="45.75619837269187" lon="8.91751273535192">
        <ele>393.20001220703125</ele>
        <time>2012-12-09T09:58:39Z</time>
      </trkpt>
      <trkpt lat="45.756484363228083" lon="8.917566714808345">
        <ele>394.20001220703125</ele>
        <time>2012-12-09T09:58:47Z</time>
      </trkpt>
      <trkpt lat="45.756654012948275" lon="8.91756646335125">
        <ele>394.79998779296875</ele>
        <time>2012-12-09T09:58:52Z</time>
      </trkpt>
      <trkpt lat="45.756889125332236" lon="8.917599739506841">
        <ele>395.20001220703125</ele>
        <time>2012-12-09T09:58:59Z</time>
      </trkpt>
      <trkpt lat="45.757109485566616" lon="8.917649108916521">
        <ele>395.60000610351562</ele>
        <time>2012-12-09T09:59:06Z</time>
      </trkpt>
      <trkpt lat="45.757311405614018" lon="8.917689174413681">
        <ele>396</ele>
        <time>2012-12-09T09:59:12Z</time>
      </trkpt>
      <trkpt lat="45.757484575733542" lon="8.917727563530207">
        <ele>396.39999389648437</ele>
        <time>2012-12-09T09:59:17Z</time>
      </trkpt>
      <trkpt lat="45.757715916261077" lon="8.917761594057083">
        <ele>396.79998779296875</ele>
        <time>2012-12-09T09:59:23Z</time>
      </trkpt>
      <trkpt lat="45.757971312850714" lon="8.91781372949481">
        <ele>397</ele>
        <time>2012-12-09T09:59:29Z</time>
      </trkpt>
      <trkpt lat="45.758054880425334" lon="8.917835438624024">
        <ele>397.20001220703125</ele>
        <time>2012-12-09T09:59:31Z</time>
      </trkpt>
      <trkpt lat="45.758210364729166" lon="8.917865445837379">
        <ele>397.39999389648437</ele>
        <time>2012-12-09T09:59:35Z</time>
      </trkpt>
      <trkpt lat="45.758316982537508" lon="8.917894447222352">
        <ele>397.39999389648437</ele>
        <time>2012-12-09T09:59:38Z</time>
      </trkpt>
      <trkpt lat="45.758404741063714" lon="8.917905008420348">
        <ele>397.60000610351562</ele>
        <time>2012-12-09T09:59:40Z</time>
      </trkpt>
      <trkpt lat="45.758639182895422" lon="8.917963095009327">
        <ele>397.60000610351562</ele>
        <time>2012-12-09T09:59:46Z</time>
      </trkpt>
      <trkpt lat="45.758896758779883" lon="8.918007435277104">
        <ele>397.79998779296875</ele>
        <time>2012-12-09T09:59:53Z</time>
      </trkpt>
      <trkpt lat="45.759118460118771" lon="8.918121345341206">
        <ele>398</ele>
        <time>2012-12-09T09:59:59Z</time>
      </trkpt>
      <trkpt lat="45.759324822574854" lon="8.918234501034021">
        <ele>398.39999389648437</ele>
        <time>2012-12-09T10:00:05Z</time>
      </trkpt>
      <trkpt lat="45.759464465081692" lon="8.918327791616321">
        <ele>399</ele>
        <time>2012-12-09T10:00:10Z</time>
      </trkpt>
      <trkpt lat="45.759599329903722" lon="8.918353943154216">
        <ele>399.39999389648437</ele>
        <time>2012-12-09T10:00:16Z</time>
      </trkpt>
      <trkpt lat="45.759645262733102" lon="8.918374311178923">
        <ele>399.60000610351562</ele>
        <time>2012-12-09T10:00:18Z</time>
      </trkpt>
      <trkpt lat="45.759712317958474" lon="8.918404402211309">
        <ele>399.79998779296875</ele>
        <time>2012-12-09T10:00:20Z</time>
      </trkpt>
      <trkpt lat="45.759939216077328" lon="8.918471960350871">
        <ele>400.60000610351562</ele>
        <time>2012-12-09T10:00:27Z</time>
      </trkpt>
      <trkpt lat="45.760282538831234" lon="8.918520491570234">
        <ele>401.60000610351562</ele>
        <time>2012-12-09T10:00:37Z</time>
      </trkpt>
      <trkpt lat="45.760452356189489" lon="8.918543122708798">
        <ele>402</ele>
        <time>2012-12-09T10:00:42Z</time>
      </trkpt>
      <trkpt lat="45.76066642999649" lon="8.918585451319814">
        <ele>402.60000610351562</ele>
        <time>2012-12-09T10:00:47Z</time>
      </trkpt>
      <trkpt lat="45.760892573744059" lon="8.918637586757541">
        <ele>403</ele>
        <time>2012-12-09T10:00:53Z</time>
      </trkpt>
      <trkpt lat="45.761128440499306" lon="8.918656781315804">
        <ele>402.39999389648437</ele>
        <time>2012-12-09T10:00:59Z</time>
      </trkpt>
      <trkpt lat="45.7613514829427" lon="8.918702378869057">
        <ele>401.79998779296875</ele>
        <time>2012-12-09T10:01:05Z</time>
      </trkpt>
      <trkpt lat="45.761554492637515" lon="8.918741103261709">
        <ele>401.20001220703125</ele>
        <time>2012-12-09T10:01:10Z</time>
      </trkpt>
      <trkpt lat="45.761792538687587" lon="8.918803548440337">
        <ele>400.60000610351562</ele>
        <time>2012-12-09T10:01:15Z</time>
      </trkpt>
      <trkpt lat="45.761831011623144" lon="8.918829197064042">
        <ele>400.39999389648437</ele>
        <time>2012-12-09T10:01:16Z</time>
      </trkpt>
      <trkpt lat="45.761982472613454" lon="8.918883092701435">
        <ele>400.20001220703125</ele>
        <time>2012-12-09T10:01:19Z</time>
      </trkpt>
      <trkpt lat="45.7620854023844" lon="8.918920811265707">
        <ele>400</ele>
        <time>2012-12-09T10:01:22Z</time>
      </trkpt>
      <trkpt lat="45.762331327423453" lon="8.919004295021296">
        <ele>400</ele>
        <time>2012-12-09T10:01:28Z</time>
      </trkpt>
      <trkpt lat="45.7626121211797" lon="8.919109990820289">
        <ele>400</ele>
        <time>2012-12-09T10:01:35Z</time>
      </trkpt>
      <trkpt lat="45.762903476133943" lon="8.919242424890399">
        <ele>399.60000610351562</ele>
        <time>2012-12-09T10:01:43Z</time>
      </trkpt>
      <trkpt lat="45.763154765591025" lon="8.919376032426953">
        <ele>399.60000610351562</ele>
        <time>2012-12-09T10:01:50Z</time>
      </trkpt>
      <trkpt lat="45.763390129432082" lon="8.919487092643976">
        <ele>399.60000610351562</ele>
        <time>2012-12-09T10:01:56Z</time>
      </trkpt>
      <trkpt lat="45.76369347050786" lon="8.919589519500732">
        <ele>399.60000610351562</ele>
        <time>2012-12-09T10:02:04Z</time>
      </trkpt>
      <trkpt lat="45.763967391103506" lon="8.919624639675021">
        <ele>399.20001220703125</ele>
        <time>2012-12-09T10:02:11Z</time>
      </trkpt>
      <trkpt lat="45.764153720811009" lon="8.919647857546806">
        <ele>398.79998779296875</ele>
        <time>2012-12-09T10:02:16Z</time>
      </trkpt>
      <trkpt lat="45.764370476827025" lon="8.919667387381196">
        <ele>399.20001220703125</ele>
        <time>2012-12-09T10:02:21Z</time>
      </trkpt>
      <trkpt lat="45.764702400192618" lon="8.919727988541126">
        <ele>400.20001220703125</ele>
        <time>2012-12-09T10:02:29Z</time>
      </trkpt>
      <trkpt lat="45.7648656796664" lon="8.919763024896383">
        <ele>400.60000610351562</ele>
        <time>2012-12-09T10:02:33Z</time>
      </trkpt>
      <trkpt lat="45.764906583353877" lon="8.919777441769838">
        <ele>400.60000610351562</ele>
        <time>2012-12-09T10:02:34Z</time>
      </trkpt>
      <trkpt lat="45.76500884257257" lon="8.919808203354478">
        <ele>401</ele>
        <time>2012-12-09T10:02:37Z</time>
      </trkpt>
      <trkpt lat="45.765115795657039" lon="8.919846173375845">
        <ele>401.39999389648437</ele>
        <time>2012-12-09T10:02:40Z</time>
      </trkpt>
      <trkpt lat="45.765168517827988" lon="8.919863356277347">
        <ele>401.79998779296875</ele>
        <time>2012-12-09T10:02:42Z</time>
      </trkpt>
      <trkpt lat="45.765297766774893" lon="8.919866373762488">
        <ele>402</ele>
        <time>2012-12-09T10:02:45Z</time>
      </trkpt>
      <trkpt lat="45.765484431758523" lon="8.919895878061652">
        <ele>402.79998779296875</ele>
        <time>2012-12-09T10:02:50Z</time>
      </trkpt>
      <trkpt lat="45.765732284635305" lon="8.919949438422918">
        <ele>403.60000610351562</ele>
        <time>2012-12-09T10:02:56Z</time>
      </trkpt>
      <trkpt lat="45.765958176925778" lon="8.91997835598886">
        <ele>404.20001220703125</ele>
        <time>2012-12-09T10:03:02Z</time>
      </trkpt>
      <trkpt lat="45.766191277652979" lon="8.920030072331429">
        <ele>404.79998779296875</ele>
        <time>2012-12-09T10:03:08Z</time>
      </trkpt>
      <trkpt lat="45.76641901396215" lon="8.920073742046952">
        <ele>405.39999389648437</ele>
        <time>2012-12-09T10:03:14Z</time>
      </trkpt>
      <trkpt lat="45.766702992841601" lon="8.920120429247618">
        <ele>406</ele>
        <time>2012-12-09T10:03:21Z</time>
      </trkpt>
      <trkpt lat="45.766943553462625" lon="8.920144317671657">
        <ele>406.20001220703125</ele>
        <time>2012-12-09T10:03:27Z</time>
      </trkpt>
      <trkpt lat="45.767166847363114" lon="8.920186897739768">
        <ele>406.60000610351562</ele>
        <time>2012-12-09T10:03:33Z</time>
      </trkpt>
      <trkpt lat="45.767318559810519" lon="8.920217910781503">
        <ele>406.79998779296875</ele>
        <time>2012-12-09T10:03:37Z</time>
      </trkpt>
      <trkpt lat="45.767560042440891" lon="8.920234255492687">
        <ele>407.20001220703125</ele>
        <time>2012-12-09T10:03:43Z</time>
      </trkpt>
      <trkpt lat="45.767779564484954" lon="8.920217324048281">
        <ele>407.20001220703125</ele>
        <time>2012-12-09T10:03:49Z</time>
      </trkpt>
      <trkpt lat="45.768022052943707" lon="8.920216485857964">
        <ele>407.39999389648438</ele>
        <time>2012-12-09T10:03:56Z</time>
      </trkpt>
      <trkpt lat="45.7682088855654" lon="8.92020802013576">
        <ele>407.39999389648438</ele>
        <time>2012-12-09T10:04:01Z</time>
      </trkpt>
      <trkpt lat="45.76844584196806" lon="8.920201901346445">
        <ele>407.60000610351562</ele>
        <time>2012-12-09T10:04:07Z</time>
      </trkpt>
      <trkpt lat="45.768655054271221" lon="8.920170301571488">
        <ele>407.79998779296875</ele>
        <time>2012-12-09T10:04:13Z</time>
      </trkpt>
      <trkpt lat="45.76893056742847" lon="8.920150939375162">
        <ele>408.20001220703125</ele>
        <time>2012-12-09T10:04:21Z</time>
      </trkpt>
      <trkpt lat="45.769164003431797" lon="8.920126212760806">
        <ele>408.39999389648437</ele>
        <time>2012-12-09T10:04:28Z</time>
      </trkpt>
      <trkpt lat="45.769381513819098" lon="8.920093607157469">
        <ele>407.39999389648438</ele>
        <time>2012-12-09T10:04:34Z</time>
      </trkpt>
      <trkpt lat="45.769538842141628" lon="8.920064186677337">
        <ele>406.79998779296875</ele>
        <time>2012-12-09T10:04:40Z</time>
      </trkpt>
      <trkpt lat="45.769673874601722" lon="8.92002915032208">
        <ele>406.20001220703125</ele>
        <time>2012-12-09T10:04:45Z</time>
      </trkpt>
      <trkpt lat="45.769811002537608" lon="8.920065695419908">
        <ele>405.79998779296875</ele>
        <time>2012-12-09T10:04:49Z</time>
      </trkpt>
      <trkpt lat="45.76983698643744" lon="8.920100145041943">
        <ele>405.79998779296875</ele>
        <time>2012-12-09T10:04:50Z</time>
      </trkpt>
      <trkpt lat="45.769861377775669" lon="8.920149933546782">
        <ele>406</ele>
        <time>2012-12-09T10:04:53Z</time>
      </trkpt>
      <trkpt lat="45.769912423565984" lon="8.920165942981839">
        <ele>405.79998779296875</ele>
        <time>2012-12-09T10:04:55Z</time>
      </trkpt>
      <trkpt lat="45.769972521811724" lon="8.920173570513725">
        <ele>405.60000610351562</ele>
        <time>2012-12-09T10:04:57Z</time>
      </trkpt>
      <trkpt lat="45.770134208723903" lon="8.920185305178165">
        <ele>406</ele>
        <time>2012-12-09T10:05:02Z</time>
      </trkpt>
      <trkpt lat="45.770149966701865" lon="8.920172648504376">
        <ele>406</ele>
        <time>2012-12-09T10:05:03Z</time>
      </trkpt>
      <trkpt lat="45.770248621702194" lon="8.920139037072659">
        <ele>406.20001220703125</ele>
        <time>2012-12-09T10:05:06Z</time>
      </trkpt>
      <trkpt lat="45.770400334149599" lon="8.920114561915398">
        <ele>406.60000610351562</ele>
        <time>2012-12-09T10:05:11Z</time>
      </trkpt>
      <trkpt lat="45.770600410178304" lon="8.920124368742108">
        <ele>407.20001220703125</ele>
        <time>2012-12-09T10:05:16Z</time>
      </trkpt>
      <trkpt lat="45.770781375467777" lon="8.92010785639286">
        <ele>407.79998779296875</ele>
        <time>2012-12-09T10:05:22Z</time>
      </trkpt>
      <trkpt lat="45.770913474261761" lon="8.920132834464312">
        <ele>408</ele>
        <time>2012-12-09T10:05:26Z</time>
      </trkpt>
      <trkpt lat="45.771042304113507" lon="8.920119591057301">
        <ele>408.20001220703125</ele>
        <time>2012-12-09T10:05:30Z</time>
      </trkpt>
      <trkpt lat="45.771171217784286" lon="8.920077849179506">
        <ele>408.20001220703125</ele>
        <time>2012-12-09T10:05:34Z</time>
      </trkpt>
      <trkpt lat="45.771363582462072" lon="8.920051865279675">
        <ele>408.39999389648437</ele>
        <time>2012-12-09T10:05:40Z</time>
      </trkpt>
      <trkpt lat="45.771522419527173" lon="8.919988665729761">
        <ele>408.60000610351562</ele>
        <time>2012-12-09T10:05:45Z</time>
      </trkpt>
      <trkpt lat="45.771653931587934" lon="8.919989503920078">
        <ele>408.79998779296875</ele>
        <time>2012-12-09T10:05:49Z</time>
      </trkpt>
      <trkpt lat="45.771900359541178" lon="8.920042896643281">
        <ele>409.39999389648437</ele>
        <time>2012-12-09T10:05:55Z</time>
      </trkpt>
      <trkpt lat="45.772033296525478" lon="8.920162925496697">
        <ele>409.60000610351562</ele>
        <time>2012-12-09T10:06:00Z</time>
      </trkpt>
      <trkpt lat="45.772206382825971" lon="8.920270213857293">
        <ele>409.79998779296875</ele>
        <time>2012-12-09T10:06:06Z</time>
      </trkpt>
      <trkpt lat="45.772425653412938" lon="8.920386806130409">
        <ele>410.20001220703125</ele>
        <time>2012-12-09T10:06:13Z</time>
      </trkpt>
      <trkpt lat="45.772715918719769" lon="8.920545810833573">
        <ele>410.20001220703125</ele>
        <time>2012-12-09T10:06:22Z</time>
      </trkpt>
      <trkpt lat="45.772925885394216" lon="8.920630970969796">
        <ele>410.20001220703125</ele>
        <time>2012-12-09T10:06:29Z</time>
      </trkpt>
      <trkpt lat="45.772951701655984" lon="8.920605322346091">
        <ele>410.20001220703125</ele>
        <time>2012-12-09T10:06:30Z</time>
      </trkpt>
      <trkpt lat="45.773064438253641" lon="8.920510690659285">
        <ele>410</ele>
        <time>2012-12-09T10:06:33Z</time>
      </trkpt>
      <trkpt lat="45.77319192700088" lon="8.920531561598182">
        <ele>409.79998779296875</ele>
        <time>2012-12-09T10:06:37Z</time>
      </trkpt>
      <trkpt lat="45.773358810693026" lon="8.920534998178482">
        <ele>409.79998779296875</ele>
        <time>2012-12-09T10:06:42Z</time>
      </trkpt>
      <trkpt lat="45.773499123752117" lon="8.920507254078984">
        <ele>409.79998779296875</ele>
        <time>2012-12-09T10:06:47Z</time>
      </trkpt>
      <trkpt lat="45.773559305816889" lon="8.920488394796848">
        <ele>409.79998779296875</ele>
        <time>2012-12-09T10:06:50Z</time>
      </trkpt>
      <trkpt lat="45.773577746003866" lon="8.920484203845263">
        <ele>409.79998779296875</ele>
        <time>2012-12-09T10:06:52Z</time>
      </trkpt>
      <trkpt lat="45.77359794639051" lon="8.920483281835914">
        <ele>409.79998779296875</ele>
        <time>2012-12-09T10:07:00Z</time>
      </trkpt>
      <trkpt lat="45.773704396560788" lon="8.920461153611541">
        <ele>410</ele>
        <time>2012-12-09T10:07:25Z</time>
      </trkpt>
      <trkpt lat="45.773809673264623" lon="8.920435337349773">
        <ele>410</ele>
        <time>2012-12-09T10:07:31Z</time>
      </trkpt>
      <trkpt lat="45.77394537627697" lon="8.920408263802528">
        <ele>410.20001220703125</ele>
        <time>2012-12-09T10:07:37Z</time>
      </trkpt>
      <trkpt lat="45.774111840873957" lon="8.920360403135419">
        <ele>410.39999389648438</ele>
        <time>2012-12-09T10:07:44Z</time>
      </trkpt>
      <trkpt lat="45.774162719026208" lon="8.92034187912941">
        <ele>410.39999389648438</ele>
        <time>2012-12-09T10:07:47Z</time>
      </trkpt>
      <trkpt lat="45.774219296872616" lon="8.920320756733418">
        <ele>410.39999389648438</ele>
        <time>2012-12-09T10:07:50Z</time>
      </trkpt>
      <trkpt lat="45.774235893040895" lon="8.920315224677324">
        <ele>410.39999389648438</ele>
        <time>2012-12-09T10:07:51Z</time>
      </trkpt>
      <trkpt lat="45.774324657395482" lon="8.920272560790181">
        <ele>410.20001220703125</ele>
        <time>2012-12-09T10:07:55Z</time>
      </trkpt>
      <trkpt lat="45.774468742311001" lon="8.920181784778833">
        <ele>409.79998779296875</ele>
        <time>2012-12-09T10:08:02Z</time>
      </trkpt>
      <trkpt lat="45.774636548012495" lon="8.920115567743778">
        <ele>409.60000610351562</ele>
        <time>2012-12-09T10:08:09Z</time>
      </trkpt>
      <trkpt lat="45.774786416441202" lon="8.920045830309391">
        <ele>409.39999389648437</ele>
        <time>2012-12-09T10:08:16Z</time>
      </trkpt>
      <trkpt lat="45.774939386174083" lon="8.91999545507133">
        <ele>409</ele>
        <time>2012-12-09T10:08:23Z</time>
      </trkpt>
      <trkpt lat="45.775064779445529" lon="8.919934099540114">
        <ele>409.20001220703125</ele>
        <time>2012-12-09T10:08:30Z</time>
      </trkpt>
      <trkpt lat="45.775195956230164" lon="8.919876432046294">
        <ele>409.39999389648437</ele>
        <time>2012-12-09T10:08:36Z</time>
      </trkpt>
      <trkpt lat="45.775382956489921" lon="8.919821949675679">
        <ele>409.79998779296875</ele>
        <time>2012-12-09T10:08:43Z</time>
      </trkpt>
      <trkpt lat="45.775557970628142" lon="8.91977459192276">
        <ele>410</ele>
        <time>2012-12-09T10:08:49Z</time>
      </trkpt>
      <trkpt lat="45.775673808529973" lon="8.919747686013579">
        <ele>410</ele>
        <time>2012-12-09T10:08:54Z</time>
      </trkpt>
      <trkpt lat="45.775884361937642" lon="8.91973352059722">
        <ele>410.20001220703125</ele>
        <time>2012-12-09T10:09:01Z</time>
      </trkpt>
      <trkpt lat="45.776001960039139" lon="8.919814322143793">
        <ele>410.20001220703125</ele>
        <time>2012-12-09T10:09:06Z</time>
      </trkpt>
      <trkpt lat="45.776139842346311" lon="8.91994901932776">
        <ele>410.39999389648438</ele>
        <time>2012-12-09T10:09:13Z</time>
      </trkpt>
      <trkpt lat="45.776270683854818" lon="8.920046165585518">
        <ele>410.39999389648438</ele>
        <time>2012-12-09T10:09:19Z</time>
      </trkpt>
      <trkpt lat="45.776408482342958" lon="8.920090589672327">
        <ele>410.20001220703125</ele>
        <time>2012-12-09T10:09:26Z</time>
      </trkpt>
      <trkpt lat="45.776419714093208" lon="8.920105509459972">
        <ele>410.20001220703125</ele>
        <time>2012-12-09T10:09:30Z</time>
      </trkpt>
      <trkpt lat="45.776476040482521" lon="8.920086231082678">
        <ele>410</ele>
        <time>2012-12-09T10:11:17Z</time>
      </trkpt>
      <trkpt lat="45.776458187028766" lon="8.920091427862644">
        <ele>410</ele>
        <time>2012-12-09T10:11:30Z</time>
      </trkpt>
      <trkpt lat="45.776484673842788" lon="8.920156806707382">
        <ele>410</ele>
        <time>2012-12-09T10:24:24Z</time>
      </trkpt>
      <trkpt lat="45.776479141786695" lon="8.920162171125412">
        <ele>410</ele>
        <time>2012-12-09T10:24:30Z</time>
      </trkpt>
      <trkpt lat="45.776469251140952" lon="8.920108946040273">
        <ele>410</ele>
        <time>2012-12-09T10:24:48Z</time>
      </trkpt>
      <trkpt lat="45.776484590023756" lon="8.920083129778504">
        <ele>410</ele>
        <time>2012-12-09T10:24:54Z</time>
      </trkpt>
      <trkpt lat="45.776513675227761" lon="8.919985815882683">
        <ele>410</ele>
        <time>2012-12-09T10:25:00Z</time>
      </trkpt>
      <trkpt lat="45.776581903919578" lon="8.919875426217914">
        <ele>409.79998779296875</ele>
        <time>2012-12-09T10:25:05Z</time>
      </trkpt>
      <trkpt lat="45.776714254170656" lon="8.919828571379185">
        <ele>409.79998779296875</ele>
        <time>2012-12-09T10:25:11Z</time>
      </trkpt>
      <trkpt lat="45.776969734579325" lon="8.919848017394543">
        <ele>410.39999389648438</ele>
        <time>2012-12-09T10:25:21Z</time>
      </trkpt>
      <trkpt lat="45.777274835854769" lon="8.91985178925097">
        <ele>411.20001220703125</ele>
        <time>2012-12-09T10:25:32Z</time>
      </trkpt>
      <trkpt lat="45.777590917423368" lon="8.919866541400552">
        <ele>412</ele>
        <time>2012-12-09T10:25:43Z</time>
      </trkpt>
      <trkpt lat="45.777903394773602" lon="8.919904762879014">
        <ele>412.79998779296875</ele>
        <time>2012-12-09T10:25:54Z</time>
      </trkpt>
      <trkpt lat="45.778140602633357" lon="8.919938458129764">
        <ele>413.39999389648437</ele>
        <time>2012-12-09T10:26:03Z</time>
      </trkpt>
      <trkpt lat="45.778459366410971" lon="8.920014733448625">
        <ele>414.39999389648437</ele>
        <time>2012-12-09T10:26:14Z</time>
      </trkpt>
      <trkpt lat="45.778774442151189" lon="8.920148257166147">
        <ele>415.20001220703125</ele>
        <time>2012-12-09T10:26:25Z</time>
      </trkpt>
      <trkpt lat="45.778817776590586" lon="8.920265687629581">
        <ele>415.20001220703125</ele>
        <time>2012-12-09T10:26:29Z</time>
      </trkpt>
      <trkpt lat="45.778760528191924" lon="8.920373395085335">
        <ele>415</ele>
        <time>2012-12-09T10:26:34Z</time>
      </trkpt>
      <trkpt lat="45.778648462146521" lon="8.920569028705359">
        <ele>414.60000610351562</ele>
        <time>2012-12-09T10:26:43Z</time>
      </trkpt>
      <trkpt lat="45.778530025854707" lon="8.920866586267948">
        <ele>414</ele>
        <time>2012-12-09T10:26:54Z</time>
      </trkpt>
      <trkpt lat="45.778526589274406" lon="8.920903047546744">
        <ele>414</ele>
        <time>2012-12-09T10:26:57Z</time>
      </trkpt>
      <trkpt lat="45.778529522940516" lon="8.920919392257929">
        <ele>414</ele>
        <time>2012-12-09T10:26:58Z</time>
      </trkpt>
      <trkpt lat="45.778548968955874" lon="8.920881003141403">
        <ele>414</ele>
        <time>2012-12-09T10:27:03Z</time>
      </trkpt>
      <trkpt lat="45.778582580387592" lon="8.920748233795166">
        <ele>414.20001220703125</ele>
        <time>2012-12-09T10:27:08Z</time>
      </trkpt>
      <trkpt lat="45.778594817966223" lon="8.920717388391495">
        <ele>414.39999389648437</ele>
        <time>2012-12-09T10:27:09Z</time>
      </trkpt>
      <trkpt lat="45.778688862919807" lon="8.920483700931072">
        <ele>414.60000610351562</ele>
        <time>2012-12-09T10:27:17Z</time>
      </trkpt>
      <trkpt lat="45.778830517083406" lon="8.920239955186844">
        <ele>415.39999389648437</ele>
        <time>2012-12-09T10:27:26Z</time>
      </trkpt>
      <trkpt lat="45.77901785261929" lon="8.920019343495369">
        <ele>416.39999389648437</ele>
        <time>2012-12-09T10:27:35Z</time>
      </trkpt>
      <trkpt lat="45.779194962233305" lon="8.919821614399552">
        <ele>416.60000610351562</ele>
        <time>2012-12-09T10:27:44Z</time>
      </trkpt>
      <trkpt lat="45.779384979978204" lon="8.919643750414252">
        <ele>416.39999389648437</ele>
        <time>2012-12-09T10:27:53Z</time>
      </trkpt>
      <trkpt lat="45.779495788738132" lon="8.919471250846982">
        <ele>416.20001220703125</ele>
        <time>2012-12-09T10:27:59Z</time>
      </trkpt>
      <trkpt lat="45.779657391831279" lon="8.919204454869032">
        <ele>416</ele>
        <time>2012-12-09T10:28:06Z</time>
      </trkpt>
      <trkpt lat="45.779784629121423" lon="8.919140417128801">
        <ele>416</ele>
        <time>2012-12-09T10:28:10Z</time>
      </trkpt>
      <trkpt lat="45.779837351292372" lon="8.91917260363698">
        <ele>416</ele>
        <time>2012-12-09T10:28:12Z</time>
      </trkpt>
      <trkpt lat="45.779882948845625" lon="8.919241838157177">
        <ele>416</ele>
        <time>2012-12-09T10:28:14Z</time>
      </trkpt>
      <trkpt lat="45.780050838366151" lon="8.9195341989398">
        <ele>416.39999389648437</ele>
        <time>2012-12-09T10:28:23Z</time>
      </trkpt>
      <trkpt lat="45.780245130881667" lon="8.919879952445626">
        <ele>417.60000610351562</ele>
        <time>2012-12-09T10:28:33Z</time>
      </trkpt>
      <trkpt lat="45.780504299327731" lon="8.920355290174484">
        <ele>418.79998779296875</ele>
        <time>2012-12-09T10:28:45Z</time>
      </trkpt>
      <trkpt lat="45.780736058950424" lon="8.920762902125716">
        <ele>419.60000610351562</ele>
        <time>2012-12-09T10:28:55Z</time>
      </trkpt>
      <trkpt lat="45.780957005918026" lon="8.921152828261256">
        <ele>421</ele>
        <time>2012-12-09T10:29:05Z</time>
      </trkpt>
      <trkpt lat="45.78110477887094" lon="8.921398166567087">
        <ele>422</ele>
        <time>2012-12-09T10:29:12Z</time>
      </trkpt>
      <trkpt lat="45.781420776620507" lon="8.921816423535347">
        <ele>423.79998779296875</ele>
        <time>2012-12-09T10:29:25Z</time>
      </trkpt>
      <trkpt lat="45.781647842377424" lon="8.922113813459873">
        <ele>425.39999389648437</ele>
        <time>2012-12-09T10:29:34Z</time>
      </trkpt>
      <trkpt lat="45.781937940046191" lon="8.922445820644498">
        <ele>428</ele>
        <time>2012-12-09T10:29:45Z</time>
      </trkpt>
      <trkpt lat="45.782158384099603" lon="8.922698451206088">
        <ele>430</ele>
        <time>2012-12-09T10:29:53Z</time>
      </trkpt>
      <trkpt lat="45.782292075455189" lon="8.922849157825112">
        <ele>431</ele>
        <time>2012-12-09T10:29:58Z</time>
      </trkpt>
      <trkpt lat="45.7824348192662" lon="8.923038337379694">
        <ele>432</ele>
        <time>2012-12-09T10:30:05Z</time>
      </trkpt>
      <trkpt lat="45.782591560855508" lon="8.923236569389701">
        <ele>433</ele>
        <time>2012-12-09T10:30:13Z</time>
      </trkpt>
      <trkpt lat="45.782739585265517" lon="8.923449302092195">
        <ele>433.60000610351562</ele>
        <time>2012-12-09T10:30:21Z</time>
      </trkpt>
      <trkpt lat="45.782804796472192" lon="8.923676200211048">
        <ele>433.79998779296875</ele>
        <time>2012-12-09T10:30:29Z</time>
      </trkpt>
      <trkpt lat="45.782717205584049" lon="8.923822548240423">
        <ele>433.79998779296875</ele>
        <time>2012-12-09T10:30:34Z</time>
      </trkpt>
      <trkpt lat="45.782692478969693" lon="8.923851130530238">
        <ele>433.60000610351562</ele>
        <time>2012-12-09T10:30:35Z</time>
      </trkpt>
      <trkpt lat="45.78254378400743" lon="8.924032598733902">
        <ele>433.79998779296875</ele>
        <time>2012-12-09T10:30:41Z</time>
      </trkpt>
      <trkpt lat="45.782342618331313" lon="8.924259580671787">
        <ele>434</ele>
        <time>2012-12-09T10:30:48Z</time>
      </trkpt>
      <trkpt lat="45.782183026894927" lon="8.924422776326537">
        <ele>434</ele>
        <time>2012-12-09T10:30:53Z</time>
      </trkpt>
      <trkpt lat="45.781984459608793" lon="8.92461396753788">
        <ele>434</ele>
        <time>2012-12-09T10:30:59Z</time>
      </trkpt>
      <trkpt lat="45.781710119917989" lon="8.924897192046046">
        <ele>433.79998779296875</ele>
        <time>2012-12-09T10:31:07Z</time>
      </trkpt>
      <trkpt lat="45.781425470486283" lon="8.925213441252708">
        <ele>433.39999389648437</ele>
        <time>2012-12-09T10:31:15Z</time>
      </trkpt>
      <trkpt lat="45.781099498271942" lon="8.925562212243676">
        <ele>433</ele>
        <time>2012-12-09T10:31:24Z</time>
      </trkpt>
      <trkpt lat="45.780838569626212" lon="8.925844933837652">
        <ele>433</ele>
        <time>2012-12-09T10:31:32Z</time>
      </trkpt>
      <trkpt lat="45.780520476400852" lon="8.926178868860006">
        <ele>433.39999389648437</ele>
        <time>2012-12-09T10:31:42Z</time>
      </trkpt>
      <trkpt lat="45.780317550525069" lon="8.92643753439188">
        <ele>433.39999389648437</ele>
        <time>2012-12-09T10:31:49Z</time>
      </trkpt>
      <trkpt lat="45.780111020430923" lon="8.926659487187862">
        <ele>433.20001220703125</ele>
        <time>2012-12-09T10:31:56Z</time>
      </trkpt>
      <trkpt lat="45.779945394024253" lon="8.926834585145116">
        <ele>432.79998779296875</ele>
        <time>2012-12-09T10:32:02Z</time>
      </trkpt>
      <trkpt lat="45.779682453721762" lon="8.927109343931079">
        <ele>432.39999389648437</ele>
        <time>2012-12-09T10:32:10Z</time>
      </trkpt>
      <trkpt lat="45.77940383926034" lon="8.927429364994168">
        <ele>432.20001220703125</ele>
        <time>2012-12-09T10:32:18Z</time>
      </trkpt>
      <trkpt lat="45.77923234552145" lon="8.92762927338481">
        <ele>432</ele>
        <time>2012-12-09T10:32:24Z</time>
      </trkpt>
      <trkpt lat="45.779103180393577" lon="8.927724491804838">
        <ele>431.60000610351562</ele>
        <time>2012-12-09T10:32:29Z</time>
      </trkpt>
      <trkpt lat="45.779045345261693" lon="8.927748631685972">
        <ele>431.39999389648437</ele>
        <time>2012-12-09T10:32:34Z</time>
      </trkpt>
      <trkpt lat="45.779124973341823" lon="8.92782281152904">
        <ele>431.79998779296875</ele>
        <time>2012-12-09T10:34:02Z</time>
      </trkpt>
      <trkpt lat="45.779273416846991" lon="8.927869582548738">
        <ele>432</ele>
        <time>2012-12-09T10:34:08Z</time>
      </trkpt>
      <trkpt lat="45.779419848695397" lon="8.927746536210179">
        <ele>432.20001220703125</ele>
        <time>2012-12-09T10:34:13Z</time>
      </trkpt>
      <trkpt lat="45.779609614983201" lon="8.927698507905006">
        <ele>432.60000610351562</ele>
        <time>2012-12-09T10:34:19Z</time>
      </trkpt>
      <trkpt lat="45.779834166169167" lon="8.927765227854252">
        <ele>433</ele>
        <time>2012-12-09T10:34:26Z</time>
      </trkpt>
      <trkpt lat="45.780096352100372" lon="8.927849046885967">
        <ele>433.39999389648437</ele>
        <time>2012-12-09T10:34:34Z</time>
      </trkpt>
      <trkpt lat="45.780359543859959" lon="8.927970584481955">
        <ele>433.39999389648437</ele>
        <time>2012-12-09T10:34:42Z</time>
      </trkpt>
      <trkpt lat="45.780501281842589" lon="8.92811693251133">
        <ele>433.39999389648437</ele>
        <time>2012-12-09T10:34:47Z</time>
      </trkpt>
      <trkpt lat="45.780456522479653" lon="8.928350284695625">
        <ele>433.39999389648437</ele>
        <time>2012-12-09T10:34:51Z</time>
      </trkpt>
      <trkpt lat="45.780443530529737" lon="8.928399067372084">
        <ele>433.39999389648437</ele>
        <time>2012-12-09T10:34:52Z</time>
      </trkpt>
      <trkpt lat="45.780331548303366" lon="8.928763931617141">
        <ele>434</ele>
        <time>2012-12-09T10:34:58Z</time>
      </trkpt>
      <trkpt lat="45.780168520286679" lon="8.929271288216114">
        <ele>434.60000610351562</ele>
        <time>2012-12-09T10:35:06Z</time>
      </trkpt>
      <trkpt lat="45.779950087890029" lon="8.92966297455132">
        <ele>434.20001220703125</ele>
        <time>2012-12-09T10:35:13Z</time>
      </trkpt>
      <trkpt lat="45.77978789806366" lon="8.929867995902896">
        <ele>433.60000610351562</ele>
        <time>2012-12-09T10:35:17Z</time>
      </trkpt>
      <trkpt lat="45.779698714613914" lon="8.929944522678852">
        <ele>433.20001220703125</ele>
        <time>2012-12-09T10:35:19Z</time>
      </trkpt>
      <trkpt lat="45.779733583331108" lon="8.930094977840781">
        <ele>432.79998779296875</ele>
        <time>2012-12-09T10:35:22Z</time>
      </trkpt>
      <trkpt lat="45.77984363771975" lon="8.930219449102879">
        <ele>432.20001220703125</ele>
        <time>2012-12-09T10:35:25Z</time>
      </trkpt>
      <trkpt lat="45.779884625226259" lon="8.93027326092124">
        <ele>432</ele>
        <time>2012-12-09T10:35:26Z</time>
      </trkpt>
      <trkpt lat="45.77995696105063" lon="8.930372837930918">
        <ele>431.60000610351562</ele>
        <time>2012-12-09T10:35:28Z</time>
      </trkpt>
      <trkpt lat="45.780155109241605" lon="8.930639550089836">
        <ele>430</ele>
        <time>2012-12-09T10:35:33Z</time>
      </trkpt>
      <trkpt lat="45.780450068414211" lon="8.931035846471787">
        <ele>429</ele>
        <time>2012-12-09T10:35:41Z</time>
      </trkpt>
      <trkpt lat="45.780617203563452" lon="8.931241203099489">
        <ele>429</ele>
        <time>2012-12-09T10:35:46Z</time>
      </trkpt>
      <trkpt lat="45.780693143606186" lon="8.93130767159164">
        <ele>429</ele>
        <time>2012-12-09T10:35:48Z</time>
      </trkpt>
      <trkpt lat="45.78089464455843" lon="8.931469107046723">
        <ele>429</ele>
        <time>2012-12-09T10:35:54Z</time>
      </trkpt>
      <trkpt lat="45.780905708670616" lon="8.931582178920507">
        <ele>428.79998779296875</ele>
        <time>2012-12-09T10:35:58Z</time>
      </trkpt>
      <trkpt lat="45.780902272090316" lon="8.931621070951223">
        <ele>428.79998779296875</ele>
        <time>2012-12-09T10:35:59Z</time>
      </trkpt>
      <trkpt lat="45.780892129987478" lon="8.931829193606973">
        <ele>427.60000610351562</ele>
        <time>2012-12-09T10:36:03Z</time>
      </trkpt>
      <trkpt lat="45.780911492183805" lon="8.932314673438668">
        <ele>424.39999389648438</ele>
        <time>2012-12-09T10:36:10Z</time>
      </trkpt>
      <trkpt lat="45.78101484104991" lon="8.932887325063348">
        <ele>423.79998779296875</ele>
        <time>2012-12-09T10:36:17Z</time>
      </trkpt>
      <trkpt lat="45.781165296211839" lon="8.93360523506999">
        <ele>424.20001220703125</ele>
        <time>2012-12-09T10:36:26Z</time>
      </trkpt>
      <trkpt lat="45.781294209882617" lon="8.934190878644586">
        <ele>422.79998779296875</ele>
        <time>2012-12-09T10:36:35Z</time>
      </trkpt>
      <trkpt lat="45.781439384445548" lon="8.934839218854904">
        <ele>421.79998779296875</ele>
        <time>2012-12-09T10:36:46Z</time>
      </trkpt>
      <trkpt lat="45.781583972275257" lon="8.935499042272568">
        <ele>421.20001220703125</ele>
        <time>2012-12-09T10:36:57Z</time>
      </trkpt>
      <trkpt lat="45.781736606732011" lon="8.936250396072865">
        <ele>420.79998779296875</ele>
        <time>2012-12-09T10:37:09Z</time>
      </trkpt>
      <trkpt lat="45.781759824603796" lon="8.936375956982374">
        <ele>420.79998779296875</ele>
        <time>2012-12-09T10:37:11Z</time>
      </trkpt>
      <trkpt lat="45.781844314187765" lon="8.936951542273164">
        <ele>421.20001220703125</ele>
        <time>2012-12-09T10:37:21Z</time>
      </trkpt>
      <trkpt lat="45.781943555921316" lon="8.937614886090159">
        <ele>422.79998779296875</ele>
        <time>2012-12-09T10:37:33Z</time>
      </trkpt>
      <trkpt lat="45.782009437680244" lon="8.938149316236377">
        <ele>425.79998779296875</ele>
        <time>2012-12-09T10:37:42Z</time>
      </trkpt>
      <trkpt lat="45.782102225348353" lon="8.938781479373574">
        <ele>427.39999389648438</ele>
        <time>2012-12-09T10:37:52Z</time>
      </trkpt>
      <trkpt lat="45.782159557566047" lon="8.939392771571875">
        <ele>428.39999389648437</ele>
        <time>2012-12-09T10:38:02Z</time>
      </trkpt>
      <trkpt lat="45.782138351351023" lon="8.939746236428618">
        <ele>429</ele>
        <time>2012-12-09T10:38:09Z</time>
      </trkpt>
      <trkpt lat="45.78210256062448" lon="8.940104395151138">
        <ele>429.60000610351562</ele>
        <time>2012-12-09T10:38:17Z</time>
      </trkpt>
      <trkpt lat="45.782016143202782" lon="8.940224004909396">
        <ele>429.79998779296875</ele>
        <time>2012-12-09T10:38:21Z</time>
      </trkpt>
      <trkpt lat="45.781783880665898" lon="8.94036591053009">
        <ele>430</ele>
        <time>2012-12-09T10:38:28Z</time>
      </trkpt>
      <trkpt lat="45.781392026692629" lon="8.940695486962795">
        <ele>430</ele>
        <time>2012-12-09T10:38:40Z</time>
      </trkpt>
      <trkpt lat="45.781034538522363" lon="8.941008718684316">
        <ele>429.20001220703125</ele>
        <time>2012-12-09T10:38:50Z</time>
      </trkpt>
      <trkpt lat="45.780630446970463" lon="8.941284064203501">
        <ele>427</ele>
        <time>2012-12-09T10:39:00Z</time>
      </trkpt>
      <trkpt lat="45.780098615214229" lon="8.941521523520351">
        <ele>424</ele>
        <time>2012-12-09T10:39:12Z</time>
      </trkpt>
      <trkpt lat="45.780054777860641" lon="8.941542394459248">
        <ele>423.79998779296875</ele>
        <time>2012-12-09T10:39:13Z</time>
      </trkpt>
      <trkpt lat="45.779789490625262" lon="8.941693771630526">
        <ele>424</ele>
        <time>2012-12-09T10:39:19Z</time>
      </trkpt>
      <trkpt lat="45.779707599431276" lon="8.941762335598469">
        <ele>424</ele>
        <time>2012-12-09T10:39:21Z</time>
      </trkpt>
      <trkpt lat="45.77935790643096" lon="8.942114040255547">
        <ele>423.79998779296875</ele>
        <time>2012-12-09T10:39:30Z</time>
      </trkpt>
      <trkpt lat="45.778920790180564" lon="8.942552665248513">
        <ele>422.60000610351562</ele>
        <time>2012-12-09T10:39:41Z</time>
      </trkpt>
      <trkpt lat="45.778510747477412" lon="8.942962875589728">
        <ele>422.60000610351562</ele>
        <time>2012-12-09T10:39:51Z</time>
      </trkpt>
      <trkpt lat="45.778069021180272" lon="8.943409379571676">
        <ele>422.39999389648437</ele>
        <time>2012-12-09T10:40:01Z</time>
      </trkpt>
      <trkpt lat="45.777978077530861" lon="8.943497724831104">
        <ele>422.60000610351562</ele>
        <time>2012-12-09T10:40:03Z</time>
      </trkpt>
      <trkpt lat="45.7776496745646" lon="8.943826211616397">
        <ele>423</ele>
        <time>2012-12-09T10:40:11Z</time>
      </trkpt>
      <trkpt lat="45.777409113943577" lon="8.944073393940926">
        <ele>423.20001220703125</ele>
        <time>2012-12-09T10:40:18Z</time>
      </trkpt>
      <trkpt lat="45.777206271886826" lon="8.944280426949263">
        <ele>422.79998779296875</ele>
        <time>2012-12-09T10:40:23Z</time>
      </trkpt>
      <trkpt lat="45.776838725432754" lon="8.944642441347241">
        <ele>422</ele>
        <time>2012-12-09T10:40:32Z</time>
      </trkpt>
      <trkpt lat="45.776393562555313" lon="8.94508458673954">
        <ele>421.20001220703125</ele>
        <time>2012-12-09T10:40:43Z</time>
      </trkpt>
      <trkpt lat="45.776078486815095" lon="8.94549353979528">
        <ele>421</ele>
        <time>2012-12-09T10:40:52Z</time>
      </trkpt>
      <trkpt lat="45.775963151827455" lon="8.945857901126146">
        <ele>421.39999389648437</ele>
        <time>2012-12-09T10:40:58Z</time>
      </trkpt>
      <trkpt lat="45.775938425213099" lon="8.94627783447504">
        <ele>423.20001220703125</ele>
        <time>2012-12-09T10:41:04Z</time>
      </trkpt>
      <trkpt lat="45.776007911190391" lon="8.946723751723766">
        <ele>424.79998779296875</ele>
        <time>2012-12-09T10:41:11Z</time>
      </trkpt>
      <trkpt lat="45.776074295863509" lon="8.947097919881344">
        <ele>424.79998779296875</ele>
        <time>2012-12-09T10:41:17Z</time>
      </trkpt>
      <trkpt lat="45.776063231751323" lon="8.947163382545114">
        <ele>424.79998779296875</ele>
        <time>2012-12-09T10:41:18Z</time>
      </trkpt>
      <trkpt lat="45.775960218161345" lon="8.947271341457963">
        <ele>424.79998779296875</ele>
        <time>2012-12-09T10:41:21Z</time>
      </trkpt>
      <trkpt lat="45.775801297277212" lon="8.947247788310051">
        <ele>425</ele>
        <time>2012-12-09T10:41:25Z</time>
      </trkpt>
      <trkpt lat="45.775383459404111" lon="8.94715391099453">
        <ele>426.60000610351562</ele>
        <time>2012-12-09T10:41:35Z</time>
      </trkpt>
      <trkpt lat="45.775303160771728" lon="8.947151647880673">
        <ele>427</ele>
        <time>2012-12-09T10:41:37Z</time>
      </trkpt>
      <trkpt lat="45.775153459981084" lon="8.947198586538434">
        <ele>427.60000610351562</ele>
        <time>2012-12-09T10:41:41Z</time>
      </trkpt>
      <trkpt lat="45.774873252958059" lon="8.947322219610214">
        <ele>429</ele>
        <time>2012-12-09T10:41:49Z</time>
      </trkpt>
      <trkpt lat="45.774471005424857" lon="8.947537215426564">
        <ele>430.79998779296875</ele>
        <time>2012-12-09T10:42:00Z</time>
      </trkpt>
      <trkpt lat="45.774035649374127" lon="8.947795294225216">
        <ele>434</ele>
        <time>2012-12-09T10:42:11Z</time>
      </trkpt>
      <trkpt lat="45.773832136765122" lon="8.9479601662606">
        <ele>436.79998779296875</ele>
        <time>2012-12-09T10:42:18Z</time>
      </trkpt>
      <trkpt lat="45.773694841191173" lon="8.948091175407171">
        <ele>438.79998779296875</ele>
        <time>2012-12-09T10:42:25Z</time>
      </trkpt>
      <trkpt lat="45.773547068238258" lon="8.948242720216513">
        <ele>441.60000610351562</ele>
        <time>2012-12-09T10:42:31Z</time>
      </trkpt>
      <trkpt lat="45.773370126262307" lon="8.948386637493968">
        <ele>444.39999389648438</ele>
        <time>2012-12-09T10:42:37Z</time>
      </trkpt>
      <trkpt lat="45.773217491805553" lon="8.948511444032192">
        <ele>444.20001220703125</ele>
        <time>2012-12-09T10:42:43Z</time>
      </trkpt>
      <trkpt lat="45.773086817935109" lon="8.948636082932353">
        <ele>443.79998779296875</ele>
        <time>2012-12-09T10:42:49Z</time>
      </trkpt>
      <trkpt lat="45.77294415794313" lon="8.94872535020113">
        <ele>443.60000610351562</ele>
        <time>2012-12-09T10:42:55Z</time>
      </trkpt>
      <trkpt lat="45.77274089679122" lon="8.948883768171072">
        <ele>443.79998779296875</ele>
        <time>2012-12-09T10:43:02Z</time>
      </trkpt>
      <trkpt lat="45.772565295919776" lon="8.949019303545356">
        <ele>444.20001220703125</ele>
        <time>2012-12-09T10:43:07Z</time>
      </trkpt>
      <trkpt lat="45.772239491343498" lon="8.949255254119635">
        <ele>442.20001220703125</ele>
        <time>2012-12-09T10:43:16Z</time>
      </trkpt>
      <trkpt lat="45.772128850221634" lon="8.949322728440166">
        <ele>441</ele>
        <time>2012-12-09T10:43:19Z</time>
      </trkpt>
      <trkpt lat="45.772020556032658" lon="8.949393723160029">
        <ele>440</ele>
        <time>2012-12-09T10:43:22Z</time>
      </trkpt>
      <trkpt lat="45.771735906600952" lon="8.949555242434144">
        <ele>437.79998779296875</ele>
        <time>2012-12-09T10:43:30Z</time>
      </trkpt>
      <trkpt lat="45.771493753418326" lon="8.949633026495576">
        <ele>437.79998779296875</ele>
        <time>2012-12-09T10:43:37Z</time>
      </trkpt>
      <trkpt lat="45.77134195715189" lon="8.949543843045831">
        <ele>438.20001220703125</ele>
        <time>2012-12-09T10:43:42Z</time>
      </trkpt>
      <trkpt lat="45.771229639649391" lon="8.949291128665209">
        <ele>438</ele>
        <time>2012-12-09T10:43:48Z</time>
      </trkpt>
      <trkpt lat="45.771140540018678" lon="8.948903633281589">
        <ele>436.60000610351562</ele>
        <time>2012-12-09T10:43:55Z</time>
      </trkpt>
      <trkpt lat="45.771039454266429" lon="8.948573637753725">
        <ele>434.60000610351562</ele>
        <time>2012-12-09T10:44:02Z</time>
      </trkpt>
      <trkpt lat="45.77087290585041" lon="8.948259484022856">
        <ele>432.60000610351562</ele>
        <time>2012-12-09T10:44:08Z</time>
      </trkpt>
      <trkpt lat="45.770644918084145" lon="8.948015319183469">
        <ele>431.79998779296875</ele>
        <time>2012-12-09T10:44:13Z</time>
      </trkpt>
      <trkpt lat="45.770524805411696" lon="8.947935691103339">
        <ele>431.60000610351562</ele>
        <time>2012-12-09T10:44:15Z</time>
      </trkpt>
      <trkpt lat="45.770330345258117" lon="8.947849189862609">
        <ele>431.39999389648437</ele>
        <time>2012-12-09T10:44:18Z</time>
      </trkpt>
      <trkpt lat="45.770268654450774" lon="8.947835694998503">
        <ele>431.39999389648437</ele>
        <time>2012-12-09T10:44:19Z</time>
      </trkpt>
      <trkpt lat="45.770104452967644" lon="8.947819098830223">
        <ele>431.39999389648437</ele>
        <time>2012-12-09T10:44:22Z</time>
      </trkpt>
      <trkpt lat="45.769748808816075" lon="8.947880202904344">
        <ele>430.60000610351562</ele>
        <time>2012-12-09T10:44:28Z</time>
      </trkpt>
      <trkpt lat="45.769213875755668" lon="8.947991263121367">
        <ele>429.39999389648437</ele>
        <time>2012-12-09T10:44:36Z</time>
      </trkpt>
      <trkpt lat="45.769144641235471" lon="8.947991849854589">
        <ele>429.20001220703125</ele>
        <time>2012-12-09T10:44:37Z</time>
      </trkpt>
      <trkpt lat="45.768704591318965" lon="8.947899900376797">
        <ele>427.39999389648438</ele>
        <time>2012-12-09T10:44:43Z</time>
      </trkpt>
      <trkpt lat="45.768347689881921" lon="8.947675684466958">
        <ele>425.79998779296875</ele>
        <time>2012-12-09T10:44:48Z</time>
      </trkpt>
      <trkpt lat="45.76789129525423" lon="8.94728098064661">
        <ele>423.20001220703125</ele>
        <time>2012-12-09T10:44:55Z</time>
      </trkpt>
      <trkpt lat="45.767422160133719" lon="8.946815868839622">
        <ele>420.79998779296875</ele>
        <time>2012-12-09T10:45:03Z</time>
      </trkpt>
      <trkpt lat="45.767362983897328" lon="8.946755854412913">
        <ele>420.60000610351562</ele>
        <time>2012-12-09T10:45:04Z</time>
      </trkpt>
      <trkpt lat="45.766932321712375" lon="8.946320666000247">
        <ele>421</ele>
        <time>2012-12-09T10:45:12Z</time>
      </trkpt>
      <trkpt lat="45.766502497717738" lon="8.945882376283407">
        <ele>420.79998779296875</ele>
        <time>2012-12-09T10:45:21Z</time>
      </trkpt>
      <trkpt lat="45.7660589274019" lon="8.945435956120491">
        <ele>419.39999389648437</ele>
        <time>2012-12-09T10:45:31Z</time>
      </trkpt>
      <trkpt lat="45.766013413667679" lon="8.945394633337855">
        <ele>419.20001220703125</ele>
        <time>2012-12-09T10:45:32Z</time>
      </trkpt>
      <trkpt lat="45.765809984877706" lon="8.945178044959903">
        <ele>418.39999389648437</ele>
        <time>2012-12-09T10:45:37Z</time>
      </trkpt>
      <trkpt lat="45.765775283798575" lon="8.945126663893461">
        <ele>418.20001220703125</ele>
        <time>2012-12-09T10:45:40Z</time>
      </trkpt>
      <trkpt lat="45.765767404809594" lon="8.945107385516167">
        <ele>418.20001220703125</ele>
        <time>2012-12-09T10:45:41Z</time>
      </trkpt>
      <trkpt lat="45.765684340149164" lon="8.944970844313502">
        <ele>417.79998779296875</ele>
        <time>2012-12-09T10:45:47Z</time>
      </trkpt>
      <trkpt lat="45.765606639906764" lon="8.944844277575612">
        <ele>417.39999389648437</ele>
        <time>2012-12-09T10:45:54Z</time>
      </trkpt>
      <trkpt lat="45.765607813373208" lon="8.944849390536547">
        <ele>417.39999389648437</ele>
        <time>2012-12-09T10:46:02Z</time>
      </trkpt>
      <trkpt lat="45.765557438135147" lon="8.944784179329872">
        <ele>417.20001220703125</ele>
        <time>2012-12-09T10:46:07Z</time>
      </trkpt>
      <trkpt lat="45.765434224158525" lon="8.944622576236725">
        <ele>416.60000610351562</ele>
        <time>2012-12-09T10:46:12Z</time>
      </trkpt>
      <trkpt lat="45.765282930806279" lon="8.94439903087914">
        <ele>415.60000610351562</ele>
        <time>2012-12-09T10:46:17Z</time>
      </trkpt>
      <trkpt lat="45.765044214203954" lon="8.944059899076819">
        <ele>413.20001220703125</ele>
        <time>2012-12-09T10:46:23Z</time>
      </trkpt>
      <trkpt lat="45.764734502881765" lon="8.943609958514571">
        <ele>410.39999389648438</ele>
        <time>2012-12-09T10:46:29Z</time>
      </trkpt>
      <trkpt lat="45.764329405501485" lon="8.943062284961343">
        <ele>406.79998779296875</ele>
        <time>2012-12-09T10:46:35Z</time>
      </trkpt>
      <trkpt lat="45.763891451060772" lon="8.942453926429153">
        <ele>403.60000610351562</ele>
        <time>2012-12-09T10:46:41Z</time>
      </trkpt>
      <trkpt lat="45.763825234025717" lon="8.942361054942012">
        <ele>403.60000610351562</ele>
        <time>2012-12-09T10:46:42Z</time>
      </trkpt>
      <trkpt lat="45.763536309823394" lon="8.94198227673769">
        <ele>403.39999389648437</ele>
        <time>2012-12-09T10:46:47Z</time>
      </trkpt>
      <trkpt lat="45.763333886861801" lon="8.941644486039877">
        <ele>402.79998779296875</ele>
        <time>2012-12-09T10:46:52Z</time>
      </trkpt>
      <trkpt lat="45.763289043679833" lon="8.941615568473935">
        <ele>402.79998779296875</ele>
        <time>2012-12-09T10:46:53Z</time>
      </trkpt>
      <trkpt lat="45.763160800561309" lon="8.941657561808825">
        <ele>402.79998779296875</ele>
        <time>2012-12-09T10:46:56Z</time>
      </trkpt>
      <trkpt lat="45.763058457523584" lon="8.941763509064913">
        <ele>403</ele>
        <time>2012-12-09T10:46:59Z</time>
      </trkpt>
      <trkpt lat="45.76298008672893" lon="8.941833414137363">
        <ele>403.20001220703125</ele>
        <time>2012-12-09T10:47:01Z</time>
      </trkpt>
      <trkpt lat="45.762795517221093" lon="8.941996609792113">
        <ele>403.39999389648437</ele>
        <time>2012-12-09T10:47:06Z</time>
      </trkpt>
      <trkpt lat="45.762753272429109" lon="8.9420335739851">
        <ele>403.39999389648437</ele>
        <time>2012-12-09T10:47:07Z</time>
      </trkpt>
      <trkpt lat="45.762444902211428" lon="8.942156955599785">
        <ele>403.20001220703125</ele>
        <time>2012-12-09T10:47:13Z</time>
      </trkpt>
      <trkpt lat="45.762098226696253" lon="8.942336412146688">
        <ele>402.20001220703125</ele>
        <time>2012-12-09T10:47:20Z</time>
      </trkpt>
      <trkpt lat="45.762056484818459" lon="8.942383015528321">
        <ele>402</ele>
        <time>2012-12-09T10:47:21Z</time>
      </trkpt>
      <trkpt lat="45.761946933344007" lon="8.942568087950349">
        <ele>402.39999389648437</ele>
        <time>2012-12-09T10:47:24Z</time>
      </trkpt>
      <trkpt lat="45.76181567274034" lon="8.942944770678878">
        <ele>404.20001220703125</ele>
        <time>2012-12-09T10:47:29Z</time>
      </trkpt>
      <trkpt lat="45.761686591431499" lon="8.943349532783032">
        <ele>406</ele>
        <time>2012-12-09T10:47:34Z</time>
      </trkpt>
      <trkpt lat="45.761660104617476" lon="8.943426730111241">
        <ele>406</ele>
        <time>2012-12-09T10:47:35Z</time>
      </trkpt>
      <trkpt lat="45.761456759646535" lon="8.943823026493192">
        <ele>408</ele>
        <time>2012-12-09T10:47:41Z</time>
      </trkpt>
      <trkpt lat="45.761372521519661" lon="8.94392310641706">
        <ele>408.79998779296875</ele>
        <time>2012-12-09T10:47:43Z</time>
      </trkpt>
      <trkpt lat="45.761238913983107" lon="8.944045230746269">
        <ele>409.79998779296875</ele>
        <time>2012-12-09T10:47:46Z</time>
      </trkpt>
      <trkpt lat="45.761152161285281" lon="8.944089403375983">
        <ele>410.60000610351562</ele>
        <time>2012-12-09T10:47:48Z</time>
      </trkpt>
      <trkpt lat="45.761048309504986" lon="8.944151597097516">
        <ele>411.39999389648437</ele>
        <time>2012-12-09T10:47:51Z</time>
      </trkpt>
      <trkpt lat="45.760990139096975" lon="8.94420213997364">
        <ele>412</ele>
        <time>2012-12-09T10:47:53Z</time>
      </trkpt>
      <trkpt lat="45.76083398424089" lon="8.944314876571298">
        <ele>413.60000610351562</ele>
        <time>2012-12-09T10:47:59Z</time>
      </trkpt>
      <trkpt lat="45.760681685060263" lon="8.94442442804575">
        <ele>414.79998779296875</ele>
        <time>2012-12-09T10:48:05Z</time>
      </trkpt>
      <trkpt lat="45.76057112775743" lon="8.944520819932222">
        <ele>415.60000610351562</ele>
        <time>2012-12-09T10:48:11Z</time>
      </trkpt>
      <trkpt lat="45.760460989549756" lon="8.9446203969419">
        <ele>416.39999389648437</ele>
        <time>2012-12-09T10:48:17Z</time>
      </trkpt>
      <trkpt lat="45.760355377569795" lon="8.944684267044067">
        <ele>416.79998779296875</ele>
        <time>2012-12-09T10:48:23Z</time>
      </trkpt>
      <trkpt lat="45.760235181078315" lon="8.944727014750242">
        <ele>417.20001220703125</ele>
        <time>2012-12-09T10:48:29Z</time>
      </trkpt>
      <trkpt lat="45.760022783651948" lon="8.944793567061424">
        <ele>417.79998779296875</ele>
        <time>2012-12-09T10:48:37Z</time>
      </trkpt>
      <trkpt lat="45.759883895516396" lon="8.944830279797316">
        <ele>417.60000610351562</ele>
        <time>2012-12-09T10:48:42Z</time>
      </trkpt>
      <trkpt lat="45.759717850014567" lon="8.944894652813673">
        <ele>417.20001220703125</ele>
        <time>2012-12-09T10:48:48Z</time>
      </trkpt>
      <trkpt lat="45.759544763714075" lon="8.945007557049394">
        <ele>416.79998779296875</ele>
        <time>2012-12-09T10:48:53Z</time>
      </trkpt>
      <trkpt lat="45.759299173951149" lon="8.945155246183276">
        <ele>416.39999389648437</ele>
        <time>2012-12-09T10:48:59Z</time>
      </trkpt>
      <trkpt lat="45.75904511846602" lon="8.945308048278093">
        <ele>416.60000610351562</ele>
        <time>2012-12-09T10:49:05Z</time>
      </trkpt>
      <trkpt lat="45.758925760164857" lon="8.945369906723499">
        <ele>416.79998779296875</ele>
        <time>2012-12-09T10:49:08Z</time>
      </trkpt>
      <trkpt lat="45.758845042437315" lon="8.94539681263268">
        <ele>416.79998779296875</ele>
        <time>2012-12-09T10:49:10Z</time>
      </trkpt>
      <trkpt lat="45.758806066587567" lon="8.945418102666736">
        <ele>417</ele>
        <time>2012-12-09T10:49:11Z</time>
      </trkpt>
      <trkpt lat="45.758652007207274" lon="8.945519188418984">
        <ele>417.20001220703125</ele>
        <time>2012-12-09T10:49:15Z</time>
      </trkpt>
      <trkpt lat="45.758459139615297" lon="8.945595044642687">
        <ele>417.39999389648437</ele>
        <time>2012-12-09T10:49:19Z</time>
      </trkpt>
      <trkpt lat="45.758349001407623" lon="8.945602923631668">
        <ele>417.39999389648437</ele>
        <time>2012-12-09T10:49:21Z</time>
      </trkpt>
      <trkpt lat="45.75808740220964" lon="8.945718510076404">
        <ele>417.20001220703125</ele>
        <time>2012-12-09T10:49:26Z</time>
      </trkpt>
      <trkpt lat="45.758036524057388" lon="8.945733346045017">
        <ele>417.20001220703125</ele>
        <time>2012-12-09T10:49:27Z</time>
      </trkpt>
      <trkpt lat="45.757832424715161" lon="8.945761090144515">
        <ele>417</ele>
        <time>2012-12-09T10:49:31Z</time>
      </trkpt>
      <trkpt lat="45.757778948172927" lon="8.945782715454698">
        <ele>417</ele>
        <time>2012-12-09T10:49:32Z</time>
      </trkpt>
      <trkpt lat="45.757594043388963" lon="8.945813057944179">
        <ele>417</ele>
        <time>2012-12-09T10:49:35Z</time>
      </trkpt>
      <trkpt lat="45.757524892687798" lon="8.945833509787917">
        <ele>417</ele>
        <time>2012-12-09T10:49:36Z</time>
      </trkpt>
      <trkpt lat="45.757243344560266" lon="8.945884220302105">
        <ele>416.20001220703125</ele>
        <time>2012-12-09T10:49:41Z</time>
      </trkpt>
      <trkpt lat="45.757152987644076" lon="8.945903582498431">
        <ele>416</ele>
        <time>2012-12-09T10:49:43Z</time>
      </trkpt>
      <trkpt lat="45.756983421742916" lon="8.945955382660031">
        <ele>415.60000610351562</ele>
        <time>2012-12-09T10:49:46Z</time>
      </trkpt>
      <trkpt lat="45.756780244410038" lon="8.946035010740161">
        <ele>415.20001220703125</ele>
        <time>2012-12-09T10:49:49Z</time>
      </trkpt>
      <trkpt lat="45.756656527519226" lon="8.946071472018957">
        <ele>414.79998779296875</ele>
        <time>2012-12-09T10:49:51Z</time>
      </trkpt>
      <trkpt lat="45.756586622446775" lon="8.946083039045334">
        <ele>414.79998779296875</ele>
        <time>2012-12-09T10:49:52Z</time>
      </trkpt>
      <trkpt lat="45.756378332152963" lon="8.946128049865365">
        <ele>414.39999389648437</ele>
        <time>2012-12-09T10:49:55Z</time>
      </trkpt>
      <trkpt lat="45.756312785670161" lon="8.946158224716783">
        <ele>414.20001220703125</ele>
        <time>2012-12-09T10:49:56Z</time>
      </trkpt>
      <trkpt lat="45.756128635257483" lon="8.9462074264884">
        <ele>413.79998779296875</ele>
        <time>2012-12-09T10:49:59Z</time>
      </trkpt>
      <trkpt lat="45.756073482334614" lon="8.946227040141821">
        <ele>413.79998779296875</ele>
        <time>2012-12-09T10:50:00Z</time>
      </trkpt>
      <trkpt lat="45.75582604855299" lon="8.946276074275374">
        <ele>413.39999389648437</ele>
        <time>2012-12-09T10:50:04Z</time>
      </trkpt>
      <trkpt lat="45.755522456020117" lon="8.946320917457342">
        <ele>412.20001220703125</ele>
        <time>2012-12-09T10:50:09Z</time>
      </trkpt>
      <trkpt lat="45.755267729982734" lon="8.946362743154168">
        <ele>411</ele>
        <time>2012-12-09T10:50:13Z</time>
      </trkpt>
      <trkpt lat="45.755219198763371" lon="8.946410184726119">
        <ele>410.79998779296875</ele>
        <time>2012-12-09T10:50:14Z</time>
      </trkpt>
      <trkpt lat="45.755000934004784" lon="8.946440191939473">
        <ele>410</ele>
        <time>2012-12-09T10:50:18Z</time>
      </trkpt>
      <trkpt lat="45.754942260682583" lon="8.946426529437304">
        <ele>409.79998779296875</ele>
        <time>2012-12-09T10:50:19Z</time>
      </trkpt>
      <trkpt lat="45.75477646663785" lon="8.946464750915766">
        <ele>409.79998779296875</ele>
        <time>2012-12-09T10:50:22Z</time>
      </trkpt>
      <trkpt lat="45.75453657656908" lon="8.946530381217599">
        <ele>409.79998779296875</ele>
        <time>2012-12-09T10:50:26Z</time>
      </trkpt>
      <trkpt lat="45.754467844963074" lon="8.946526609361172">
        <ele>409.60000610351562</ele>
        <time>2012-12-09T10:50:27Z</time>
      </trkpt>
      <trkpt lat="45.754305571317673" lon="8.946526860818267">
        <ele>409.60000610351562</ele>
        <time>2012-12-09T10:50:31Z</time>
      </trkpt>
      <trkpt lat="45.754282604902983" lon="8.946511689573526">
        <ele>409.60000610351562</ele>
        <time>2012-12-09T10:50:32Z</time>
      </trkpt>
      <trkpt lat="45.754191493615508" lon="8.946453686803579">
        <ele>409.39999389648437</ele>
        <time>2012-12-09T10:50:35Z</time>
      </trkpt>
      <trkpt lat="45.754140699282289" lon="8.946399204432964">
        <ele>409.20001220703125</ele>
        <time>2012-12-09T10:50:37Z</time>
      </trkpt>
      <trkpt lat="45.754099544137716" lon="8.946320414543152">
        <ele>408.79998779296875</ele>
        <time>2012-12-09T10:50:39Z</time>
      </trkpt>
      <trkpt lat="45.753899132832885" lon="8.946172725409269">
        <ele>407.20001220703125</ele>
        <time>2012-12-09T10:50:44Z</time>
      </trkpt>
      <trkpt lat="45.753822270780802" lon="8.946113465353847">
        <ele>406.60000610351562</ele>
        <time>2012-12-09T10:50:46Z</time>
      </trkpt>
      <trkpt lat="45.753711797297001" lon="8.946043560281396">
        <ele>405.79998779296875</ele>
        <time>2012-12-09T10:50:48Z</time>
      </trkpt>
      <trkpt lat="45.753619344905019" lon="8.945983210578561">
        <ele>405</ele>
        <time>2012-12-09T10:50:50Z</time>
      </trkpt>
      <trkpt lat="45.75352462939918" lon="8.945979606360197">
        <ele>404.60000610351562</ele>
        <time>2012-12-09T10:50:52Z</time>
      </trkpt>
      <trkpt lat="45.753347771242261" lon="8.946000058203936">
        <ele>403.60000610351562</ele>
        <time>2012-12-09T10:50:56Z</time>
      </trkpt>
      <trkpt lat="45.753302425146103" lon="8.946008943021298">
        <ele>403.39999389648437</ele>
        <time>2012-12-09T10:50:57Z</time>
      </trkpt>
      <trkpt lat="45.753109473735094" lon="8.945990335196257">
        <ele>403.20001220703125</ele>
        <time>2012-12-09T10:51:01Z</time>
      </trkpt>
      <trkpt lat="45.752934375777841" lon="8.945770813152194">
        <ele>402.39999389648437</ele>
        <time>2012-12-09T10:51:05Z</time>
      </trkpt>
      <trkpt lat="45.752876959741116" lon="8.94554240629077">
        <ele>402.79998779296875</ele>
        <time>2012-12-09T10:51:08Z</time>
      </trkpt>
      <trkpt lat="45.752869918942451" lon="8.945468561723828">
        <ele>402.79998779296875</ele>
        <time>2012-12-09T10:51:09Z</time>
      </trkpt>
      <trkpt lat="45.752838905900717" lon="8.945323303341866">
        <ele>403</ele>
        <time>2012-12-09T10:51:11Z</time>
      </trkpt>
      <trkpt lat="45.752795739099383" lon="8.945292541757226">
        <ele>403</ele>
        <time>2012-12-09T10:51:13Z</time>
      </trkpt>
      <trkpt lat="45.752745196223259" lon="8.945338809862733">
        <ele>403</ele>
        <time>2012-12-09T10:51:17Z</time>
      </trkpt>
      <trkpt lat="45.752737484872341" lon="8.94533378072083">
        <ele>403</ele>
        <time>2012-12-09T10:51:18Z</time>
      </trkpt>
      <trkpt lat="45.752724828198552" lon="8.945322968065739">
        <ele>403</ele>
        <time>2012-12-09T10:51:19Z</time>
      </trkpt>
      <trkpt lat="45.752725331112742" lon="8.945298241451383">
        <ele>403.20001220703125</ele>
        <time>2012-12-09T10:51:21Z</time>
      </trkpt>
      <trkpt lat="45.752701610326767" lon="8.945267563685775">
        <ele>403.20001220703125</ele>
        <time>2012-12-09T10:51:23Z</time>
      </trkpt>
      <trkpt lat="45.752685181796551" lon="8.945215009152889">
        <ele>403.20001220703125</ele>
        <time>2012-12-09T10:51:26Z</time>
      </trkpt>
      <trkpt lat="45.752642937004566" lon="8.945158263668418">
        <ele>403.39999389648437</ele>
        <time>2012-12-09T10:51:31Z</time>
      </trkpt>
      <trkpt lat="45.752592980861664" lon="8.945132531225681">
        <ele>403.60000610351562</ele>
        <time>2012-12-09T10:51:36Z</time>
      </trkpt>
      <trkpt lat="45.75254688039422" lon="8.945114426314831">
        <ele>403.60000610351562</ele>
        <time>2012-12-09T10:51:40Z</time>
      </trkpt>
      <trkpt lat="45.752506647258997" lon="8.945108475163579">
        <ele>403.60000610351562</ele>
        <time>2012-12-09T10:51:42Z</time>
      </trkpt>
      <trkpt lat="45.752455350011587" lon="8.945133117958903">
        <ele>403.39999389648437</ele>
        <time>2012-12-09T10:51:45Z</time>
      </trkpt>
      <trkpt lat="45.752390474081039" lon="8.94516228698194">
        <ele>403.20001220703125</ele>
        <time>2012-12-09T10:51:48Z</time>
      </trkpt>
      <trkpt lat="45.752283353358507" lon="8.945154072716832">
        <ele>403</ele>
        <time>2012-12-09T10:51:53Z</time>
      </trkpt>
      <trkpt lat="45.752126192674041" lon="8.945141332224011">
        <ele>402.60000610351562</ele>
        <time>2012-12-09T10:52:00Z</time>
      </trkpt>
      <trkpt lat="45.752102304250002" lon="8.94515834748745">
        <ele>402.60000610351562</ele>
        <time>2012-12-09T10:52:01Z</time>
      </trkpt>
      <trkpt lat="45.752003649249673" lon="8.945193719118834">
        <ele>402.20001220703125</ele>
        <time>2012-12-09T10:52:05Z</time>
      </trkpt>
      <trkpt lat="45.751851936802268" lon="8.945248369127512">
        <ele>401.79998779296875</ele>
        <time>2012-12-09T10:52:11Z</time>
      </trkpt>
      <trkpt lat="45.751737104728818" lon="8.945297738537192">
        <ele>401.39999389648437</ele>
        <time>2012-12-09T10:52:15Z</time>
      </trkpt>
      <trkpt lat="45.75153149664402" lon="8.945310479030013">
        <ele>400</ele>
        <time>2012-12-09T10:52:21Z</time>
      </trkpt>
      <trkpt lat="45.751325218006968" lon="8.945353226736188">
        <ele>398.20001220703125</ele>
        <time>2012-12-09T10:52:26Z</time>
      </trkpt>
      <trkpt lat="45.751161854714155" lon="8.945301761850715">
        <ele>397</ele>
        <time>2012-12-09T10:52:29Z</time>
      </trkpt>
      <trkpt lat="45.751058170571923" lon="8.945265803486109">
        <ele>396.20001220703125</ele>
        <time>2012-12-09T10:52:31Z</time>
      </trkpt>
      <trkpt lat="45.750757092610002" lon="8.945186678320169">
        <ele>394.20001220703125</ele>
        <time>2012-12-09T10:52:37Z</time>
      </trkpt>
      <trkpt lat="45.750599848106503" lon="8.945173015818">
        <ele>394</ele>
        <time>2012-12-09T10:52:41Z</time>
      </trkpt>
      <trkpt lat="45.750523740425706" lon="8.945195060223341">
        <ele>393.60000610351562</ele>
        <time>2012-12-09T10:52:43Z</time>
      </trkpt>
      <trkpt lat="45.750431455671787" lon="8.945208387449384">
        <ele>393.39999389648438</ele>
        <time>2012-12-09T10:52:45Z</time>
      </trkpt>
      <trkpt lat="45.750285862013698" lon="8.945127837359905">
        <ele>393.20001220703125</ele>
        <time>2012-12-09T10:52:48Z</time>
      </trkpt>
      <trkpt lat="45.750144710764289" lon="8.945120545104146">
        <ele>393</ele>
        <time>2012-12-09T10:52:51Z</time>
      </trkpt>
      <trkpt lat="45.750108417123556" lon="8.945132112130523">
        <ele>392.79998779296875</ele>
        <time>2012-12-09T10:52:52Z</time>
      </trkpt>
      <trkpt lat="45.749924601987004" lon="8.945207884535193">
        <ele>392.20001220703125</ele>
        <time>2012-12-09T10:52:56Z</time>
      </trkpt>
      <trkpt lat="45.749709270894527" lon="8.945297067984939">
        <ele>391.39999389648437</ele>
        <time>2012-12-09T10:53:00Z</time>
      </trkpt>
      <trkpt lat="45.749610867351294" lon="8.945166477933526">
        <ele>391.60000610351562</ele>
        <time>2012-12-09T10:53:03Z</time>
      </trkpt>
      <trkpt lat="45.749387992545962" lon="8.945098584517837">
        <ele>391.20001220703125</ele>
        <time>2012-12-09T10:53:07Z</time>
      </trkpt>
      <trkpt lat="45.749274585396051" lon="8.945107301697135">
        <ele>391</ele>
        <time>2012-12-09T10:53:09Z</time>
      </trkpt>
      <trkpt lat="45.749081969261169" lon="8.945098333060741">
        <ele>390.20001220703125</ele>
        <time>2012-12-09T10:53:13Z</time>
      </trkpt>
      <trkpt lat="45.748991863802075" lon="8.945105792954564">
        <ele>389.79998779296875</ele>
        <time>2012-12-09T10:53:15Z</time>
      </trkpt>
      <trkpt lat="45.748875439167023" lon="8.945123394951224">
        <ele>389.39999389648437</ele>
        <time>2012-12-09T10:53:17Z</time>
      </trkpt>
      <trkpt lat="45.748748956248164" lon="8.945123311132193">
        <ele>388.79998779296875</ele>
        <time>2012-12-09T10:53:19Z</time>
      </trkpt>
      <trkpt lat="45.748574361205101" lon="8.945111157372594">
        <ele>388</ele>
        <time>2012-12-09T10:53:22Z</time>
      </trkpt>
      <trkpt lat="45.748317623510957" lon="8.945101266726852">
        <ele>386.79998779296875</ele>
        <time>2012-12-09T10:53:27Z</time>
      </trkpt>
      <trkpt lat="45.748065076768398" lon="8.945102524012327">
        <ele>386.60000610351562</ele>
        <time>2012-12-09T10:53:32Z</time>
      </trkpt>
      <trkpt lat="45.747991818934679" lon="8.945119455456734">
        <ele>386.60000610351562</ele>
        <time>2012-12-09T10:53:34Z</time>
      </trkpt>
      <trkpt lat="45.747910179197788" lon="8.945154910907149">
        <ele>386.60000610351562</ele>
        <time>2012-12-09T10:53:36Z</time>
      </trkpt>
      <trkpt lat="45.747789479792118" lon="8.945226408541203">
        <ele>386.60000610351562</ele>
        <time>2012-12-09T10:53:40Z</time>
      </trkpt>
      <trkpt lat="45.7477299682796" lon="8.945279298350215">
        <ele>386.60000610351562</ele>
        <time>2012-12-09T10:53:42Z</time>
      </trkpt>
      <trkpt lat="45.747548667714" lon="8.945387173444033">
        <ele>386.79998779296875</ele>
        <time>2012-12-09T10:53:49Z</time>
      </trkpt>
      <trkpt lat="45.747413132339716" lon="8.945480212569237">
        <ele>387.20001220703125</ele>
        <time>2012-12-09T10:53:55Z</time>
      </trkpt>
      <trkpt lat="45.747227808460593" lon="8.94560543820262">
        <ele>387.79998779296875</ele>
        <time>2012-12-09T10:54:02Z</time>
      </trkpt>
      <trkpt lat="45.747001832351089" lon="8.945696717128158">
        <ele>388.60000610351562</ele>
        <time>2012-12-09T10:54:08Z</time>
      </trkpt>
      <trkpt lat="45.746824806556106" lon="8.945842897519469">
        <ele>389.60000610351562</ele>
        <time>2012-12-09T10:54:12Z</time>
      </trkpt>
      <trkpt lat="45.746710896492004" lon="8.945962004363537">
        <ele>390</ele>
        <time>2012-12-09T10:54:15Z</time>
      </trkpt>
      <trkpt lat="45.74660905636847" lon="8.946004752069712">
        <ele>390</ele>
        <time>2012-12-09T10:54:17Z</time>
      </trkpt>
      <trkpt lat="45.746534122154117" lon="8.946063425391913">
        <ele>389.79998779296875</ele>
        <time>2012-12-09T10:54:19Z</time>
      </trkpt>
      <trkpt lat="45.74645365588367" lon="8.946138611063361">
        <ele>389.60000610351562</ele>
        <time>2012-12-09T10:54:21Z</time>
      </trkpt>
      <trkpt lat="45.746294064447284" lon="8.946346063166857">
        <ele>389.39999389648437</ele>
        <time>2012-12-09T10:54:26Z</time>
      </trkpt>
      <trkpt lat="45.746270846575499" lon="8.946369364857674">
        <ele>389.20001220703125</ele>
        <time>2012-12-09T10:54:27Z</time>
      </trkpt>
      <trkpt lat="45.746173616498709" lon="8.946454608812928">
        <ele>389</ele>
        <time>2012-12-09T10:54:30Z</time>
      </trkpt>
      <trkpt lat="45.746035566553473" lon="8.946515880525112">
        <ele>388.60000610351562</ele>
        <time>2012-12-09T10:54:34Z</time>
      </trkpt>
      <trkpt lat="45.745847476646304" lon="8.946684440597892">
        <ele>388</ele>
        <time>2012-12-09T10:54:39Z</time>
      </trkpt>
      <trkpt lat="45.745813613757491" lon="8.946725176647306">
        <ele>388</ele>
        <time>2012-12-09T10:54:40Z</time>
      </trkpt>
      <trkpt lat="45.745731554925442" lon="8.946785107254982">
        <ele>388</ele>
        <time>2012-12-09T10:54:43Z</time>
      </trkpt>
      <trkpt lat="45.745684029534459" lon="8.946793070062995">
        <ele>387.79998779296875</ele>
        <time>2012-12-09T10:54:47Z</time>
      </trkpt>
      <trkpt lat="45.745644383132458" lon="8.946800949051976">
        <ele>387.79998779296875</ele>
        <time>2012-12-09T10:54:51Z</time>
      </trkpt>
      <trkpt lat="45.74560004286468" lon="8.946812096983194">
        <ele>387.79998779296875</ele>
        <time>2012-12-09T10:54:55Z</time>
      </trkpt>
      <trkpt lat="45.745495604351163" lon="8.946860209107399">
        <ele>387.79998779296875</ele>
        <time>2012-12-09T10:55:09Z</time>
      </trkpt>
      <trkpt lat="45.745370462536812" lon="8.94689834676683">
        <ele>387.60000610351562</ele>
        <time>2012-12-09T10:55:14Z</time>
      </trkpt>
      <trkpt lat="45.745176672935486" lon="8.947071600705385">
        <ele>387.60000610351562</ele>
        <time>2012-12-09T10:55:19Z</time>
      </trkpt>
      <trkpt lat="45.745014315471053" lon="8.947235131636262">
        <ele>387.60000610351562</ele>
        <time>2012-12-09T10:55:23Z</time>
      </trkpt>
      <trkpt lat="45.744971986860037" lon="8.947271592915058">
        <ele>387.39999389648438</ele>
        <time>2012-12-09T10:55:24Z</time>
      </trkpt>
      <trkpt lat="45.744895124807954" lon="8.947309898212552">
        <ele>387.20001220703125</ele>
        <time>2012-12-09T10:55:26Z</time>
      </trkpt>
      <trkpt lat="45.744787836447358" lon="8.947352143004537">
        <ele>386.60000610351562</ele>
        <time>2012-12-09T10:55:28Z</time>
      </trkpt>
      <trkpt lat="45.74473075568676" lon="8.947388017550111">
        <ele>386.20001220703125</ele>
        <time>2012-12-09T10:55:29Z</time>
      </trkpt>
      <trkpt lat="45.744566218927503" lon="8.947503436356783">
        <ele>385.39999389648437</ele>
        <time>2012-12-09T10:55:32Z</time>
      </trkpt>
      <trkpt lat="45.744303110986948" lon="8.947690771892667">
        <ele>384</ele>
        <time>2012-12-09T10:55:38Z</time>
      </trkpt>
      <trkpt lat="45.744283245876431" lon="8.9477011654526">
        <ele>383.79998779296875</ele>
        <time>2012-12-09T10:55:39Z</time>
      </trkpt>
      <trkpt lat="45.744243934750557" lon="8.947684485465288">
        <ele>383.60000610351562</ele>
        <time>2012-12-09T10:55:43Z</time>
      </trkpt>
      <trkpt lat="45.74425432831049" lon="8.947656573727727">
        <ele>383.60000610351562</ele>
        <time>2012-12-09T10:55:45Z</time>
      </trkpt>
      <trkpt lat="45.744254663586617" lon="8.947635786607862">
        <ele>383.60000610351562</ele>
        <time>2012-12-09T10:55:46Z</time>
      </trkpt>
      <trkpt lat="45.744253573939204" lon="8.947570826858282">
        <ele>383.60000610351562</ele>
        <time>2012-12-09T10:55:49Z</time>
      </trkpt>
      <trkpt lat="45.744259608909488" lon="8.947549872100353">
        <ele>383.60000610351562</ele>
        <time>2012-12-09T10:55:50Z</time>
      </trkpt>
      <trkpt lat="45.744231948629022" lon="8.947429256513715">
        <ele>383.39999389648437</ele>
        <time>2012-12-09T10:55:54Z</time>
      </trkpt>
      <trkpt lat="45.744221219792962" lon="8.947398494929075">
        <ele>383.39999389648437</ele>
        <time>2012-12-09T10:55:55Z</time>
      </trkpt>
      <trkpt lat="45.744217280298471" lon="8.947298582643271">
        <ele>383.39999389648437</ele>
        <time>2012-12-09T10:55:59Z</time>
      </trkpt>
      <trkpt lat="45.744211077690125" lon="8.947269078344107">
        <ele>383.39999389648437</ele>
        <time>2012-12-09T10:56:00Z</time>
      </trkpt>
      <trkpt lat="45.744209736585617" lon="8.947086939588189">
        <ele>383.60000610351562</ele>
        <time>2012-12-09T10:56:04Z</time>
      </trkpt>
      <trkpt lat="45.744216106832027" lon="8.946967916563153">
        <ele>383.79998779296875</ele>
        <time>2012-12-09T10:56:06Z</time>
      </trkpt>
      <trkpt lat="45.744221722707152" lon="8.946790639311075">
        <ele>384</ele>
        <time>2012-12-09T10:56:09Z</time>
      </trkpt>
      <trkpt lat="45.744172688573599" lon="8.94655485637486">
        <ele>384</ele>
        <time>2012-12-09T10:56:14Z</time>
      </trkpt>
      <trkpt lat="45.744120720773935" lon="8.946269201114774">
        <ele>383.79998779296875</ele>
        <time>2012-12-09T10:56:19Z</time>
      </trkpt>
      <trkpt lat="45.744057856500149" lon="8.94612779840827">
        <ele>383.60000610351562</ele>
        <time>2012-12-09T10:56:21Z</time>
      </trkpt>
      <trkpt lat="45.743997506797314" lon="8.946016822010279">
        <ele>383.60000610351562</ele>
        <time>2012-12-09T10:56:23Z</time>
      </trkpt>
      <trkpt lat="45.743974037468433" lon="8.945958986878395">
        <ele>383.60000610351562</ele>
        <time>2012-12-09T10:56:24Z</time>
      </trkpt>
      <trkpt lat="45.743869096040726" lon="8.945760251954198">
        <ele>383.60000610351562</ele>
        <time>2012-12-09T10:56:28Z</time>
      </trkpt>
      <trkpt lat="45.743844704702497" lon="8.945716498419642">
        <ele>383.60000610351562</ele>
        <time>2012-12-09T10:56:29Z</time>
      </trkpt>
      <trkpt lat="45.74379357509315" lon="8.945635110139847">
        <ele>383.60000610351562</ele>
        <time>2012-12-09T10:56:31Z</time>
      </trkpt>
      <trkpt lat="45.743734482675791" lon="8.945502927526832">
        <ele>383.79998779296875</ele>
        <time>2012-12-09T10:56:34Z</time>
      </trkpt>
      <trkpt lat="45.743713360279799" lon="8.945453222841024">
        <ele>383.79998779296875</ele>
        <time>2012-12-09T10:56:35Z</time>
      </trkpt>
      <trkpt lat="45.743626775220037" lon="8.945296062156558">
        <ele>383.79998779296875</ele>
        <time>2012-12-09T10:56:39Z</time>
      </trkpt>
      <trkpt lat="45.743589224293828" lon="8.945222636684775">
        <ele>384</ele>
        <time>2012-12-09T10:56:42Z</time>
      </trkpt>
      <trkpt lat="45.743586290627718" lon="8.945201095193625">
        <ele>384</ele>
        <time>2012-12-09T10:56:43Z</time>
      </trkpt>
      <trkpt lat="45.743607077747583" lon="8.945003617554903">
        <ele>384.20001220703125</ele>
        <time>2012-12-09T10:56:47Z</time>
      </trkpt>
      <trkpt lat="45.743691148236394" lon="8.944684267044067">
        <ele>384</ele>
        <time>2012-12-09T10:56:52Z</time>
      </trkpt>
      <trkpt lat="45.743706654757261" lon="8.9443682692945">
        <ele>383.60000610351562</ele>
        <time>2012-12-09T10:56:57Z</time>
      </trkpt>
      <trkpt lat="45.743686370551586" lon="8.944197278469801">
        <ele>383.39999389648437</ele>
        <time>2012-12-09T10:57:00Z</time>
      </trkpt>
      <trkpt lat="45.743671283125877" lon="8.94415327347815">
        <ele>383.39999389648437</ele>
        <time>2012-12-09T10:57:01Z</time>
      </trkpt>
      <trkpt lat="45.74358101002872" lon="8.944085966795683">
        <ele>383.20001220703125</ele>
        <time>2012-12-09T10:57:04Z</time>
      </trkpt>
      <trkpt lat="45.743464501574636" lon="8.944049505516887">
        <ele>383.20001220703125</ele>
        <time>2012-12-09T10:57:08Z</time>
      </trkpt>
      <trkpt lat="45.743377329781651" lon="8.944026036188006">
        <ele>383.20001220703125</ele>
        <time>2012-12-09T10:57:10Z</time>
      </trkpt>
      <trkpt lat="45.74322922155261" lon="8.943999465554953">
        <ele>383</ele>
        <time>2012-12-09T10:57:14Z</time>
      </trkpt>
      <trkpt lat="45.743011543527246" lon="8.943935260176659">
        <ele>383</ele>
        <time>2012-12-09T10:57:20Z</time>
      </trkpt>
      <trkpt lat="45.742767127230763" lon="8.943860828876495">
        <ele>383</ele>
        <time>2012-12-09T10:57:26Z</time>
      </trkpt>
      <trkpt lat="45.742637123912573" lon="8.943810034543276">
        <ele>383.20001220703125</ele>
        <time>2012-12-09T10:57:29Z</time>
      </trkpt>
      <trkpt lat="45.742593789473176" lon="8.943803496658802">
        <ele>383.20001220703125</ele>
        <time>2012-12-09T10:57:30Z</time>
      </trkpt>
      <trkpt lat="45.742408968508244" lon="8.943795869126916">
        <ele>383</ele>
        <time>2012-12-09T10:57:34Z</time>
      </trkpt>
      <trkpt lat="45.742364041507244" lon="8.943789079785347">
        <ele>382.79998779296875</ele>
        <time>2012-12-09T10:57:35Z</time>
      </trkpt>
      <trkpt lat="45.742333615198731" lon="8.943787571042776">
        <ele>382.60000610351562</ele>
        <time>2012-12-09T10:57:36Z</time>
      </trkpt>
      <trkpt lat="45.742212077602744" lon="8.943782541900873">
        <ele>382.20001220703125</ele>
        <time>2012-12-09T10:57:39Z</time>
      </trkpt>
      <trkpt lat="45.742170922458172" lon="8.943767873570323">
        <ele>382.20001220703125</ele>
        <time>2012-12-09T10:57:40Z</time>
      </trkpt>
      <trkpt lat="45.741937151178718" lon="8.94364801235497">
        <ele>381.60000610351562</ele>
        <time>2012-12-09T10:57:45Z</time>
      </trkpt>
      <trkpt lat="45.741746043786407" lon="8.943551788106561">
        <ele>381</ele>
        <time>2012-12-09T10:57:49Z</time>
      </trkpt>
      <trkpt lat="45.741695333272219" lon="8.943527732044458">
        <ele>380.79998779296875</ele>
        <time>2012-12-09T10:57:50Z</time>
      </trkpt>
      <trkpt lat="45.741601036861539" lon="8.943499233573675">
        <ele>380.60000610351562</ele>
        <time>2012-12-09T10:57:52Z</time>
      </trkpt>
      <trkpt lat="45.741525096818805" lon="8.943466879427433">
        <ele>380.39999389648437</ele>
        <time>2012-12-09T10:57:54Z</time>
      </trkpt>
      <trkpt lat="45.741480337455869" lon="8.943448858335614">
        <ele>380.39999389648437</ele>
        <time>2012-12-09T10:57:56Z</time>
      </trkpt>
      <trkpt lat="45.741489306092262" lon="8.943359507247806">
        <ele>380.39999389648437</ele>
        <time>2012-12-09T10:57:58Z</time>
      </trkpt>
      <trkpt lat="45.741500118747354" lon="8.943244758993387">
        <ele>380.60000610351562</ele>
        <time>2012-12-09T10:58:03Z</time>
      </trkpt>
      <trkpt lat="45.741495927795768" lon="8.943027332425118">
        <ele>380.39999389648437</ele>
        <time>2012-12-09T10:58:09Z</time>
      </trkpt>
      <trkpt lat="45.741458125412464" lon="8.942882660776377">
        <ele>380.39999389648437</ele>
        <time>2012-12-09T10:58:13Z</time>
      </trkpt>
      <trkpt lat="45.741442618891597" lon="8.942845948040485">
        <ele>380.39999389648437</ele>
        <time>2012-12-09T10:58:14Z</time>
      </trkpt>
      <trkpt lat="45.741339605301619" lon="8.942716447636485">
        <ele>380.20001220703125</ele>
        <time>2012-12-09T10:58:18Z</time>
      </trkpt>
      <trkpt lat="45.741192502900958" lon="8.942531123757362">
        <ele>379.79998779296875</ele>
        <time>2012-12-09T10:58:24Z</time>
      </trkpt>
      <trkpt lat="45.741088483482599" lon="8.942413190379739">
        <ele>379.79998779296875</ele>
        <time>2012-12-09T10:58:29Z</time>
      </trkpt>
      <trkpt lat="45.740989912301302" lon="8.942328281700611">
        <ele>380</ele>
        <time>2012-12-09T10:58:34Z</time>
      </trkpt>
      <trkpt lat="45.740875415503979" lon="8.942241445183754">
        <ele>380.20001220703125</ele>
        <time>2012-12-09T10:58:40Z</time>
      </trkpt>
      <trkpt lat="45.740872733294964" lon="8.942217975854874">
        <ele>380.39999389648437</ele>
        <time>2012-12-09T10:58:41Z</time>
      </trkpt>
      <trkpt lat="45.740825040265918" lon="8.942145220935345">
        <ele>380.60000610351562</ele>
        <time>2012-12-09T10:58:44Z</time>
      </trkpt>
      <trkpt lat="45.740796960890293" lon="8.942104987800121">
        <ele>380.79998779296875</ele>
        <time>2012-12-09T10:58:46Z</time>
      </trkpt>
      <trkpt lat="45.740732168778777" lon="8.942022258415818">
        <ele>381</ele>
        <time>2012-12-09T10:58:50Z</time>
      </trkpt>
      <trkpt lat="45.74064239859581" lon="8.941915137693286">
        <ele>381.39999389648437</ele>
        <time>2012-12-09T10:58:56Z</time>
      </trkpt>
      <trkpt lat="45.740562016144395" lon="8.941841879859567">
        <ele>381.60000610351562</ele>
        <time>2012-12-09T10:59:01Z</time>
      </trkpt>
      <trkpt lat="45.740469815209508" lon="8.941770801320672">
        <ele>381.79998779296875</ele>
        <time>2012-12-09T10:59:06Z</time>
      </trkpt>
      <trkpt lat="45.740326903760433" lon="8.941703997552395">
        <ele>382</ele>
        <time>2012-12-09T10:59:14Z</time>
      </trkpt>
      <trkpt lat="45.740224895998836" lon="8.941663093864918">
        <ele>382.20001220703125</ele>
        <time>2012-12-09T10:59:20Z</time>
      </trkpt>
      <trkpt lat="45.740107297897339" lon="8.941641803830862">
        <ele>382</ele>
        <time>2012-12-09T10:59:28Z</time>
      </trkpt>
      <trkpt lat="45.739967571571469" lon="8.941506603732705">
        <ele>382</ele>
        <time>2012-12-09T10:59:34Z</time>
      </trkpt>
      <trkpt lat="45.73988065123558" lon="8.941401913762093">
        <ele>382.20001220703125</ele>
        <time>2012-12-09T10:59:39Z</time>
      </trkpt>
      <trkpt lat="45.739860450848937" lon="8.941399315372109">
        <ele>382.20001220703125</ele>
        <time>2012-12-09T10:59:40Z</time>
      </trkpt>
      <trkpt lat="45.739798508584499" lon="8.941444326192141">
        <ele>382.20001220703125</ele>
        <time>2012-12-09T10:59:43Z</time>
      </trkpt>
      <trkpt lat="45.739772608503699" lon="8.941455474123359">
        <ele>382.20001220703125</ele>
        <time>2012-12-09T10:59:44Z</time>
      </trkpt>
      <trkpt lat="45.739744445309043" lon="8.941456228494644">
        <ele>382.20001220703125</ele>
        <time>2012-12-09T10:59:45Z</time>
      </trkpt>
      <trkpt lat="45.739675294607878" lon="8.941445583477616">
        <ele>382.20001220703125</ele>
        <time>2012-12-09T10:59:48Z</time>
      </trkpt>
      <trkpt lat="45.73965098708868" lon="8.941448517143726">
        <ele>382.20001220703125</ele>
        <time>2012-12-09T10:59:49Z</time>
      </trkpt>
      <trkpt lat="45.739564318209887" lon="8.941482296213508">
        <ele>382.20001220703125</ele>
        <time>2012-12-09T10:59:54Z</time>
      </trkpt>
      <trkpt lat="45.739445546641946" lon="8.94145698286593">
        <ele>382.39999389648437</ele>
        <time>2012-12-09T10:59:59Z</time>
      </trkpt>
      <trkpt lat="45.73933431878686" lon="8.941353633999825">
        <ele>382.60000610351562</ele>
        <time>2012-12-09T11:00:05Z</time>
      </trkpt>
      <trkpt lat="45.739305485039949" lon="8.941366542130709">
        <ele>382.60000610351562</ele>
        <time>2012-12-09T11:00:08Z</time>
      </trkpt>
      <trkpt lat="45.739250415936112" lon="8.941395878791809">
        <ele>382.60000610351562</ele>
        <time>2012-12-09T11:00:12Z</time>
      </trkpt>
      <trkpt lat="45.73916332796216" lon="8.941465532407165">
        <ele>382.39999389648437</ele>
        <time>2012-12-09T11:00:18Z</time>
      </trkpt>
      <trkpt lat="45.739090573042631" lon="8.94154298119247">
        <ele>382</ele>
        <time>2012-12-09T11:00:23Z</time>
      </trkpt>
      <trkpt lat="45.739050172269344" lon="8.941615149378777">
        <ele>381.79998779296875</ele>
        <time>2012-12-09T11:00:27Z</time>
      </trkpt>
      <trkpt lat="45.739012369886041" lon="8.941706763580442">
        <ele>381.20001220703125</ele>
        <time>2012-12-09T11:00:30Z</time>
      </trkpt>
      <trkpt lat="45.738973896950483" lon="8.941894853487611">
        <ele>379.79998779296875</ele>
        <time>2012-12-09T11:00:35Z</time>
      </trkpt>
      <trkpt lat="45.738909356296062" lon="8.942188555374742">
        <ele>377.79998779296875</ele>
        <time>2012-12-09T11:00:41Z</time>
      </trkpt>
      <trkpt lat="45.738812796771526" lon="8.942340603098273">
        <ele>377.20001220703125</ele>
        <time>2012-12-09T11:00:45Z</time>
      </trkpt>
      <trkpt lat="45.738660749047995" lon="8.942487789317966">
        <ele>376.79998779296875</ele>
        <time>2012-12-09T11:00:50Z</time>
      </trkpt>
      <trkpt lat="45.738566536456347" lon="8.94259063526988">
        <ele>375.79998779296875</ele>
        <time>2012-12-09T11:00:54Z</time>
      </trkpt>
      <trkpt lat="45.738568631932139" lon="8.942637741565704">
        <ele>375.20001220703125</ele>
        <time>2012-12-09T11:00:55Z</time>
      </trkpt>
      <trkpt lat="45.738481292501092" lon="8.942740671336651">
        <ele>374</ele>
        <time>2012-12-09T11:00:58Z</time>
      </trkpt>
      <trkpt lat="45.738383140414953" lon="8.9427933935076">
        <ele>373.20001220703125</ele>
        <time>2012-12-09T11:01:01Z</time>
      </trkpt>
      <trkpt lat="45.738348523154855" lon="8.942796578630805">
        <ele>373.20001220703125</ele>
        <time>2012-12-09T11:01:02Z</time>
      </trkpt>
      <trkpt lat="45.7382598426193" lon="8.942828346043825">
        <ele>372.39999389648437</ele>
        <time>2012-12-09T11:01:06Z</time>
      </trkpt>
      <trkpt lat="45.738123636692762" lon="8.942919038236141">
        <ele>370.39999389648438</ele>
        <time>2012-12-09T11:01:11Z</time>
      </trkpt>
      <trkpt lat="45.737962033599615" lon="8.94301719032228">
        <ele>368.79998779296875</ele>
        <time>2012-12-09T11:01:17Z</time>
      </trkpt>
      <trkpt lat="45.737750055268407" lon="8.943182565271854">
        <ele>366.79998779296875</ele>
        <time>2012-12-09T11:01:24Z</time>
      </trkpt>
      <trkpt lat="45.73754595592618" lon="8.943423377349973">
        <ele>365</ele>
        <time>2012-12-09T11:01:31Z</time>
      </trkpt>
      <trkpt lat="45.737396255135536" lon="8.943603001534939">
        <ele>363.39999389648437</ele>
        <time>2012-12-09T11:01:36Z</time>
      </trkpt>
      <trkpt lat="45.737260803580284" lon="8.943719090893865">
        <ele>363</ele>
        <time>2012-12-09T11:01:41Z</time>
      </trkpt>
      <trkpt lat="45.737088806927204" lon="8.943856218829751">
        <ele>363</ele>
        <time>2012-12-09T11:01:47Z</time>
      </trkpt>
      <trkpt lat="45.736854951828718" lon="8.944016061723232">
        <ele>364.20001220703125</ele>
        <time>2012-12-09T11:01:54Z</time>
      </trkpt>
      <trkpt lat="45.736652361229062" lon="8.944144556298852">
        <ele>365.79998779296875</ele>
        <time>2012-12-09T11:02:00Z</time>
      </trkpt>
      <trkpt lat="45.736457146704197" lon="8.944171881303191">
        <ele>364.79998779296875</ele>
        <time>2012-12-09T11:02:05Z</time>
      </trkpt>
      <trkpt lat="45.736313816159964" lon="8.94405503757298">
        <ele>364.20001220703125</ele>
        <time>2012-12-09T11:02:10Z</time>
      </trkpt>
      <trkpt lat="45.736209629103541" lon="8.943842891603708">
        <ele>363.60000610351562</ele>
        <time>2012-12-09T11:02:15Z</time>
      </trkpt>
      <trkpt lat="45.736126564443111" lon="8.943588165566325">
        <ele>363.20001220703125</ele>
        <time>2012-12-09T11:02:20Z</time>
      </trkpt>
      <trkpt lat="45.736057497560978" lon="8.943323465064168">
        <ele>363.20001220703125</ele>
        <time>2012-12-09T11:02:25Z</time>
      </trkpt>
      <trkpt lat="45.735916346311569" lon="8.943187175318599">
        <ele>363.20001220703125</ele>
        <time>2012-12-09T11:02:30Z</time>
      </trkpt>
      <trkpt lat="45.735840741544962" lon="8.943207040429115">
        <ele>363</ele>
        <time>2012-12-09T11:02:33Z</time>
      </trkpt>
      <trkpt lat="45.735813332721591" lon="8.943244926631451">
        <ele>363</ele>
        <time>2012-12-09T11:02:34Z</time>
      </trkpt>
      <trkpt lat="45.735629349946976" lon="8.943351544439793">
        <ele>362</ele>
        <time>2012-12-09T11:02:38Z</time>
      </trkpt>
      <trkpt lat="45.735522229224443" lon="8.943507112562656">
        <ele>361.20001220703125</ele>
        <time>2012-12-09T11:02:42Z</time>
      </trkpt>
      <trkpt lat="45.735573107376695" lon="8.943694280460477">
        <ele>361.39999389648437</ele>
        <time>2012-12-09T11:02:45Z</time>
      </trkpt>
      <trkpt lat="45.735604120418429" lon="8.943999130278826">
        <ele>361.20001220703125</ele>
        <time>2012-12-09T11:02:49Z</time>
      </trkpt>
      <trkpt lat="45.735609484836459" lon="8.944146567955613">
        <ele>361.20001220703125</ele>
        <time>2012-12-09T11:02:51Z</time>
      </trkpt>
      <trkpt lat="45.735549218952656" lon="8.944269446656108">
        <ele>361</ele>
        <time>2012-12-09T11:02:54Z</time>
      </trkpt>
      <trkpt lat="45.7354795653373" lon="8.944187974557281">
        <ele>360.60000610351562</ele>
        <time>2012-12-09T11:02:58Z</time>
      </trkpt>
      <trkpt lat="45.735366912558675" lon="8.944134917110205">
        <ele>360.20001220703125</ele>
        <time>2012-12-09T11:03:02Z</time>
      </trkpt>
      <trkpt lat="45.735308574512601" lon="8.944113878533244">
        <ele>360</ele>
        <time>2012-12-09T11:03:04Z</time>
      </trkpt>
      <trkpt lat="45.735200447961688" lon="8.944085296243429">
        <ele>359.60000610351562</ele>
        <time>2012-12-09T11:03:07Z</time>
      </trkpt>
      <trkpt lat="45.735012106597424" lon="8.944001896306872">
        <ele>359</ele>
        <time>2012-12-09T11:03:12Z</time>
      </trkpt>
      <trkpt lat="45.734868356958032" lon="8.943821266293526">
        <ele>358.60000610351562</ele>
        <time>2012-12-09T11:03:17Z</time>
      </trkpt>
      <trkpt lat="45.734743466600776" lon="8.943675588816404">
        <ele>358.20001220703125</ele>
        <time>2012-12-09T11:03:23Z</time>
      </trkpt>
      <trkpt lat="45.734732737764716" lon="8.943662093952298">
        <ele>358.20001220703125</ele>
        <time>2012-12-09T11:03:28Z</time>
      </trkpt>
      <trkpt lat="45.734600890427828" lon="8.943619262427092">
        <ele>357.79998779296875</ele>
        <time>2012-12-09T11:04:17Z</time>
      </trkpt>
      <trkpt lat="45.734435012564063" lon="8.94361381419003">
        <ele>357.39999389648437</ele>
        <time>2012-12-09T11:04:23Z</time>
      </trkpt>
      <trkpt lat="45.734341470524669" lon="8.943590009585023">
        <ele>357</ele>
        <time>2012-12-09T11:04:26Z</time>
      </trkpt>
      <trkpt lat="45.734281288459897" lon="8.943598894402385">
        <ele>356.79998779296875</ele>
        <time>2012-12-09T11:04:28Z</time>
      </trkpt>
      <trkpt lat="45.734219178557396" lon="8.943606186658144">
        <ele>356.79998779296875</ele>
        <time>2012-12-09T11:04:30Z</time>
      </trkpt>
      <trkpt lat="45.734126223251224" lon="8.943651029840112">
        <ele>356.79998779296875</ele>
        <time>2012-12-09T11:04:33Z</time>
      </trkpt>
      <trkpt lat="45.733977360650897" lon="8.943828390911222">
        <ele>357.20001220703125</ele>
        <time>2012-12-09T11:04:37Z</time>
      </trkpt>
      <trkpt lat="45.733885243535042" lon="8.943937355652452">
        <ele>357.20001220703125</ele>
        <time>2012-12-09T11:04:39Z</time>
      </trkpt>
      <trkpt lat="45.733812740072608" lon="8.943969123065472">
        <ele>357.39999389648437</ele>
        <time>2012-12-09T11:04:41Z</time>
      </trkpt>
      <trkpt lat="45.733790192753077" lon="8.943974990397692">
        <ele>357.20001220703125</ele>
        <time>2012-12-09T11:04:42Z</time>
      </trkpt>
      <trkpt lat="45.733774853870273" lon="8.943868288770318">
        <ele>357.20001220703125</ele>
        <time>2012-12-09T11:04:44Z</time>
      </trkpt>
      <trkpt lat="45.733789270743728" lon="8.943709116429091">
        <ele>357</ele>
        <time>2012-12-09T11:04:47Z</time>
      </trkpt>
      <trkpt lat="45.733790444210172" lon="8.943655723705888">
        <ele>357</ele>
        <time>2012-12-09T11:04:48Z</time>
      </trkpt>
      <trkpt lat="45.733773596584797" lon="8.943368811160326">
        <ele>356.79998779296875</ele>
        <time>2012-12-09T11:04:54Z</time>
      </trkpt>
      <trkpt lat="45.73364376090467" lon="8.943074103444815">
        <ele>357.60000610351562</ele>
        <time>2012-12-09T11:05:01Z</time>
      </trkpt>
      <trkpt lat="45.733538819476962" lon="8.942837482318282">
        <ele>357.79998779296875</ele>
        <time>2012-12-09T11:05:07Z</time>
      </trkpt>
      <trkpt lat="45.733434716239572" lon="8.942601783201098">
        <ele>358</ele>
        <time>2012-12-09T11:05:13Z</time>
      </trkpt>
      <trkpt lat="45.733280070126057" lon="8.942293915897608">
        <ele>359</ele>
        <time>2012-12-09T11:05:20Z</time>
      </trkpt>
      <trkpt lat="45.733142103999853" lon="8.941988898441196">
        <ele>360.79998779296875</ele>
        <time>2012-12-09T11:05:27Z</time>
      </trkpt>
      <trkpt lat="45.733029032126069" lon="8.941739453002811">
        <ele>362.20001220703125</ele>
        <time>2012-12-09T11:05:33Z</time>
      </trkpt>
      <trkpt lat="45.732946302741766" lon="8.941573742777109">
        <ele>363</ele>
        <time>2012-12-09T11:05:38Z</time>
      </trkpt>
      <trkpt lat="45.73283364996314" lon="8.941329326480627">
        <ele>364.20001220703125</ele>
        <time>2012-12-09T11:05:46Z</time>
      </trkpt>
      <trkpt lat="45.73273591697216" lon="8.941124472767115">
        <ele>364.60000610351562</ele>
        <time>2012-12-09T11:05:52Z</time>
      </trkpt>
      <trkpt lat="45.73265427723527" lon="8.940937221050263">
        <ele>365</ele>
        <time>2012-12-09T11:05:58Z</time>
      </trkpt>
      <trkpt lat="45.73255411349237" lon="8.940749298781157">
        <ele>364.60000610351562</ele>
        <time>2012-12-09T11:06:04Z</time>
      </trkpt>
      <trkpt lat="45.732462834566832" lon="8.940544528886676">
        <ele>363.39999389648437</ele>
        <time>2012-12-09T11:06:10Z</time>
      </trkpt>
      <trkpt lat="45.732344565913081" lon="8.940324671566486">
        <ele>362.39999389648437</ele>
        <time>2012-12-09T11:06:17Z</time>
      </trkpt>
      <trkpt lat="45.732182040810585" lon="8.940045135095716">
        <ele>361</ele>
        <time>2012-12-09T11:06:23Z</time>
      </trkpt>
      <trkpt lat="45.731982802972198" lon="8.939738441258669">
        <ele>360</ele>
        <time>2012-12-09T11:06:28Z</time>
      </trkpt>
      <trkpt lat="45.731837376952171" lon="8.939467621967197">
        <ele>359.39999389648437</ele>
        <time>2012-12-09T11:06:33Z</time>
      </trkpt>
      <trkpt lat="45.731688179075718" lon="8.939109211787581">
        <ele>358.39999389648437</ele>
        <time>2012-12-09T11:06:38Z</time>
      </trkpt>
      <trkpt lat="45.73148894123733" lon="8.93860730342567">
        <ele>355.60000610351562</ele>
        <time>2012-12-09T11:06:44Z</time>
      </trkpt>
      <trkpt lat="45.731457676738501" lon="8.938551228493452">
        <ele>355.20001220703125</ele>
        <time>2012-12-09T11:06:45Z</time>
      </trkpt>
      <trkpt lat="45.731379389762878" lon="8.938526334241033">
        <ele>355.39999389648437</ele>
        <time>2012-12-09T11:06:47Z</time>
      </trkpt>
      <trkpt lat="45.731282578781247" lon="8.938649212941527">
        <ele>356.39999389648438</ele>
        <time>2012-12-09T11:06:50Z</time>
      </trkpt>
      <trkpt lat="45.731253577396274" lon="8.938692882657051">
        <ele>356.79998779296875</ele>
        <time>2012-12-09T11:06:51Z</time>
      </trkpt>
      <trkpt lat="45.731078730896115" lon="8.93895423039794">
        <ele>358.60000610351562</ele>
        <time>2012-12-09T11:06:56Z</time>
      </trkpt>
      <trkpt lat="45.730957612395287" lon="8.939133016392589">
        <ele>359.60000610351562</ele>
        <time>2012-12-09T11:06:59Z</time>
      </trkpt>
      <trkpt lat="45.730883851647377" lon="8.939256146550179">
        <ele>360</ele>
        <time>2012-12-09T11:07:01Z</time>
      </trkpt>
      <trkpt lat="45.730720488354564" lon="8.939466532319784">
        <ele>359.60000610351562</ele>
        <time>2012-12-09T11:07:05Z</time>
      </trkpt>
      <trkpt lat="45.730640944093466" lon="8.939561666920781">
        <ele>359.39999389648437</ele>
        <time>2012-12-09T11:07:07Z</time>
      </trkpt>
      <trkpt lat="45.730591658502817" lon="8.939603492617607">
        <ele>359.20001220703125</ele>
        <time>2012-12-09T11:07:08Z</time>
      </trkpt>
      <trkpt lat="45.730495182797313" lon="8.939681947231293">
        <ele>358.79998779296875</ele>
        <time>2012-12-09T11:07:10Z</time>
      </trkpt>
      <trkpt lat="45.730446903035045" lon="8.939721006900072">
        <ele>358.60000610351562</ele>
        <time>2012-12-09T11:07:11Z</time>
      </trkpt>
      <trkpt lat="45.730405580252409" lon="8.939734250307083">
        <ele>358.39999389648437</ele>
        <time>2012-12-09T11:07:12Z</time>
      </trkpt>
      <trkpt lat="45.730283791199327" lon="8.939797952771187">
        <ele>357.79998779296875</ele>
        <time>2012-12-09T11:07:16Z</time>
      </trkpt>
      <trkpt lat="45.730151608586311" lon="8.939903061836958">
        <ele>357.39999389648437</ele>
        <time>2012-12-09T11:07:21Z</time>
      </trkpt>
      <trkpt lat="45.730128474533558" lon="8.93991831690073">
        <ele>357.39999389648437</ele>
        <time>2012-12-09T11:07:22Z</time>
      </trkpt>
      <trkpt lat="45.729973828420043" lon="8.940006913617253">
        <ele>356.79998779296875</ele>
        <time>2012-12-09T11:07:28Z</time>
      </trkpt>
      <trkpt lat="45.729850279167295" lon="8.94004044122994">
        <ele>356.60000610351562</ele>
        <time>2012-12-09T11:07:33Z</time>
      </trkpt>
      <trkpt lat="45.729706864804029" lon="8.940134486183524">
        <ele>356.39999389648438</ele>
        <time>2012-12-09T11:07:39Z</time>
      </trkpt>
      <trkpt lat="45.729564456269145" lon="8.940180251374841">
        <ele>356</ele>
        <time>2012-12-09T11:07:45Z</time>
      </trkpt>
      <trkpt lat="45.72944157756865" lon="8.940218891948462">
        <ele>355.60000610351562</ele>
        <time>2012-12-09T11:07:49Z</time>
      </trkpt>
      <trkpt lat="45.729421880096197" lon="8.940242445096374">
        <ele>355.60000610351562</ele>
        <time>2012-12-09T11:07:50Z</time>
      </trkpt>
      <trkpt lat="45.729281483218074" lon="8.940286282449961">
        <ele>355.20001220703125</ele>
        <time>2012-12-09T11:07:54Z</time>
      </trkpt>
      <trkpt lat="45.729175619781017" lon="8.940344033762813">
        <ele>355</ele>
        <time>2012-12-09T11:07:57Z</time>
      </trkpt>
      <trkpt lat="45.729102864861488" lon="8.940362054854631">
        <ele>354.79998779296875</ele>
        <time>2012-12-09T11:07:59Z</time>
      </trkpt>
      <trkpt lat="45.728863393887877" lon="8.940420057624579">
        <ele>354.39999389648437</ele>
        <time>2012-12-09T11:08:05Z</time>
      </trkpt>
      <trkpt lat="45.728736575692892" lon="8.940438413992524">
        <ele>354.20001220703125</ele>
        <time>2012-12-09T11:08:08Z</time>
      </trkpt>
      <trkpt lat="45.728636160492897" lon="8.940458698198199">
        <ele>354</ele>
        <time>2012-12-09T11:08:10Z</time>
      </trkpt>
      <trkpt lat="45.728358551859856" lon="8.940512342378497">
        <ele>353.39999389648438</ele>
        <time>2012-12-09T11:08:16Z</time>
      </trkpt>
      <trkpt lat="45.728171048685908" lon="8.94054276868701">
        <ele>353.20001220703125</ele>
        <time>2012-12-09T11:08:20Z</time>
      </trkpt>
      <trkpt lat="45.728087900206447" lon="8.940549977123737">
        <ele>353</ele>
        <time>2012-12-09T11:08:22Z</time>
      </trkpt>
      <trkpt lat="45.727848345413804" lon="8.940583085641265">
        <ele>352.79998779296875</ele>
        <time>2012-12-09T11:08:27Z</time>
      </trkpt>
      <trkpt lat="45.727573670446873" lon="8.940631784498692">
        <ele>352.79998779296875</ele>
        <time>2012-12-09T11:08:32Z</time>
      </trkpt>
      <trkpt lat="45.727325649932027" lon="8.94068107008934">
        <ele>352.60000610351562</ele>
        <time>2012-12-09T11:08:36Z</time>
      </trkpt>
      <trkpt lat="45.727269491180778" lon="8.940722979605198">
        <ele>352.39999389648437</ele>
        <time>2012-12-09T11:08:37Z</time>
      </trkpt>
      <trkpt lat="45.726935137063265" lon="8.940904112532735">
        <ele>352.20001220703125</ele>
        <time>2012-12-09T11:08:43Z</time>
      </trkpt>
      <trkpt lat="45.726824244484305" lon="8.940932778641582">
        <ele>352</ele>
        <time>2012-12-09T11:08:45Z</time>
      </trkpt>
      <trkpt lat="45.726667838171124" lon="8.941034702584148">
        <ele>352</ele>
        <time>2012-12-09T11:08:48Z</time>
      </trkpt>
      <trkpt lat="45.726490560919046" lon="8.941137632355094">
        <ele>351.20001220703125</ele>
        <time>2012-12-09T11:08:52Z</time>
      </trkpt>
      <trkpt lat="45.72643406689167" lon="8.941160598769784">
        <ele>351</ele>
        <time>2012-12-09T11:08:53Z</time>
      </trkpt>
      <trkpt lat="45.726380757987499" lon="8.941178452223539">
        <ele>350.79998779296875</ele>
        <time>2012-12-09T11:08:54Z</time>
      </trkpt>
      <trkpt lat="45.726179759949446" lon="8.941298564895988">
        <ele>349.79998779296875</ele>
        <time>2012-12-09T11:08:58Z</time>
      </trkpt>
      <trkpt lat="45.725954119116068" lon="8.941436782479286">
        <ele>348.39999389648437</ele>
        <time>2012-12-09T11:09:03Z</time>
      </trkpt>
      <trkpt lat="45.72574851103127" lon="8.941474417224526">
        <ele>347.20001220703125</ele>
        <time>2012-12-09T11:09:07Z</time>
      </trkpt>
      <trkpt lat="45.725693861022592" lon="8.941485481336713">
        <ele>346.79998779296875</ele>
        <time>2012-12-09T11:09:08Z</time>
      </trkpt>
      <trkpt lat="45.725648934021592" lon="8.941501406952739">
        <ele>346.60000610351562</ele>
        <time>2012-12-09T11:09:09Z</time>
      </trkpt>
      <trkpt lat="45.725560588762164" lon="8.941514817997813">
        <ele>346</ele>
        <time>2012-12-09T11:09:11Z</time>
      </trkpt>
      <trkpt lat="45.725445169955492" lon="8.941529486328363">
        <ele>345.39999389648437</ele>
        <time>2012-12-09T11:09:13Z</time>
      </trkpt>
      <trkpt lat="45.725289350375533" lon="8.94155764952302">
        <ele>344.60000610351562</ele>
        <time>2012-12-09T11:09:16Z</time>
      </trkpt>
      <trkpt lat="45.725080389529467" lon="8.941575167700648">
        <ele>343.39999389648437</ele>
        <time>2012-12-09T11:09:20Z</time>
      </trkpt>
      <trkpt lat="45.724969496950507" lon="8.941565528512001">
        <ele>343</ele>
        <time>2012-12-09T11:09:22Z</time>
      </trkpt>
      <trkpt lat="45.724875787273049" lon="8.941550860181451">
        <ele>342.79998779296875</ele>
        <time>2012-12-09T11:09:24Z</time>
      </trkpt>
      <trkpt lat="45.724784592166543" lon="8.941552620381117">
        <ele>342.60000610351562</ele>
        <time>2012-12-09T11:09:26Z</time>
      </trkpt>
      <trkpt lat="45.724731953814626" lon="8.941566618159413">
        <ele>342.60000610351562</ele>
        <time>2012-12-09T11:09:27Z</time>
      </trkpt>
      <trkpt lat="45.724577140063047" lon="8.941625710576773">
        <ele>342.39999389648437</ele>
        <time>2012-12-09T11:09:30Z</time>
      </trkpt>
      <trkpt lat="45.724414950236678" lon="8.941692179068923">
        <ele>342</ele>
        <time>2012-12-09T11:09:33Z</time>
      </trkpt>
      <trkpt lat="45.72430707514286" lon="8.941700980067253">
        <ele>341.79998779296875</ele>
        <time>2012-12-09T11:09:35Z</time>
      </trkpt>
      <trkpt lat="45.724194841459394" lon="8.941720090806484">
        <ele>341.60000610351562</ele>
        <time>2012-12-09T11:09:37Z</time>
      </trkpt>
      <trkpt lat="45.724047990515828" lon="8.941741799935699">
        <ele>341.60000610351562</ele>
        <time>2012-12-09T11:09:40Z</time>
      </trkpt>
      <trkpt lat="45.723901726305485" lon="8.941765520721674">
        <ele>341.79998779296875</ele>
        <time>2012-12-09T11:09:44Z</time>
      </trkpt>
      <trkpt lat="45.723855877295136" lon="8.94176677800715">
        <ele>341.79998779296875</ele>
        <time>2012-12-09T11:09:45Z</time>
      </trkpt>
      <trkpt lat="45.723813967779279" lon="8.941768370568752">
        <ele>341.79998779296875</ele>
        <time>2012-12-09T11:09:46Z</time>
      </trkpt>
      <trkpt lat="45.723631158471107" lon="8.941791504621506">
        <ele>342</ele>
        <time>2012-12-09T11:09:50Z</time>
      </trkpt>
      <trkpt lat="45.723562594503164" lon="8.941811872646213">
        <ele>342</ele>
        <time>2012-12-09T11:09:52Z</time>
      </trkpt>
      <trkpt lat="45.72349495254457" lon="8.941858727484942">
        <ele>342</ele>
        <time>2012-12-09T11:09:54Z</time>
      </trkpt>
      <trkpt lat="45.723450277000666" lon="8.941887728869915">
        <ele>341.79998779296875</ele>
        <time>2012-12-09T11:09:55Z</time>
      </trkpt>
      <trkpt lat="45.723281214013696" lon="8.941987305879593">
        <ele>341.60000610351562</ele>
        <time>2012-12-09T11:09:59Z</time>
      </trkpt>
      <trkpt lat="45.723152551800013" lon="8.941973224282265">
        <ele>341.39999389648437</ele>
        <time>2012-12-09T11:10:02Z</time>
      </trkpt>
      <trkpt lat="45.723046939820051" lon="8.941873395815492">
        <ele>341.20001220703125</ele>
        <time>2012-12-09T11:10:05Z</time>
      </trkpt>
      <trkpt lat="45.723001258447766" lon="8.941828217357397">
        <ele>341.20001220703125</ele>
        <time>2012-12-09T11:10:06Z</time>
      </trkpt>
      <trkpt lat="45.722964629530907" lon="8.941801730543375">
        <ele>341.20001220703125</ele>
        <time>2012-12-09T11:10:07Z</time>
      </trkpt>
      <trkpt lat="45.722940489649773" lon="8.941766275092959">
        <ele>341.20001220703125</ele>
        <time>2012-12-09T11:10:08Z</time>
      </trkpt>
      <trkpt lat="45.722798332571983" lon="8.941670637577772">
        <ele>341</ele>
        <time>2012-12-09T11:10:11Z</time>
      </trkpt>
      <trkpt lat="45.722671430557966" lon="8.941613221541047">
        <ele>340.20001220703125</ele>
        <time>2012-12-09T11:10:14Z</time>
      </trkpt>
      <trkpt lat="45.722564226016402" lon="8.941656472161412">
        <ele>340</ele>
        <time>2012-12-09T11:10:16Z</time>
      </trkpt>
      <trkpt lat="45.722372615709901" lon="8.941696118563414">
        <ele>339.39999389648438</ele>
        <time>2012-12-09T11:10:20Z</time>
      </trkpt>
      <trkpt lat="45.722271697595716" lon="8.941713888198137">
        <ele>339</ele>
        <time>2012-12-09T11:10:23Z</time>
      </trkpt>
      <trkpt lat="45.722214113920927" lon="8.941688658669591">
        <ele>338.79998779296875</ele>
        <time>2012-12-09T11:10:24Z</time>
      </trkpt>
      <trkpt lat="45.722121829167008" lon="8.941663010045886">
        <ele>338.60000610351562</ele>
        <time>2012-12-09T11:10:26Z</time>
      </trkpt>
      <trkpt lat="45.721986126154661" lon="8.941650437191129">
        <ele>338</ele>
        <time>2012-12-09T11:10:29Z</time>
      </trkpt>
      <trkpt lat="45.721947317942977" lon="8.941646749153733">
        <ele>337.79998779296875</ele>
        <time>2012-12-09T11:10:30Z</time>
      </trkpt>
      <trkpt lat="45.721922675147653" lon="8.941656220704317">
        <ele>337.79998779296875</ele>
        <time>2012-12-09T11:10:31Z</time>
      </trkpt>
      <trkpt lat="45.721806334331632" lon="8.941675666719675">
        <ele>337.39999389648437</ele>
        <time>2012-12-09T11:10:34Z</time>
      </trkpt>
      <trkpt lat="45.721753360703588" lon="8.941681534051895">
        <ele>337.20001220703125</ele>
        <time>2012-12-09T11:10:35Z</time>
      </trkpt>
      <trkpt lat="45.721576334908605" lon="8.94174138084054">
        <ele>335.60000610351562</ele>
        <time>2012-12-09T11:10:39Z</time>
      </trkpt>
      <trkpt lat="45.721459407359362" lon="8.941811118274927">
        <ele>334.20001220703125</ele>
        <time>2012-12-09T11:10:42Z</time>
      </trkpt>
      <trkpt lat="45.721409032121301" lon="8.941819751635194">
        <ele>333.79998779296875</ele>
        <time>2012-12-09T11:10:43Z</time>
      </trkpt>
      <trkpt lat="45.721349185332656" lon="8.941857134923339">
        <ele>333</ele>
        <time>2012-12-09T11:10:45Z</time>
      </trkpt>
      <trkpt lat="45.721323117613792" lon="8.941928297281265">
        <ele>332.79998779296875</ele>
        <time>2012-12-09T11:10:47Z</time>
      </trkpt>
      <trkpt lat="45.721326302736998" lon="8.941975738853216">
        <ele>332.60000610351562</ele>
        <time>2012-12-09T11:10:49Z</time>
      </trkpt>
      <trkpt lat="45.721316915005445" lon="8.942053187638521">
        <ele>332.39999389648437</ele>
        <time>2012-12-09T11:10:52Z</time>
      </trkpt>
      <trkpt lat="45.721308197826147" lon="8.942203056067228">
        <ele>332.20001220703125</ele>
        <time>2012-12-09T11:10:57Z</time>
      </trkpt>
      <trkpt lat="45.721335019916296" lon="8.942402210086584">
        <ele>331.79998779296875</ele>
        <time>2012-12-09T11:11:02Z</time>
      </trkpt>
      <trkpt lat="45.721363015472889" lon="8.942628102377057">
        <ele>331.39999389648437</ele>
        <time>2012-12-09T11:11:06Z</time>
      </trkpt>
      <trkpt lat="45.721399560570717" lon="8.942864136770368">
        <ele>331</ele>
        <time>2012-12-09T11:11:10Z</time>
      </trkpt>
      <trkpt lat="45.721420766785741" lon="8.943263199180365">
        <ele>330.20001220703125</ele>
        <time>2012-12-09T11:11:15Z</time>
      </trkpt>
      <trkpt lat="45.721408864483237" lon="8.943368392065167">
        <ele>330.20001220703125</ele>
        <time>2012-12-09T11:11:18Z</time>
      </trkpt>
      <trkpt lat="45.721382461488247" lon="8.943451959639788">
        <ele>330.79998779296875</ele>
        <time>2012-12-09T11:11:28Z</time>
      </trkpt>
      <trkpt lat="45.721357483416796" lon="8.943478530272842">
        <ele>330.79998779296875</ele>
        <time>2012-12-09T11:11:34Z</time>
      </trkpt>
      <trkpt lat="45.721364356577396" lon="8.943538963794708">
        <ele>331.20001220703125</ele>
        <time>2012-12-09T11:12:32Z</time>
      </trkpt>
      <trkpt lat="45.721393441781402" lon="8.943599984049797">
        <ele>331.79998779296875</ele>
        <time>2012-12-09T11:12:40Z</time>
      </trkpt>
      <trkpt lat="45.721405008807778" lon="8.943629320710897">
        <ele>332.20001220703125</ele>
        <time>2012-12-09T11:12:45Z</time>
      </trkpt>
      <trkpt lat="45.721412636339664" lon="8.943695956841111">
        <ele>332.60000610351562</ele>
        <time>2012-12-09T11:12:51Z</time>
      </trkpt>
      <trkpt lat="45.721415905281901" lon="8.943761168047786">
        <ele>333.20001220703125</ele>
        <time>2012-12-09T11:12:57Z</time>
      </trkpt>
      <trkpt lat="45.721420766785741" lon="8.943820260465145">
        <ele>333.60000610351562</ele>
        <time>2012-12-09T11:13:04Z</time>
      </trkpt>
      <trkpt lat="45.721444571390748" lon="8.943915562704206">
        <ele>334.39999389648437</ele>
        <time>2012-12-09T11:13:13Z</time>
      </trkpt>
      <trkpt lat="45.721454713493586" lon="8.943984378129244">
        <ele>335</ele>
        <time>2012-12-09T11:13:21Z</time>
      </trkpt>
      <trkpt lat="45.721459658816457" lon="8.944037854671478">
        <ele>335.39999389648437</ele>
        <time>2012-12-09T11:13:29Z</time>
      </trkpt>
      <trkpt lat="45.721472315490246" lon="8.944093510508537">
        <ele>336</ele>
        <time>2012-12-09T11:13:36Z</time>
      </trkpt>
      <trkpt lat="45.721461335197091" lon="8.944226866587997">
        <ele>336.39999389648438</ele>
        <time>2012-12-09T11:15:33Z</time>
      </trkpt>
      <trkpt lat="45.72143292054534" lon="8.944115051999688">
        <ele>335.79998779296875</ele>
        <time>2012-12-09T11:20:17Z</time>
      </trkpt>
      <trkpt lat="45.721369804814458" lon="8.944267518818378">
        <ele>336</ele>
        <time>2012-12-09T11:23:39Z</time>
      </trkpt>
      <trkpt lat="45.721266288310289" lon="8.944321498274803">
        <ele>335.60000610351562</ele>
        <time>2012-12-09T11:23:44Z</time>
      </trkpt>
      <trkpt lat="45.72113829664886" lon="8.944366173818708">
        <ele>335</ele>
        <time>2012-12-09T11:23:48Z</time>
      </trkpt>
      <trkpt lat="45.720993122085929" lon="8.944428535178304">
        <ele>334.79998779296875</ele>
        <time>2012-12-09T11:23:53Z</time>
      </trkpt>
      <trkpt lat="45.720786340534687" lon="8.944522496312857">
        <ele>334.79998779296875</ele>
        <time>2012-12-09T11:23:59Z</time>
      </trkpt>
      <trkpt lat="45.720608057454228" lon="8.944564573466778">
        <ele>334.60000610351562</ele>
        <time>2012-12-09T11:24:03Z</time>
      </trkpt>
      <trkpt lat="45.720378644764423" lon="8.944629617035389">
        <ele>334.39999389648437</ele>
        <time>2012-12-09T11:24:08Z</time>
      </trkpt>
      <trkpt lat="45.720195081084967" lon="8.944675968959928">
        <ele>334.39999389648437</ele>
        <time>2012-12-09T11:24:12Z</time>
      </trkpt>
      <trkpt lat="45.720137916505337" lon="8.944682590663433">
        <ele>334.20001220703125</ele>
        <time>2012-12-09T11:24:13Z</time>
      </trkpt>
      <trkpt lat="45.719840358942747" lon="8.944702120497823">
        <ele>333.79998779296875</ele>
        <time>2012-12-09T11:24:19Z</time>
      </trkpt>
      <trkpt lat="45.719763915985823" lon="8.94470832310617">
        <ele>333.79998779296875</ele>
        <time>2012-12-09T11:24:21Z</time>
      </trkpt>
      <trkpt lat="45.719588566571474" lon="8.944715028628707">
        <ele>333.60000610351562</ele>
        <time>2012-12-09T11:24:25Z</time>
      </trkpt>
      <trkpt lat="45.719537856057286" lon="8.944727685302496">
        <ele>333.79998779296875</ele>
        <time>2012-12-09T11:24:26Z</time>
      </trkpt>
      <trkpt lat="45.719444900751114" lon="8.944756183773279">
        <ele>333.79998779296875</ele>
        <time>2012-12-09T11:24:28Z</time>
      </trkpt>
      <trkpt lat="45.719356890767813" lon="8.944757357239723">
        <ele>333.79998779296875</ele>
        <time>2012-12-09T11:24:30Z</time>
      </trkpt>
      <trkpt lat="45.719132423400879" lon="8.944773869588971">
        <ele>333.60000610351562</ele>
        <time>2012-12-09T11:24:35Z</time>
      </trkpt>
      <trkpt lat="45.718884654343128" lon="8.944797925651074">
        <ele>334.60000610351562</ele>
        <time>2012-12-09T11:24:40Z</time>
      </trkpt>
      <trkpt lat="45.718795135617256" lon="8.944837739691138">
        <ele>335</ele>
        <time>2012-12-09T11:24:42Z</time>
      </trkpt>
      <trkpt lat="45.718744928017259" lon="8.944860706105828">
        <ele>335.39999389648437</ele>
        <time>2012-12-09T11:24:43Z</time>
      </trkpt>
      <trkpt lat="45.718616936355829" lon="8.944925162941217">
        <ele>336.39999389648438</ele>
        <time>2012-12-09T11:24:46Z</time>
      </trkpt>
      <trkpt lat="45.71851727552712" lon="8.944954164326191">
        <ele>336.79998779296875</ele>
        <time>2012-12-09T11:24:48Z</time>
      </trkpt>
      <trkpt lat="45.71837168186903" lon="8.94497562199831">
        <ele>337.60000610351562</ele>
        <time>2012-12-09T11:24:51Z</time>
      </trkpt>
      <trkpt lat="45.718079321086407" lon="8.945029014721513">
        <ele>337.20001220703125</ele>
        <time>2012-12-09T11:24:57Z</time>
      </trkpt>
      <trkpt lat="45.717780757695436" lon="8.945099506527185">
        <ele>336.20001220703125</ele>
        <time>2012-12-09T11:25:03Z</time>
      </trkpt>
      <trkpt lat="45.717586632817984" lon="8.945152396336198">
        <ele>335.79998779296875</ele>
        <time>2012-12-09T11:25:07Z</time>
      </trkpt>
      <trkpt lat="45.717424862086773" lon="8.94518961198628">
        <ele>335.20001220703125</ele>
        <time>2012-12-09T11:25:10Z</time>
      </trkpt>
      <trkpt lat="45.717213386669755" lon="8.945248704403639">
        <ele>333.79998779296875</ele>
        <time>2012-12-09T11:25:14Z</time>
      </trkpt>
      <trkpt lat="45.71706117130816" lon="8.945282232016325">
        <ele>332.79998779296875</ele>
        <time>2012-12-09T11:25:17Z</time>
      </trkpt>
      <trkpt lat="45.717003252357244" lon="8.945281729102135">
        <ele>332.39999389648437</ele>
        <time>2012-12-09T11:25:18Z</time>
      </trkpt>
      <trkpt lat="45.716800494119525" lon="8.94533964805305">
        <ele>331.39999389648437</ele>
        <time>2012-12-09T11:25:22Z</time>
      </trkpt>
      <trkpt lat="45.716430433094501" lon="8.945494210347533">
        <ele>331.20001220703125</ele>
        <time>2012-12-09T11:25:29Z</time>
      </trkpt>
      <trkpt lat="45.716342087835073" lon="8.945569731295109">
        <ele>331.60000610351562</ele>
        <time>2012-12-09T11:25:31Z</time>
      </trkpt>
      <trkpt lat="45.716227507218719" lon="8.945691268891096">
        <ele>332.39999389648437</ele>
        <time>2012-12-09T11:25:34Z</time>
      </trkpt>
      <trkpt lat="45.716141844168305" lon="8.945761006325483">
        <ele>333</ele>
        <time>2012-12-09T11:25:36Z</time>
      </trkpt>
      <trkpt lat="45.716041848063469" lon="8.945779446512461">
        <ele>333.20001220703125</ele>
        <time>2012-12-09T11:25:38Z</time>
      </trkpt>
      <trkpt lat="45.715954257175326" lon="8.945768382400274">
        <ele>333.20001220703125</ele>
        <time>2012-12-09T11:25:40Z</time>
      </trkpt>
      <trkpt lat="45.715896673500538" lon="8.945742314681411">
        <ele>333</ele>
        <time>2012-12-09T11:25:41Z</time>
      </trkpt>
      <trkpt lat="45.715766754001379" lon="8.945651119574904">
        <ele>332.39999389648437</ele>
        <time>2012-12-09T11:25:43Z</time>
      </trkpt>
      <trkpt lat="45.715646473690867" lon="8.945575347170234">
        <ele>331.79998779296875</ele>
        <time>2012-12-09T11:25:45Z</time>
      </trkpt>
      <trkpt lat="45.715493755415082" lon="8.945483397692442">
        <ele>331.20001220703125</ele>
        <time>2012-12-09T11:25:48Z</time>
      </trkpt>
      <trkpt lat="45.715340618044138" lon="8.945416174829006">
        <ele>330.60000610351562</ele>
        <time>2012-12-09T11:25:51Z</time>
      </trkpt>
      <trkpt lat="45.715203154832125" lon="8.945370996370912">
        <ele>330.39999389648438</ele>
        <time>2012-12-09T11:25:54Z</time>
      </trkpt>
      <trkpt lat="45.715063763782382" lon="8.945340486243367">
        <ele>330.39999389648438</ele>
        <time>2012-12-09T11:25:57Z</time>
      </trkpt>
      <trkpt lat="45.714916661381721" lon="8.945332858711481">
        <ele>330.39999389648438</ele>
        <time>2012-12-09T11:26:00Z</time>
      </trkpt>
      <trkpt lat="45.71485941298306" lon="8.945339396595955">
        <ele>330.60000610351562</ele>
        <time>2012-12-09T11:26:01Z</time>
      </trkpt>
      <trkpt lat="45.714718597009778" lon="8.945367224514484">
        <ele>331</ele>
        <time>2012-12-09T11:26:04Z</time>
      </trkpt>
      <trkpt lat="45.714516257867217" lon="8.94538608379662">
        <ele>331.39999389648437</ele>
        <time>2012-12-09T11:26:08Z</time>
      </trkpt>
      <trkpt lat="45.714468648657203" lon="8.94538750872016">
        <ele>331.39999389648437</ele>
        <time>2012-12-09T11:26:09Z</time>
      </trkpt>
      <trkpt lat="45.71442011743784" lon="8.945375690236688">
        <ele>331.39999389648437</ele>
        <time>2012-12-09T11:26:10Z</time>
      </trkpt>
      <trkpt lat="45.714214676991105" lon="8.945338726043701">
        <ele>331.60000610351562</ele>
        <time>2012-12-09T11:26:14Z</time>
      </trkpt>
      <trkpt lat="45.714130355045199" lon="8.945276280865073">
        <ele>331.39999389648437</ele>
        <time>2012-12-09T11:26:16Z</time>
      </trkpt>
      <trkpt lat="45.714072519913316" lon="8.945176284760237">
        <ele>331.20001220703125</ele>
        <time>2012-12-09T11:26:18Z</time>
      </trkpt>
      <trkpt lat="45.714052068069577" lon="8.945087185129523">
        <ele>331</ele>
        <time>2012-12-09T11:26:19Z</time>
      </trkpt>
      <trkpt lat="45.713966572657228" lon="8.944871770218015">
        <ele>329.20001220703125</ele>
        <time>2012-12-09T11:26:22Z</time>
      </trkpt>
      <trkpt lat="45.713939415290952" lon="8.944824161008">
        <ele>328.79998779296875</ele>
        <time>2012-12-09T11:26:23Z</time>
      </trkpt>
      <trkpt lat="45.713879652321339" lon="8.944761380553246">
        <ele>328</ele>
        <time>2012-12-09T11:26:24Z</time>
      </trkpt>
      <trkpt lat="45.71377269923687" lon="8.944676304236054">
        <ele>327.39999389648437</ele>
        <time>2012-12-09T11:26:26Z</time>
      </trkpt>
      <trkpt lat="45.713359219953418" lon="8.94439953379333">
        <ele>326.39999389648437</ele>
        <time>2012-12-09T11:26:33Z</time>
      </trkpt>
      <trkpt lat="45.713105164468288" lon="8.94428956322372">
        <ele>324.60000610351562</ele>
        <time>2012-12-09T11:26:38Z</time>
      </trkpt>
      <trkpt lat="45.713038444519043" lon="8.944335831329227">
        <ele>324.39999389648437</ele>
        <time>2012-12-09T11:26:40Z</time>
      </trkpt>
      <trkpt lat="45.713005336001515" lon="8.944434486329556">
        <ele>324.79998779296875</ele>
        <time>2012-12-09T11:26:43Z</time>
      </trkpt>
      <trkpt lat="45.712988488376141" lon="8.944452004507184">
        <ele>324.79998779296875</ele>
        <time>2012-12-09T11:26:44Z</time>
      </trkpt>
      <trkpt lat="45.712897628545761" lon="8.94450212828815">
        <ele>324.60000610351562</ele>
        <time>2012-12-09T11:26:48Z</time>
      </trkpt>
      <trkpt lat="45.712701408192515" lon="8.944544373080134">
        <ele>323.60000610351562</ele>
        <time>2012-12-09T11:26:52Z</time>
      </trkpt>
      <trkpt lat="45.712417932227254" lon="8.944742185994983">
        <ele>322.39999389648438</ele>
        <time>2012-12-09T11:26:59Z</time>
      </trkpt>
      <trkpt lat="45.712348027154803" lon="8.944811169058085">
        <ele>322.20001220703125</ele>
        <time>2012-12-09T11:27:01Z</time>
      </trkpt>
      <trkpt lat="45.712252054363489" lon="8.944903872907162">
        <ele>322</ele>
        <time>2012-12-09T11:27:04Z</time>
      </trkpt>
      <trkpt lat="45.712183741852641" lon="8.94496145658195">
        <ele>321.79998779296875</ele>
        <time>2012-12-09T11:27:06Z</time>
      </trkpt>
      <trkpt lat="45.712092462927103" lon="8.94506648182869">
        <ele>321.60000610351562</ele>
        <time>2012-12-09T11:27:09Z</time>
      </trkpt>
      <trkpt lat="45.712057342752814" lon="8.945091878995299">
        <ele>321.39999389648437</ele>
        <time>2012-12-09T11:27:10Z</time>
      </trkpt>
      <trkpt lat="45.711938068270683" lon="8.945209058001638">
        <ele>321.20001220703125</ele>
        <time>2012-12-09T11:27:14Z</time>
      </trkpt>
      <trkpt lat="45.711729694157839" lon="8.945399494841695">
        <ele>321.39999389648437</ele>
        <time>2012-12-09T11:27:20Z</time>
      </trkpt>
      <trkpt lat="45.711567252874374" lon="8.945522122085095">
        <ele>321.39999389648437</ele>
        <time>2012-12-09T11:27:25Z</time>
      </trkpt>
      <trkpt lat="45.711474297568202" lon="8.945607449859381">
        <ele>321.20001220703125</ele>
        <time>2012-12-09T11:27:27Z</time>
      </trkpt>
      <trkpt lat="45.711366338655353" lon="8.945701662451029">
        <ele>321.20001220703125</ele>
        <time>2012-12-09T11:27:30Z</time>
      </trkpt>
      <trkpt lat="45.711331889033318" lon="8.945720605552197">
        <ele>321</ele>
        <time>2012-12-09T11:27:31Z</time>
      </trkpt>
      <trkpt lat="45.711300373077393" lon="8.945740889757872">
        <ele>321</ele>
        <time>2012-12-09T11:27:32Z</time>
      </trkpt>
      <trkpt lat="45.711230300366879" lon="8.94577844068408">
        <ele>320.79998779296875</ele>
        <time>2012-12-09T11:27:34Z</time>
      </trkpt>
      <trkpt lat="45.711158467456698" lon="8.945822026580572">
        <ele>320.79998779296875</ele>
        <time>2012-12-09T11:27:36Z</time>
      </trkpt>
      <trkpt lat="45.711048496887088" lon="8.945893021300435">
        <ele>320.39999389648437</ele>
        <time>2012-12-09T11:27:39Z</time>
      </trkpt>
      <trkpt lat="45.710993176326156" lon="8.945917245000601">
        <ele>320.20001220703125</ele>
        <time>2012-12-09T11:27:40Z</time>
      </trkpt>
      <trkpt lat="45.710926037281752" lon="8.945960327982903">
        <ele>319.79998779296875</ele>
        <time>2012-12-09T11:27:42Z</time>
      </trkpt>
      <trkpt lat="45.71077985689044" lon="8.94602419808507">
        <ele>319.20001220703125</ele>
        <time>2012-12-09T11:27:45Z</time>
      </trkpt>
      <trkpt lat="45.710684387013316" lon="8.946062084287405">
        <ele>318.79998779296875</ele>
        <time>2012-12-09T11:27:47Z</time>
      </trkpt>
      <trkpt lat="45.710510462522507" lon="8.946134420111775">
        <ele>318</ele>
        <time>2012-12-09T11:27:51Z</time>
      </trkpt>
      <trkpt lat="45.710463188588619" lon="8.946131654083729">
        <ele>317.60000610351562</ele>
        <time>2012-12-09T11:27:52Z</time>
      </trkpt>
      <trkpt lat="45.710342992097139" lon="8.946182448416948">
        <ele>317</ele>
        <time>2012-12-09T11:27:55Z</time>
      </trkpt>
      <trkpt lat="45.71026629768312" lon="8.94625729881227">
        <ele>316.60000610351562</ele>
        <time>2012-12-09T11:27:57Z</time>
      </trkpt>
      <trkpt lat="45.710204187780619" lon="8.946318570524454">
        <ele>316.39999389648438</ele>
        <time>2012-12-09T11:27:59Z</time>
      </trkpt>
      <trkpt lat="45.710148951038718" lon="8.946349499747157">
        <ele>316.20001220703125</ele>
        <time>2012-12-09T11:28:00Z</time>
      </trkpt>
      <trkpt lat="45.71005767211318" lon="8.946376321837306">
        <ele>315.60000610351562</ele>
        <time>2012-12-09T11:28:02Z</time>
      </trkpt>
      <trkpt lat="45.709862541407347" lon="8.946459051221609">
        <ele>315.20001220703125</ele>
        <time>2012-12-09T11:28:06Z</time>
      </trkpt>
      <trkpt lat="45.709762293845415" lon="8.946475312113762">
        <ele>315.20001220703125</ele>
        <time>2012-12-09T11:28:08Z</time>
      </trkpt>
      <trkpt lat="45.709660705178976" lon="8.946485370397568">
        <ele>315.20001220703125</ele>
        <time>2012-12-09T11:28:10Z</time>
      </trkpt>
      <trkpt lat="45.709572359919548" lon="8.946517473086715">
        <ele>315.20001220703125</ele>
        <time>2012-12-09T11:28:12Z</time>
      </trkpt>
      <trkpt lat="45.709374295547605" lon="8.946611182764173">
        <ele>315.60000610351562</ele>
        <time>2012-12-09T11:28:16Z</time>
      </trkpt>
      <trkpt lat="45.70934034883976" lon="8.94664672203362">
        <ele>315.79998779296875</ele>
        <time>2012-12-09T11:28:17Z</time>
      </trkpt>
      <trkpt lat="45.70929785259068" lon="8.946683518588543">
        <ele>315.79998779296875</ele>
        <time>2012-12-09T11:28:18Z</time>
      </trkpt>
      <trkpt lat="45.709159215912223" lon="8.946760045364499">
        <ele>315.39999389648437</ele>
        <time>2012-12-09T11:28:21Z</time>
      </trkpt>
      <trkpt lat="45.709027368575335" lon="8.946838919073343">
        <ele>315.20001220703125</ele>
        <time>2012-12-09T11:28:24Z</time>
      </trkpt>
      <trkpt lat="45.708865178748965" lon="8.946929024532437">
        <ele>314.79998779296875</ele>
        <time>2012-12-09T11:28:27Z</time>
      </trkpt>
      <trkpt lat="45.70869779214263" lon="8.947074199095368">
        <ele>314.39999389648437</ele>
        <time>2012-12-09T11:28:31Z</time>
      </trkpt>
      <trkpt lat="45.708608021959662" lon="8.947127675637603">
        <ele>314.39999389648437</ele>
        <time>2012-12-09T11:28:33Z</time>
      </trkpt>
      <trkpt lat="45.708496291190386" lon="8.947244854643941">
        <ele>314.20001220703125</ele>
        <time>2012-12-09T11:28:36Z</time>
      </trkpt>
      <trkpt lat="45.708430409431458" lon="8.947359435260296">
        <ele>314</ele>
        <time>2012-12-09T11:28:38Z</time>
      </trkpt>
      <trkpt lat="45.70837676525116" lon="8.947468232363462">
        <ele>313.79998779296875</ele>
        <time>2012-12-09T11:28:40Z</time>
      </trkpt>
      <trkpt lat="45.70834063924849" lon="8.947508884593844">
        <ele>313.79998779296875</ele>
        <time>2012-12-09T11:28:41Z</time>
      </trkpt>
      <trkpt lat="45.708261514082551" lon="8.947569318115711">
        <ele>313.39999389648438</ele>
        <time>2012-12-09T11:28:43Z</time>
      </trkpt>
      <trkpt lat="45.708040650933981" lon="8.947585746645927">
        <ele>313.39999389648438</ele>
        <time>2012-12-09T11:28:47Z</time>
      </trkpt>
      <trkpt lat="45.707948198541999" lon="8.947600917890668">
        <ele>313.20001220703125</ele>
        <time>2012-12-09T11:28:49Z</time>
      </trkpt>
      <trkpt lat="45.707825236022472" lon="8.94767384044826">
        <ele>313</ele>
        <time>2012-12-09T11:28:52Z</time>
      </trkpt>
      <trkpt lat="45.707685342058539" lon="8.947766544297338">
        <ele>312.60000610351562</ele>
        <time>2012-12-09T11:28:55Z</time>
      </trkpt>
      <trkpt lat="45.707637816667557" lon="8.947785571217537">
        <ele>312.60000610351562</ele>
        <time>2012-12-09T11:28:56Z</time>
      </trkpt>
      <trkpt lat="45.70759448222816" lon="8.947800993919373">
        <ele>312.60000610351562</ele>
        <time>2012-12-09T11:28:57Z</time>
      </trkpt>
      <trkpt lat="45.707387616857886" lon="8.947899984195828">
        <ele>312.20001220703125</ele>
        <time>2012-12-09T11:29:01Z</time>
      </trkpt>
      <trkpt lat="45.707292314618826" lon="8.947957567870617">
        <ele>311.60000610351562</ele>
        <time>2012-12-09T11:29:03Z</time>
      </trkpt>
      <trkpt lat="45.707191815599799" lon="8.947971314191818">
        <ele>311.39999389648437</ele>
        <time>2012-12-09T11:29:05Z</time>
      </trkpt>
      <trkpt lat="45.707058543339372" lon="8.947971984744072">
        <ele>311</ele>
        <time>2012-12-09T11:29:08Z</time>
      </trkpt>
      <trkpt lat="45.706792501732707" lon="8.947841562330723">
        <ele>310.39999389648437</ele>
        <time>2012-12-09T11:29:13Z</time>
      </trkpt>
      <trkpt lat="45.706592593342066" lon="8.947786325588822">
        <ele>310</ele>
        <time>2012-12-09T11:29:17Z</time>
      </trkpt>
      <trkpt lat="45.706498045474291" lon="8.947768723592162">
        <ele>309.79998779296875</ele>
        <time>2012-12-09T11:29:19Z</time>
      </trkpt>
      <trkpt lat="45.706400396302342" lon="8.947714325040579">
        <ele>309.60000610351562</ele>
        <time>2012-12-09T11:29:21Z</time>
      </trkpt>
      <trkpt lat="45.706269638612866" lon="8.947605108842254">
        <ele>309.60000610351562</ele>
        <time>2012-12-09T11:29:24Z</time>
      </trkpt>
      <trkpt lat="45.706187663599849" lon="8.947547441348434">
        <ele>309.60000610351562</ele>
        <time>2012-12-09T11:29:26Z</time>
      </trkpt>
      <trkpt lat="45.706124883145094" lon="8.947535287588835">
        <ele>309.39999389648437</ele>
        <time>2012-12-09T11:29:27Z</time>
      </trkpt>
      <trkpt lat="45.706074004992843" lon="8.947523469105363">
        <ele>309.39999389648437</ele>
        <time>2012-12-09T11:29:28Z</time>
      </trkpt>
      <trkpt lat="45.705870073288679" lon="8.94744954071939">
        <ele>308.79998779296875</ele>
        <time>2012-12-09T11:29:32Z</time>
      </trkpt>
      <trkpt lat="45.705828499048948" lon="8.947449959814549">
        <ele>308.60000610351562</ele>
        <time>2012-12-09T11:29:33Z</time>
      </trkpt>
      <trkpt lat="45.705784326419234" lon="8.947442499920726">
        <ele>308.39999389648437</ele>
        <time>2012-12-09T11:29:34Z</time>
      </trkpt>
      <trkpt lat="45.705548627302051" lon="8.947416180744767">
        <ele>307.79998779296875</ele>
        <time>2012-12-09T11:29:38Z</time>
      </trkpt>
      <trkpt lat="45.7052559312433" lon="8.947463873773813">
        <ele>307.20001220703125</ele>
        <time>2012-12-09T11:29:43Z</time>
      </trkpt>
      <trkpt lat="45.705156354233623" lon="8.947456413879991">
        <ele>307</ele>
        <time>2012-12-09T11:29:45Z</time>
      </trkpt>
      <trkpt lat="45.70505753159523" lon="8.947420623153448">
        <ele>306.39999389648437</ele>
        <time>2012-12-09T11:29:47Z</time>
      </trkpt>
      <trkpt lat="45.704963067546487" lon="8.947383910417557">
        <ele>305.79998779296875</ele>
        <time>2012-12-09T11:29:49Z</time>
      </trkpt>
      <trkpt lat="45.704916380345821" lon="8.947356836870313">
        <ele>305.39999389648437</ele>
        <time>2012-12-09T11:29:50Z</time>
      </trkpt>
      <trkpt lat="45.704734828323126" lon="8.947254912927747">
        <ele>304</ele>
        <time>2012-12-09T11:29:54Z</time>
      </trkpt>
      <trkpt lat="45.704532992094755" lon="8.947189785540104">
        <ele>303</ele>
        <time>2012-12-09T11:29:58Z</time>
      </trkpt>
      <trkpt lat="45.704425619915128" lon="8.947175955399871">
        <ele>302.39999389648438</ele>
        <time>2012-12-09T11:30:00Z</time>
      </trkpt>
      <trkpt lat="45.704015158116817" lon="8.947157515212894">
        <ele>301</ele>
        <time>2012-12-09T11:30:07Z</time>
      </trkpt>
      <trkpt lat="45.70372405461967" lon="8.947217110544443">
        <ele>300.39999389648437</ele>
        <time>2012-12-09T11:30:12Z</time>
      </trkpt>
      <trkpt lat="45.703669069334865" lon="8.947215853258967">
        <ele>300.20001220703125</ele>
        <time>2012-12-09T11:30:13Z</time>
      </trkpt>
      <trkpt lat="45.703519703820348" lon="8.947155922651291">
        <ele>299.60000610351562</ele>
        <time>2012-12-09T11:30:16Z</time>
      </trkpt>
      <trkpt lat="45.703466981649399" lon="8.947152988985181">
        <ele>299.39999389648438</ele>
        <time>2012-12-09T11:30:17Z</time>
      </trkpt>
      <trkpt lat="45.703380983322859" lon="8.94714611582458">
        <ele>299.20001220703125</ele>
        <time>2012-12-09T11:30:19Z</time>
      </trkpt>
      <trkpt lat="45.703195156529546" lon="8.94713195040822">
        <ele>299</ele>
        <time>2012-12-09T11:30:23Z</time>
      </trkpt>
      <trkpt lat="45.703146290034056" lon="8.947146451100707">
        <ele>299</ele>
        <time>2012-12-09T11:30:24Z</time>
      </trkpt>
      <trkpt lat="45.702965660020709" lon="8.947208477184176">
        <ele>299</ele>
        <time>2012-12-09T11:30:28Z</time>
      </trkpt>
      <trkpt lat="45.702863484621048" lon="8.947225157171488">
        <ele>299</ele>
        <time>2012-12-09T11:30:30Z</time>
      </trkpt>
      <trkpt lat="45.702766003087163" lon="8.947232281789184">
        <ele>299</ele>
        <time>2012-12-09T11:30:32Z</time>
      </trkpt>
      <trkpt lat="45.702559556812048" lon="8.947265138849616">
        <ele>299</ele>
        <time>2012-12-09T11:30:36Z</time>
      </trkpt>
      <trkpt lat="45.7022684533149" lon="8.947309562936425">
        <ele>299</ele>
        <time>2012-12-09T11:30:42Z</time>
      </trkpt>
      <trkpt lat="45.702188238501549" lon="8.947332613170147">
        <ele>299</ele>
        <time>2012-12-09T11:30:44Z</time>
      </trkpt>
      <trkpt lat="45.702110705897212" lon="8.947349041700363">
        <ele>299</ele>
        <time>2012-12-09T11:30:46Z</time>
      </trkpt>
      <trkpt lat="45.701954131945968" lon="8.947366559877992">
        <ele>299.20001220703125</ele>
        <time>2012-12-09T11:30:49Z</time>
      </trkpt>
      <trkpt lat="45.70185262709856" lon="8.947380306199193">
        <ele>299.20001220703125</ele>
        <time>2012-12-09T11:30:51Z</time>
      </trkpt>
      <trkpt lat="45.701694041490555" lon="8.947399333119392">
        <ele>299.39999389648438</ele>
        <time>2012-12-09T11:30:54Z</time>
      </trkpt>
      <trkpt lat="45.701603181660175" lon="8.947489019483328">
        <ele>300</ele>
        <time>2012-12-09T11:30:56Z</time>
      </trkpt>
      <trkpt lat="45.701561523601413" lon="8.947525648400188">
        <ele>300</ele>
        <time>2012-12-09T11:30:57Z</time>
      </trkpt>
      <trkpt lat="45.701483068987727" lon="8.947610724717379">
        <ele>299.60000610351562</ele>
        <time>2012-12-09T11:30:59Z</time>
      </trkpt>
      <trkpt lat="45.701401848345995" lon="8.947677696123719">
        <ele>299.60000610351562</ele>
        <time>2012-12-09T11:31:01Z</time>
      </trkpt>
      <trkpt lat="45.701308138668537" lon="8.947697896510363">
        <ele>299.60000610351562</ele>
        <time>2012-12-09T11:31:03Z</time>
      </trkpt>
      <trkpt lat="45.701208310201764" lon="8.947703093290329">
        <ele>299.79998779296875</ele>
        <time>2012-12-09T11:31:05Z</time>
      </trkpt>
      <trkpt lat="45.700981160625815" lon="8.947663698345423">
        <ele>300.20001220703125</ele>
        <time>2012-12-09T11:31:10Z</time>
      </trkpt>
      <trkpt lat="45.700931958854198" lon="8.947644922882319">
        <ele>300.39999389648437</ele>
        <time>2012-12-09T11:31:11Z</time>
      </trkpt>
      <trkpt lat="45.700726434588432" lon="8.947597229853272">
        <ele>300.39999389648437</ele>
        <time>2012-12-09T11:31:15Z</time>
      </trkpt>
      <trkpt lat="45.700568435713649" lon="8.947581723332405">
        <ele>299.79998779296875</ele>
        <time>2012-12-09T11:31:17Z</time>
      </trkpt>
      <trkpt lat="45.70037548430264" lon="8.94758784212172">
        <ele>299.20001220703125</ele>
        <time>2012-12-09T11:31:20Z</time>
      </trkpt>
      <trkpt lat="45.700262663885951" lon="8.94761273637414">
        <ele>299</ele>
        <time>2012-12-09T11:31:22Z</time>
      </trkpt>
      <trkpt lat="45.700164427980781" lon="8.947611646726728">
        <ele>298.60000610351562</ele>
        <time>2012-12-09T11:31:24Z</time>
      </trkpt>
      <trkpt lat="45.700102318078279" lon="8.947565797716379">
        <ele>298.39999389648437</ele>
        <time>2012-12-09T11:31:25Z</time>
      </trkpt>
      <trkpt lat="45.700061665847898" lon="8.947538891807199">
        <ele>298.20001220703125</ele>
        <time>2012-12-09T11:31:26Z</time>
      </trkpt>
      <trkpt lat="45.700008692219853" lon="8.947487091645598">
        <ele>297.79998779296875</ele>
        <time>2012-12-09T11:31:27Z</time>
      </trkpt>
      <trkpt lat="45.69990006275475" lon="8.947310652583838">
        <ele>296.39999389648438</ele>
        <time>2012-12-09T11:31:30Z</time>
      </trkpt>
      <trkpt lat="45.69986829534173" lon="8.947218703106046">
        <ele>295.79998779296875</ele>
        <time>2012-12-09T11:31:31Z</time>
      </trkpt>
      <trkpt lat="45.699832504615188" lon="8.947053160518408">
        <ele>294.60000610351562</ele>
        <time>2012-12-09T11:31:34Z</time>
      </trkpt>
      <trkpt lat="45.699785398319364" lon="8.946869345381856">
        <ele>293.39999389648437</ele>
        <time>2012-12-09T11:31:36Z</time>
      </trkpt>
      <trkpt lat="45.699737621471286" lon="8.946678824722767">
        <ele>292</ele>
        <time>2012-12-09T11:31:39Z</time>
      </trkpt>
      <trkpt lat="45.699716918170452" lon="8.946628281846643">
        <ele>291.79998779296875</ele>
        <time>2012-12-09T11:31:40Z</time>
      </trkpt>
      <trkpt lat="45.699569312855601" lon="8.946251263841987">
        <ele>289.79998779296875</ele>
        <time>2012-12-09T11:31:44Z</time>
      </trkpt>
      <trkpt lat="45.699540646746755" lon="8.946179933845997">
        <ele>289.60000610351562</ele>
        <time>2012-12-09T11:31:45Z</time>
      </trkpt>
      <trkpt lat="45.699501419439912" lon="8.946068035438657">
        <ele>289</ele>
        <time>2012-12-09T11:31:48Z</time>
      </trkpt>
      <trkpt lat="45.699525894597173" lon="8.946090834215283">
        <ele>289.20001220703125</ele>
        <time>2012-12-09T11:31:55Z</time>
      </trkpt>
      <trkpt lat="45.699519608169794" lon="8.946006428450346">
        <ele>289</ele>
        <time>2012-12-09T11:33:25Z</time>
      </trkpt>
      <trkpt lat="45.699486499652267" lon="8.945975666865706">
        <ele>288.79998779296875</ele>
        <time>2012-12-09T11:33:27Z</time>
      </trkpt>
      <trkpt lat="45.699337972328067" lon="8.945811884477735">
        <ele>288</ele>
        <time>2012-12-09T11:33:33Z</time>
      </trkpt>
      <trkpt lat="45.699197659268975" lon="8.94573787227273">
        <ele>287.79998779296875</ele>
        <time>2012-12-09T11:33:37Z</time>
      </trkpt>
      <trkpt lat="45.699075032025576" lon="8.945749187842012">
        <ele>287.60000610351562</ele>
        <time>2012-12-09T11:33:41Z</time>
      </trkpt>
      <trkpt lat="45.698956092819571" lon="8.945752792060375">
        <ele>287.39999389648437</ele>
        <time>2012-12-09T11:33:46Z</time>
      </trkpt>
      <trkpt lat="45.698825251311064" lon="8.945708116516471">
        <ele>287</ele>
        <time>2012-12-09T11:33:51Z</time>
      </trkpt>
      <trkpt lat="45.698657864704728" lon="8.945619435980916">
        <ele>286.79998779296875</ele>
        <time>2012-12-09T11:33:56Z</time>
      </trkpt>
      <trkpt lat="45.698501709848642" lon="8.945514243096113">
        <ele>286.60000610351562</ele>
        <time>2012-12-09T11:34:02Z</time>
      </trkpt>
      <trkpt lat="45.698340525850654" lon="8.945478033274412">
        <ele>286.39999389648437</ele>
        <time>2012-12-09T11:34:07Z</time>
      </trkpt>
      <trkpt lat="45.698188478127122" lon="8.945549614727497">
        <ele>286.79998779296875</ele>
        <time>2012-12-09T11:34:12Z</time>
      </trkpt>
      <trkpt lat="45.698034837841988" lon="8.945633014664054">
        <ele>287.39999389648437</ele>
        <time>2012-12-09T11:34:18Z</time>
      </trkpt>
      <trkpt lat="45.697905337437987" lon="8.945725550875068">
        <ele>288</ele>
        <time>2012-12-09T11:34:23Z</time>
      </trkpt>
      <trkpt lat="45.697829397395253" lon="8.945826133713126">
        <ele>288.39999389648437</ele>
        <time>2012-12-09T11:34:27Z</time>
      </trkpt>
      <trkpt lat="45.697797378525138" lon="8.945989664644003">
        <ele>288.39999389648437</ele>
        <time>2012-12-09T11:34:32Z</time>
      </trkpt>
      <trkpt lat="45.697861080989242" lon="8.946147412061691">
        <ele>288.20001220703125</ele>
        <time>2012-12-09T11:34:38Z</time>
      </trkpt>
      <trkpt lat="45.697884717956185" lon="8.946335837244988">
        <ele>288.20001220703125</ele>
        <time>2012-12-09T11:34:43Z</time>
      </trkpt>
      <trkpt lat="45.697830067947507" lon="8.94646936096251">
        <ele>288.39999389648437</ele>
        <time>2012-12-09T11:34:47Z</time>
      </trkpt>
      <trkpt lat="45.69769000634551" lon="8.946680836379528">
        <ele>288.60000610351562</ele>
        <time>2012-12-09T11:34:53Z</time>
      </trkpt>
      <trkpt lat="45.697487164288759" lon="8.946848977357149">
        <ele>288.60000610351562</ele>
        <time>2012-12-09T11:35:00Z</time>
      </trkpt>
      <trkpt lat="45.697316089645028" lon="8.946984428912401">
        <ele>288.60000610351562</ele>
        <time>2012-12-09T11:35:06Z</time>
      </trkpt>
      <trkpt lat="45.697163622826338" lon="8.946952158585191">
        <ele>288.79998779296875</ele>
        <time>2012-12-09T11:35:11Z</time>
      </trkpt>
      <trkpt lat="45.6969946436584" lon="8.946858616545796">
        <ele>289.39999389648437</ele>
        <time>2012-12-09T11:35:16Z</time>
      </trkpt>
      <trkpt lat="45.696796579286456" lon="8.946792734786868">
        <ele>290</ele>
        <time>2012-12-09T11:35:22Z</time>
      </trkpt>
      <trkpt lat="45.696616619825363" lon="8.946765325963497">
        <ele>290.20001220703125</ele>
        <time>2012-12-09T11:35:27Z</time>
      </trkpt>
      <trkpt lat="45.696456274017692" lon="8.94687538035214">
        <ele>289.39999389648437</ele>
        <time>2012-12-09T11:35:32Z</time>
      </trkpt>
      <trkpt lat="45.696399444714189" lon="8.947075540199876">
        <ele>288.20001220703125</ele>
        <time>2012-12-09T11:35:36Z</time>
      </trkpt>
      <trkpt lat="45.696350829675794" lon="8.947266396135092">
        <ele>287.20001220703125</ele>
        <time>2012-12-09T11:35:40Z</time>
      </trkpt>
      <trkpt lat="45.696247732266784" lon="8.94753796979785">
        <ele>285.79998779296875</ele>
        <time>2012-12-09T11:35:46Z</time>
      </trkpt>
      <trkpt lat="45.696103060618043" lon="8.947697896510363">
        <ele>285</ele>
        <time>2012-12-09T11:35:51Z</time>
      </trkpt>
      <trkpt lat="45.695931985974312" lon="8.947713654488325">
        <ele>284.79998779296875</ele>
        <time>2012-12-09T11:35:56Z</time>
      </trkpt>
      <trkpt lat="45.695720259100199" lon="8.947733938694">
        <ele>284</ele>
        <time>2012-12-09T11:36:01Z</time>
      </trkpt>
      <trkpt lat="45.695587070658803" lon="8.947843993082643">
        <ele>283</ele>
        <time>2012-12-09T11:36:06Z</time>
      </trkpt>
      <trkpt lat="45.695485146716237" lon="8.947914652526379">
        <ele>282.39999389648438</ele>
        <time>2012-12-09T11:36:11Z</time>
      </trkpt>
      <trkpt lat="45.695317424833775" lon="8.948078686371446">
        <ele>281.20001220703125</ele>
        <time>2012-12-09T11:36:17Z</time>
      </trkpt>
      <trkpt lat="45.695237293839455" lon="8.948204414919019">
        <ele>280.60000610351562</ele>
        <time>2012-12-09T11:36:21Z</time>
      </trkpt>
      <trkpt lat="45.6951969768852" lon="8.948272056877613">
        <ele>280.39999389648437</ele>
        <time>2012-12-09T11:36:23Z</time>
      </trkpt>
      <trkpt lat="45.695141823962331" lon="8.948300052434206">
        <ele>280.20001220703125</ele>
        <time>2012-12-09T11:36:25Z</time>
      </trkpt>
      <trkpt lat="45.695026824250817" lon="8.948311368003488">
        <ele>280</ele>
        <time>2012-12-09T11:36:28Z</time>
      </trkpt>
      <trkpt lat="45.694941831752658" lon="8.948306338861585">
        <ele>280</ele>
        <time>2012-12-09T11:36:30Z</time>
      </trkpt>
      <trkpt lat="45.694751311093569" lon="8.948348248377442">
        <ele>280.20001220703125</ele>
        <time>2012-12-09T11:36:35Z</time>
      </trkpt>
      <trkpt lat="45.694635808467865" lon="8.948344895616174">
        <ele>280.39999389648437</ele>
        <time>2012-12-09T11:36:39Z</time>
      </trkpt>
      <trkpt lat="45.694526005536318" lon="8.948399629443884">
        <ele>280.60000610351562</ele>
        <time>2012-12-09T11:36:43Z</time>
      </trkpt>
      <trkpt lat="45.694488706067204" lon="8.948405664414167">
        <ele>280.60000610351562</ele>
        <time>2012-12-09T11:36:44Z</time>
      </trkpt>
      <trkpt lat="45.694381752982736" lon="8.948412537574768">
        <ele>280.60000610351562</ele>
        <time>2012-12-09T11:36:47Z</time>
      </trkpt>
      <trkpt lat="45.694236997514963" lon="8.948497446253896">
        <ele>280.60000610351562</ele>
        <time>2012-12-09T11:36:51Z</time>
      </trkpt>
      <trkpt lat="45.694095846265554" lon="8.948661647737026">
        <ele>280.20001220703125</ele>
        <time>2012-12-09T11:36:55Z</time>
      </trkpt>
      <trkpt lat="45.693953521549702" lon="8.948804643005133">
        <ele>279.60000610351562</ele>
        <time>2012-12-09T11:37:00Z</time>
      </trkpt>
      <trkpt lat="45.693794684484601" lon="8.948890808969736">
        <ele>278.60000610351562</ele>
        <time>2012-12-09T11:37:04Z</time>
      </trkpt>
      <trkpt lat="45.693635093048215" lon="8.949005473405123">
        <ele>277.39999389648437</ele>
        <time>2012-12-09T11:37:08Z</time>
      </trkpt>
      <trkpt lat="45.693562841042876" lon="8.949085017666221">
        <ele>276.60000610351562</ele>
        <time>2012-12-09T11:37:10Z</time>
      </trkpt>
      <trkpt lat="45.693487823009491" lon="8.949229773133993">
        <ele>276</ele>
        <time>2012-12-09T11:37:13Z</time>
      </trkpt>
      <trkpt lat="45.693456474691629" lon="8.949281573295593">
        <ele>275.79998779296875</ele>
        <time>2012-12-09T11:37:14Z</time>
      </trkpt>
      <trkpt lat="45.693356981500983" lon="8.949430100619793">
        <ele>275.60000610351562</ele>
        <time>2012-12-09T11:37:17Z</time>
      </trkpt>
      <trkpt lat="45.693332590162754" lon="8.949490450322628">
        <ele>275.60000610351562</ele>
        <time>2012-12-09T11:37:18Z</time>
      </trkpt>
      <trkpt lat="45.693282466381788" lon="8.949594721198082">
        <ele>276</ele>
        <time>2012-12-09T11:37:20Z</time>
      </trkpt>
      <trkpt lat="45.693161264061928" lon="8.949733022600412">
        <ele>276.39999389648438</ele>
        <time>2012-12-09T11:37:23Z</time>
      </trkpt>
      <trkpt lat="45.693029500544071" lon="8.949721371755004">
        <ele>276.39999389648438</ele>
        <time>2012-12-09T11:37:26Z</time>
      </trkpt>
      <trkpt lat="45.692936629056931" lon="8.949683737009764">
        <ele>276.39999389648438</ele>
        <time>2012-12-09T11:37:28Z</time>
      </trkpt>
      <trkpt lat="45.692874770611525" lon="8.949666218832135">
        <ele>276.39999389648438</ele>
        <time>2012-12-09T11:37:29Z</time>
      </trkpt>
      <trkpt lat="45.692819785326719" lon="8.949672505259514">
        <ele>276.39999389648438</ele>
        <time>2012-12-09T11:37:30Z</time>
      </trkpt>
      <trkpt lat="45.692666647955775" lon="8.949718773365021">
        <ele>276.39999389648438</ele>
        <time>2012-12-09T11:37:34Z</time>
      </trkpt>
      <trkpt lat="45.692649716511369" lon="8.949732268229127">
        <ele>276.60000610351562</ele>
        <time>2012-12-09T11:37:35Z</time>
      </trkpt>
      <trkpt lat="45.692632030695677" lon="8.949737967923284">
        <ele>276.60000610351562</ele>
        <time>2012-12-09T11:37:36Z</time>
      </trkpt>
      <trkpt lat="45.692561287432909" lon="8.94975540228188">
        <ele>276.60000610351562</ele>
        <time>2012-12-09T11:37:39Z</time>
      </trkpt>
      <trkpt lat="45.69247093051672" lon="8.949846429750323">
        <ele>276.79998779296875</ele>
        <time>2012-12-09T11:37:43Z</time>
      </trkpt>
      <trkpt lat="45.692308740690351" lon="8.949895044788718">
        <ele>277.60000610351562</ele>
        <time>2012-12-09T11:37:48Z</time>
      </trkpt>
      <trkpt lat="45.692158956080675" lon="8.949979785829783">
        <ele>278.20001220703125</ele>
        <time>2012-12-09T11:37:52Z</time>
      </trkpt>
      <trkpt lat="45.69195837713778" lon="8.950121439993382">
        <ele>278.60000610351562</ele>
        <time>2012-12-09T11:37:57Z</time>
      </trkpt>
      <trkpt lat="45.691920407116413" lon="8.950142730027437">
        <ele>278.79998779296875</ele>
        <time>2012-12-09T11:37:58Z</time>
      </trkpt>
      <trkpt lat="45.691740615293384" lon="8.950231494382024">
        <ele>279.20001220703125</ele>
        <time>2012-12-09T11:38:02Z</time>
      </trkpt>
      <trkpt lat="45.691569792106748" lon="8.950311793014407">
        <ele>279.20001220703125</ele>
        <time>2012-12-09T11:38:06Z</time>
      </trkpt>
      <trkpt lat="45.691534085199237" lon="8.95031925290823">
        <ele>279</ele>
        <time>2012-12-09T11:38:07Z</time>
      </trkpt>
      <trkpt lat="45.691358149051666" lon="8.950441209599376">
        <ele>278.60000610351562</ele>
        <time>2012-12-09T11:38:11Z</time>
      </trkpt>
      <trkpt lat="45.691317496821284" lon="8.950472977012396">
        <ele>278.60000610351562</ele>
        <time>2012-12-09T11:38:12Z</time>
      </trkpt>
      <trkpt lat="45.691187912598252" lon="8.950506588444114">
        <ele>278.39999389648437</ele>
        <time>2012-12-09T11:38:15Z</time>
      </trkpt>
      <trkpt lat="45.690985657274723" lon="8.950629886239767">
        <ele>277.79998779296875</ele>
        <time>2012-12-09T11:38:20Z</time>
      </trkpt>
      <trkpt lat="45.690903766080737" lon="8.950688056647778">
        <ele>277.39999389648437</ele>
        <time>2012-12-09T11:38:22Z</time>
      </trkpt>
      <trkpt lat="45.690725818276405" lon="8.950800960883498">
        <ele>277.20001220703125</ele>
        <time>2012-12-09T11:38:26Z</time>
      </trkpt>
      <trkpt lat="45.690694050863385" lon="8.950834991410375">
        <ele>277</ele>
        <time>2012-12-09T11:38:27Z</time>
      </trkpt>
      <trkpt lat="45.690539656206965" lon="8.950929371640086">
        <ele>277.20001220703125</ele>
        <time>2012-12-09T11:38:31Z</time>
      </trkpt>
      <trkpt lat="45.69048173725605" lon="8.951002210378647">
        <ele>277</ele>
        <time>2012-12-09T11:38:33Z</time>
      </trkpt>
      <trkpt lat="45.690409736707807" lon="8.951088711619377">
        <ele>277</ele>
        <time>2012-12-09T11:38:35Z</time>
      </trkpt>
      <trkpt lat="45.690296078100801" lon="8.951221564784646">
        <ele>276.60000610351562</ele>
        <time>2012-12-09T11:38:38Z</time>
      </trkpt>
      <trkpt lat="45.690217791125178" lon="8.951280824840069">
        <ele>276.20001220703125</ele>
        <time>2012-12-09T11:38:40Z</time>
      </trkpt>
      <trkpt lat="45.690173786133528" lon="8.951314184814692">
        <ele>276</ele>
        <time>2012-12-09T11:38:41Z</time>
      </trkpt>
      <trkpt lat="45.690101701766253" lon="8.951400518417358">
        <ele>275.39999389648437</ele>
        <time>2012-12-09T11:38:43Z</time>
      </trkpt>
      <trkpt lat="45.690071610733867" lon="8.951451731845737">
        <ele>275.20001220703125</ele>
        <time>2012-12-09T11:38:44Z</time>
      </trkpt>
      <trkpt lat="45.689931297674775" lon="8.951664213091135">
        <ele>274</ele>
        <time>2012-12-09T11:38:48Z</time>
      </trkpt>
      <trkpt lat="45.689869942143559" lon="8.951768819242716">
        <ele>274.20001220703125</ele>
        <time>2012-12-09T11:38:50Z</time>
      </trkpt>
      <trkpt lat="45.689831720665097" lon="8.951822798699141">
        <ele>274.20001220703125</ele>
        <time>2012-12-09T11:38:51Z</time>
      </trkpt>
      <trkpt lat="45.689664417877793" lon="8.951997058466077">
        <ele>274.39999389648437</ele>
        <time>2012-12-09T11:38:55Z</time>
      </trkpt>
      <trkpt lat="45.689594764262438" lon="8.952095462009311">
        <ele>274.39999389648437</ele>
        <time>2012-12-09T11:38:57Z</time>
      </trkpt>
      <trkpt lat="45.689554614946246" lon="8.952217251062393">
        <ele>274.60000610351562</ele>
        <time>2012-12-09T11:38:59Z</time>
      </trkpt>
      <trkpt lat="45.689532235264778" lon="8.952271565794945">
        <ele>274.60000610351562</ele>
        <time>2012-12-09T11:39:00Z</time>
      </trkpt>
      <trkpt lat="45.689452523365617" lon="8.95240031182766">
        <ele>274.60000610351562</ele>
        <time>2012-12-09T11:39:03Z</time>
      </trkpt>
      <trkpt lat="45.689257476478815" lon="8.952508354559541">
        <ele>274.20001220703125</ele>
        <time>2012-12-09T11:39:08Z</time>
      </trkpt>
      <trkpt lat="45.689202742651105" lon="8.952524196356535">
        <ele>274</ele>
        <time>2012-12-09T11:39:09Z</time>
      </trkpt>
      <trkpt lat="45.689089838415384" lon="8.95261287689209">
        <ele>274.39999389648437</ele>
        <time>2012-12-09T11:39:12Z</time>
      </trkpt>
      <trkpt lat="45.689035439863801" lon="8.952700719237328">
        <ele>274.60000610351562</ele>
        <time>2012-12-09T11:39:14Z</time>
      </trkpt>
      <trkpt lat="45.689000738784671" lon="8.952763080596924">
        <ele>274.79998779296875</ele>
        <time>2012-12-09T11:39:15Z</time>
      </trkpt>
      <trkpt lat="45.688933599740267" lon="8.952861819416285">
        <ele>275.20001220703125</ele>
        <time>2012-12-09T11:39:17Z</time>
      </trkpt>
      <trkpt lat="45.688896048814058" lon="8.952984027564526">
        <ele>275.39999389648437</ele>
        <time>2012-12-09T11:39:19Z</time>
      </trkpt>
      <trkpt lat="45.688875932246447" lon="8.953035660088062">
        <ele>275.60000610351562</ele>
        <time>2012-12-09T11:39:20Z</time>
      </trkpt>
      <trkpt lat="45.688845086842775" lon="8.953077988699079">
        <ele>275.60000610351562</ele>
        <time>2012-12-09T11:39:21Z</time>
      </trkpt>
      <trkpt lat="45.688735535368323" lon="8.953118473291397">
        <ele>275.39999389648437</ele>
        <time>2012-12-09T11:39:24Z</time>
      </trkpt>
      <trkpt lat="45.688595892861485" lon="8.953202292323113">
        <ele>275.39999389648437</ele>
        <time>2012-12-09T11:39:27Z</time>
      </trkpt>
      <trkpt lat="45.68851986899972" lon="8.953263815492392">
        <ele>275.20001220703125</ele>
        <time>2012-12-09T11:39:29Z</time>
      </trkpt>
      <trkpt lat="45.688388021662831" lon="8.95344452932477">
        <ele>275.39999389648437</ele>
        <time>2012-12-09T11:39:33Z</time>
      </trkpt>
      <trkpt lat="45.688352985307574" lon="8.953494653105736">
        <ele>275.39999389648437</ele>
        <time>2012-12-09T11:39:34Z</time>
      </trkpt>
      <trkpt lat="45.688324989750981" lon="8.953537736088038">
        <ele>275.39999389648437</ele>
        <time>2012-12-09T11:39:35Z</time>
      </trkpt>
      <trkpt lat="45.688207475468516" lon="8.953671678900719">
        <ele>275</ele>
        <time>2012-12-09T11:39:38Z</time>
      </trkpt>
      <trkpt lat="45.68807085044682" lon="8.953710068017244">
        <ele>274.39999389648437</ele>
        <time>2012-12-09T11:39:41Z</time>
      </trkpt>
      <trkpt lat="45.687911510467529" lon="8.953602192923427">
        <ele>273.60000610351562</ele>
        <time>2012-12-09T11:39:45Z</time>
      </trkpt>
      <trkpt lat="45.687802881002426" lon="8.95350999198854">
        <ele>273</ele>
        <time>2012-12-09T11:39:48Z</time>
      </trkpt>
      <trkpt lat="45.68764572031796" lon="8.95354812964797">
        <ele>272.39999389648437</ele>
        <time>2012-12-09T11:39:52Z</time>
      </trkpt>
      <trkpt lat="45.687558045610785" lon="8.953667739406228">
        <ele>271.79998779296875</ele>
        <time>2012-12-09T11:39:55Z</time>
      </trkpt>
      <trkpt lat="45.687433406710625" lon="8.953752396628261">
        <ele>271.39999389648437</ele>
        <time>2012-12-09T11:39:58Z</time>
      </trkpt>
      <trkpt lat="45.687249088659883" lon="8.953715180978179">
        <ele>271.60000610351562</ele>
        <time>2012-12-09T11:40:02Z</time>
      </trkpt>
      <trkpt lat="45.6870979629457" lon="8.953846441581845">
        <ele>271.39999389648437</ele>
        <time>2012-12-09T11:40:06Z</time>
      </trkpt>
      <trkpt lat="45.687051275745034" lon="8.953887093812227">
        <ele>271.39999389648437</ele>
        <time>2012-12-09T11:40:07Z</time>
      </trkpt>
      <trkpt lat="45.686919093132019" lon="8.954003602266312">
        <ele>271.20001220703125</ele>
        <time>2012-12-09T11:40:10Z</time>
      </trkpt>
      <trkpt lat="45.686756484210491" lon="8.954152883961797">
        <ele>271</ele>
        <time>2012-12-09T11:40:14Z</time>
      </trkpt>
      <trkpt lat="45.686716921627522" lon="8.954198397696018">
        <ele>271</ele>
        <time>2012-12-09T11:40:15Z</time>
      </trkpt>
      <trkpt lat="45.686671826988459" lon="8.954237038269639">
        <ele>271</ele>
        <time>2012-12-09T11:40:16Z</time>
      </trkpt>
      <trkpt lat="45.68654291331768" lon="8.954318342730403">
        <ele>271</ele>
        <time>2012-12-09T11:40:19Z</time>
      </trkpt>
      <trkpt lat="45.686503350734711" lon="8.954349104315043">
        <ele>270.79998779296875</ele>
        <time>2012-12-09T11:40:20Z</time>
      </trkpt>
      <trkpt lat="45.686343256384134" lon="8.954507857561112">
        <ele>270.79998779296875</ele>
        <time>2012-12-09T11:40:24Z</time>
      </trkpt>
      <trkpt lat="45.686300843954086" lon="8.954544821754098">
        <ele>270.79998779296875</ele>
        <time>2012-12-09T11:40:25Z</time>
      </trkpt>
      <trkpt lat="45.686171511188149" lon="8.954663006588817">
        <ele>270.60000610351562</ele>
        <time>2012-12-09T11:40:28Z</time>
      </trkpt>
      <trkpt lat="45.686086686328053" lon="8.954704329371452">
        <ele>270.39999389648437</ele>
        <time>2012-12-09T11:40:30Z</time>
      </trkpt>
      <trkpt lat="45.685946876183152" lon="8.954741712659597">
        <ele>270.20001220703125</ele>
        <time>2012-12-09T11:40:33Z</time>
      </trkpt>
      <trkpt lat="45.685855932533741" lon="8.954766187816858">
        <ele>270</ele>
        <time>2012-12-09T11:40:35Z</time>
      </trkpt>
      <trkpt lat="45.685635572299361" lon="8.954855035990477">
        <ele>269.79998779296875</ele>
        <time>2012-12-09T11:40:40Z</time>
      </trkpt>
      <trkpt lat="45.685492493212223" lon="8.954894095659256">
        <ele>269.60000610351562</ele>
        <time>2012-12-09T11:40:43Z</time>
      </trkpt>
      <trkpt lat="45.685375817120075" lon="8.954875152558088">
        <ele>269.60000610351562</ele>
        <time>2012-12-09T11:40:45Z</time>
      </trkpt>
      <trkpt lat="45.685088401660323" lon="8.954833913594484">
        <ele>269.39999389648437</ele>
        <time>2012-12-09T11:40:50Z</time>
      </trkpt>
      <trkpt lat="45.685030901804566" lon="8.954839613288641">
        <ele>269.39999389648437</ele>
        <time>2012-12-09T11:40:51Z</time>
      </trkpt>
      <trkpt lat="45.684791682288051" lon="8.954898035153747">
        <ele>268.60000610351562</ele>
        <time>2012-12-09T11:40:56Z</time>
      </trkpt>
      <trkpt lat="45.684413909912109" lon="8.954997695982456">
        <ele>267.39999389648437</ele>
        <time>2012-12-09T11:41:04Z</time>
      </trkpt>
      <trkpt lat="45.684039909392595" lon="8.955136835575104">
        <ele>266.39999389648437</ele>
        <time>2012-12-09T11:41:11Z</time>
      </trkpt>
      <trkpt lat="45.683876797556877" lon="8.955351831391454">
        <ele>265.60000610351562</ele>
        <time>2012-12-09T11:41:15Z</time>
      </trkpt>
      <trkpt lat="45.683834720402956" lon="8.955642431974411">
        <ele>264.60000610351562</ele>
        <time>2012-12-09T11:41:19Z</time>
      </trkpt>
      <trkpt lat="45.683733215555549" lon="8.955894308164716">
        <ele>263.20001220703125</ele>
        <time>2012-12-09T11:41:23Z</time>
      </trkpt>
      <trkpt lat="45.683565409854054" lon="8.956063538789749">
        <ele>261.79998779296875</ele>
        <time>2012-12-09T11:41:27Z</time>
      </trkpt>
      <trkpt lat="45.68352316506207" lon="8.956100167706609">
        <ele>261.60000610351562</ele>
        <time>2012-12-09T11:41:28Z</time>
      </trkpt>
      <trkpt lat="45.683448230847716" lon="8.956172838807106">
        <ele>261</ele>
        <time>2012-12-09T11:41:30Z</time>
      </trkpt>
      <trkpt lat="45.683373128995299" lon="8.95625464618206">
        <ele>260.60000610351562</ele>
        <time>2012-12-09T11:41:32Z</time>
      </trkpt>
      <trkpt lat="45.683334907516837" lon="8.956291526556015">
        <ele>260.39999389648437</ele>
        <time>2012-12-09T11:41:33Z</time>
      </trkpt>
      <trkpt lat="45.683252932503819" lon="8.956464193761349">
        <ele>260</ele>
        <time>2012-12-09T11:41:37Z</time>
      </trkpt>
      <trkpt lat="45.683237928897142" lon="8.956508953124285">
        <ele>259.79998779296875</ele>
        <time>2012-12-09T11:41:38Z</time>
      </trkpt>
      <trkpt lat="45.683124605566263" lon="8.956727972254157">
        <ele>259.60000610351562</ele>
        <time>2012-12-09T11:41:44Z</time>
      </trkpt>
      <trkpt lat="45.68286107853055" lon="8.956906758248806">
        <ele>259.39999389648438</ele>
        <time>2012-12-09T11:41:52Z</time>
      </trkpt>
      <trkpt lat="45.682532675564289" lon="8.957109013572335">
        <ele>259</ele>
        <time>2012-12-09T11:42:01Z</time>
      </trkpt>
      <trkpt lat="45.682207876816392" lon="8.957316633313894">
        <ele>258.60000610351562</ele>
        <time>2012-12-09T11:42:10Z</time>
      </trkpt>
      <trkpt lat="45.682099666446447" lon="8.957347059622407">
        <ele>258.39999389648437</ele>
        <time>2012-12-09T11:42:13Z</time>
      </trkpt>
      <trkpt lat="45.682060942053795" lon="8.957325266674161">
        <ele>258.20001220703125</ele>
        <time>2012-12-09T11:42:14Z</time>
      </trkpt>
      <trkpt lat="45.681913252919912" lon="8.957297019660473">
        <ele>257.79998779296875</ele>
        <time>2012-12-09T11:42:18Z</time>
      </trkpt>
      <trkpt lat="45.681875869631767" lon="8.957293750718236">
        <ele>257.79998779296875</ele>
        <time>2012-12-09T11:42:19Z</time>
      </trkpt>
      <trkpt lat="45.681678894907236" lon="8.957276232540608">
        <ele>257.20001220703125</ele>
        <time>2012-12-09T11:42:25Z</time>
      </trkpt>
      <trkpt lat="45.681634470820427" lon="8.957295091822743">
        <ele>257.20001220703125</ele>
        <time>2012-12-09T11:42:29Z</time>
      </trkpt>
      <trkpt lat="45.681655257940292" lon="8.957302300259471">
        <ele>257.20001220703125</ele>
        <time>2012-12-09T11:43:17Z</time>
      </trkpt>
      <trkpt lat="45.68163363263011" lon="8.95729785785079">
        <ele>257.20001220703125</ele>
        <time>2012-12-09T11:43:24Z</time>
      </trkpt>
      <trkpt lat="45.681610833853483" lon="8.957318561151624">
        <ele>257.20001220703125</ele>
        <time>2012-12-09T11:43:51Z</time>
      </trkpt>
      <trkpt lat="45.68163899704814" lon="8.957311268895865">
        <ele>257.20001220703125</ele>
        <time>2012-12-09T11:43:58Z</time>
      </trkpt>
      <trkpt lat="45.681651150807738" lon="8.957354854792357">
        <ele>257.20001220703125</ele>
        <time>2012-12-09T11:44:09Z</time>
      </trkpt>
      <trkpt lat="45.68165173754096" lon="8.957350999116898">
        <ele>257.20001220703125</ele>
        <time>2012-12-09T11:44:15Z</time>
      </trkpt>
      <trkpt lat="45.681654755026102" lon="8.95731839351356">
        <ele>257.20001220703125</ele>
        <time>2012-12-09T11:44:24Z</time>
      </trkpt>
      <trkpt lat="45.681630447506905" lon="8.957304395735264">
        <ele>257.20001220703125</ele>
        <time>2012-12-09T11:44:30Z</time>
      </trkpt>
      <trkpt lat="45.681614354252815" lon="8.957293331623077">
        <ele>257.20001220703125</ele>
        <time>2012-12-09T11:48:11Z</time>
      </trkpt>
      <trkpt lat="45.681611001491547" lon="8.957326859235764">
        <ele>257.20001220703125</ele>
        <time>2012-12-09T11:50:38Z</time>
      </trkpt>
      <trkpt lat="45.681572025641799" lon="8.957269946113229">
        <ele>257.39999389648437</ele>
        <time>2012-12-09T11:51:57Z</time>
      </trkpt>
      <trkpt lat="45.681586610153317" lon="8.957280507311225">
        <ele>257.39999389648437</ele>
        <time>2012-12-09T11:52:03Z</time>
      </trkpt>
      <trkpt lat="45.681637236848474" lon="8.957296013832092">
        <ele>257.20001220703125</ele>
        <time>2012-12-09T11:53:09Z</time>
      </trkpt>
    </trkseg>
  </trk>

</gpx>
